[[{"header":{"parameterUnit":"m.s-1","parameterCategory":1,"la1":31.0,"la2":29.5877,"lo1":-88.7671,"lo2":-86.6584,"dy":0.0162,"dx":0.0185,"nx":115,"ny":88,"refTime":"2024-06-04T06:00:00:Z","depth":0,"parameterNumber":2,"parameterNumberName":"U-component_of_WINDS"},"data":[0.0,0.0,0.0,0.0,0.0,0.0,0.0,0.0,0.0,0.0,0.0,0.0,0.0,0.0,0.0,0.0,0.0,0.0,0.0,0.0,0.0,0.0,0.0,0.0,0.0,0.0,0.0,0.0,0.0,0.0,0.0,0.0,0.0,0.0,0.0,0.0,0.0,0.0,0.0,0.0,0.0,0.0,0.0,0.0,0.0,0.0,0.0,0.0,0.0,0.0,0.0,0.0,0.0,0.0,0.0,0.0,0.0,0.0,0.0,0.0,0.0,0.0,0.0,0.0,0.0,0.0,0.0,0.0,0.0,0.0,0.0,0.0,0.0,0.0,0.0,0.0,0.0,0.0,0.0,0.0,0.0,0.0,0.0,0.0,0.0,0.0,0.0,0.0,0.0,0.0,0.0,0.0,0.0,0.0,0.0,0.0,0.0,0.0,0.0,0.0,0.0,0.0,0.0,0.0,0.0,0.0,0.0,0.0,0.0,0.0,0.0,0.0,0.0,0.0,0.0,0.0,0.0,0.0,0.0,0.0,0.0,0.0,0.0,0.0,0.0,0.0,0.0,0.0,0.0,0.0,0.0,0.0,0.0,0.0,0.0,0.0,0.0,0.0,0.0,0.0,0.0,0.0,0.0,0.0,0.0,0.0,0.0,0.0,0.0,0.0,0.0,0.0,0.0,0.0,0.0,0.0,0.0,0.0,0.0,0.0,0.0,0.0,0.0,0.0,0.0,0.0,0.0,0.0,0.0,0.0,0.0,0.0,0.0,0.0,0.0,0.0,0.0,0.0,0.0,0.0,0.0,0.0,0.0,0.0,0.0,0.0,0.0,0.0,0.0,0.0,0.0,0.0,0.0,0.0,0.0,0.0,0.0,0.0,0.0,0.0,0.0,0.0,0.0,0.0,0.0,0.0,0.0,0.0,0.0,0.0,0.0,0.0,0.0,0.0,0.0,0.0,0.0,0.0,0.0,0.0,0.0,0.0,0.0,0.0,0.0,0.0,0.0,0.0,0.0,0.0,0.0,0.0,0.0,0.0,0.0,0.0,0.0,0.0,0.0,0.0,0.0,0.0,0.0,0.0,0.0,0.0,0.0,0.0,0.0,0.0,0.0,0.0,0.0,0.0,0.0,0.0,0.0,0.0,0.0,0.0,0.0,0.0,0.0,0.0,0.0,0.0,0.0,0.0,0.0,0.0,0.0,0.0,0.0,0.0,0.0,0.0,0.0,0.0,0.0,0.0,0.0,0.0,0.0,0.0,0.0,0.0,0.0,0.0,0.0,0.0,0.0,0.0,0.0,0.0,0.0,0.0,0.0,0.0,0.0,0.0,0.0,0.0,0.0,0.0,0.0,0.0,0.0,0.0,0.0,0.0,0.0,0.0,0.0,0.0,0.0,0.0,0.0,0.0,0.0,0.0,0.0,0.0,0.0,0.0,0.0,0.0,0.0,0.0,0.0,0.0,0.0,0.0,0.0,0.0,0.0,0.0,0.0,0.0,0.0,0.0,0.0,0.0,0.0,0.0,0.0,0.0,0.0,0.0,0.0,0.0,0.0,0.0,0.0,0.0,0.0,0.0,0.0,0.0,0.0,0.0,0.0,0.0,0.0,0.0,0.0,0.0,0.0,0.0,0.0,0.0,0.0,0.0,0.0,0.0,0.0,0.0,0.0,0.0,0.0,0.0,0.0,0.0,0.0,0.0,0.0,0.0,0.0,0.0,0.0,0.0,0.0,0.0,0.0,0.0,0.0,0.0,0.0,0.0,0.0,0.0,0.0,0.0,0.0,0.0,0.0,0.0,0.0,0.0,0.0,0.0,0.0,0.0,0.0,0.0,0.0,0.0,0.0,0.0,0.0,0.0,0.0,0.0,0.0,0.0,0.0,0.0,0.0,0.0,0.0,0.0,0.0,0.0,0.0,0.0,0.0,0.0,0.0,0.0,0.0,0.0,0.0,0.0,0.0,0.0,0.0,0.0,0.0,0.0,0.0,0.0,0.0,0.0,0.0,0.0,0.0,0.0,0.0,0.0,0.0,0.0,0.0,0.0,0.0,0.0,0.0,0.0,0.0,0.0,0.0,0.0,0.0,0.0,0.0,0.0,0.0,0.0,0.0,0.0,0.0,0.0,0.0,0.0,0.0,0.0,0.0,0.0,0.0,0.0,0.0,0.0,0.0,0.0,0.0,0.0,0.0,0.0,0.0,0.0,0.0,0.0,0.0,0.0,0.0,0.0,0.0,0.0,0.0,0.0,0.0,0.0,0.0,0.0,0.0,0.0,0.0,0.0,0.0,0.0,0.0,0.0,0.0,0.0,0.0,0.0,0.0,0.0,0.0,0.0,0.0,0.0,0.0,0.0,0.0,0.0,0.0,0.0,0.0,0.0,0.0,0.0,0.0,0.0,0.0,0.0,0.0,0.0,0.0,0.0,0.0,0.0,0.0,0.0,0.0,0.0,0.0,0.0,0.0,0.0,0.0,0.0,0.0,0.0,0.0,0.0,0.0,0.0,0.0,0.0,0.0,0.0,0.0,0.0,0.0,0.0,0.0,0.0,0.0,0.0,0.0,0.0,0.0,0.0,0.0,0.0,0.0,0.0,0.0,0.0,0.0,0.0,0.0,0.0,0.0,0.0,0.0,0.0,0.0,0.0,0.0,0.0,0.0,0.0,0.0,0.0,0.0,0.0,0.0,0.0,0.0,0.0,0.0,0.0,0.0,0.0,0.0,0.0,0.0,0.0,0.0,0.0,0.0,0.0,0.0,0.0,0.0,0.0,0.0,0.0,0.0,0.0,0.0,0.0,0.0,0.0,0.0,0.0,0.0,0.0,0.0,0.0,0.0,0.0,0.0,0.0,0.0,0.0,0.0,0.0,0.0,0.0,0.0,0.0,0.0,0.0,0.0,0.0,0.0,0.0,0.0,0.0,0.0,0.0,0.0,0.0,0.0,0.0,0.0,0.0,0.0,0.0,0.0,0.0,0.0,0.0,0.0,0.0,0.0,0.0,0.0,0.0,0.0,0.0,0.0,0.0,0.0,0.0,0.0,0.0,0.0,0.0,0.0,0.0,0.0,0.0,0.0,0.0,0.0,0.0,0.0,0.0,0.0,0.0,0.0,0.0,0.0,0.0,0.0,0.0,0.0,0.0,0.0,0.0,0.0,0.0,0.0,0.0,0.0,0.0,0.0,0.0,0.0,0.0,0.0,0.0,0.0,0.0,0.0,0.0,0.0,0.0,0.0,0.0,0.0,0.0,0.0,0.0,0.0,0.0,0.0,0.0,0.0,0.0,0.0,0.0,0.0,0.0,0.0,0.0,0.0,0.0,0.0,0.0,0.0,0.0,0.0,0.0,0.0,0.0,0.0,0.0,0.0,0.0,0.0,0.0,0.0,0.0,0.0,0.0,0.0,0.0,0.0,0.0,0.0,0.0,0.0,0.0,0.0,0.0,0.0,0.0,0.0,0.0,0.0,0.0,0.0,0.0,0.0,0.0,0.0,0.0,0.0,0.0,0.0,0.0,0.0,0.0,0.0,0.0,0.0,0.0,0.0,0.0,0.0,0.0,0.0,0.0,0.0,0.0,0.0,0.0,0.0,0.0,0.0,0.0,0.0,0.0,0.0,0.0,0.0,0.0,0.0,0.0,0.0,0.0,0.0,0.0,0.0,0.0,0.0,0.0,0.0,0.0,0.0,0.0,0.0,0.0,0.0,0.0,0.0,0.0,0.0,0.0,0.0,0.0,0.0,0.0,0.0,0.0,0.0,0.0,0.0,0.0,0.0,0.0,0.0,0.0,0.0,0.0,0.0,0.0,0.0,0.0,0.0,0.0,0.0,0.0,0.0,0.0,0.0,0.0,0.0,0.0,0.0,0.0,0.0,0.0,0.0,0.0,0.0,0.0,0.0,0.0,0.0,0.0,0.0,0.0,0.0,0.0,0.0,0.0,0.0,0.0,0.0,0.0,0.0,0.0,0.0,0.0,0.0,0.0,0.0,0.0,0.0,0.0,0.0,0.0,0.0,0.0,0.0,0.0,0.0,0.0,0.0,0.0,0.0,0.0,0.0,0.0,0.0,0.0,0.0,0.0,0.0,0.0,0.0,0.0,0.0,0.0,0.0,0.0,0.0,0.0,0.0,0.0,0.0,0.0,0.0,0.0,0.0,0.0,0.0,0.0,0.0,0.0,0.0,0.0,0.0,0.0,0.0,0.0,0.0,0.0,0.0,0.0,0.0,0.0,0.0,0.0,0.0,0.0,0.0,0.0,0.0,0.0,0.0,0.0,1.6701,0.0,0.0,0.0,0.0,0.0,0.0,0.0,0.0,0.0,0.0,0.0,0.0,0.0,0.0,0.0,0.0,0.0,0.0,0.0,0.0,0.0,0.0,0.0,0.0,0.0,0.0,0.0,0.0,0.0,0.0,0.0,0.0,0.0,0.0,0.0,0.0,0.0,0.0,0.0,0.0,0.0,0.0,0.0,0.0,0.0,0.0,0.0,0.0,0.0,0.0,0.0,0.0,0.0,0.0,0.0,0.0,0.0,0.0,0.0,0.0,0.0,0.0,0.0,0.0,0.0,0.0,0.0,0.0,0.0,0.0,0.0,0.0,0.0,0.0,0.0,0.0,0.0,0.0,0.0,0.0,0.0,0.0,0.0,0.0,0.0,0.0,0.0,0.0,0.0,0.0,0.0,0.0,0.0,0.0,0.0,0.0,0.0,0.0,0.0,0.0,0.0,0.0,0.0,0.0,0.0,0.0,0.0,0.0,0.0,0.0,1.6633,1.6607,1.6607,1.6565,1.6554,0.0,0.0,0.0,0.0,0.0,0.0,0.0,0.0,0.0,0.0,0.0,0.0,0.0,0.0,0.0,0.0,0.0,0.0,0.0,0.0,0.0,0.0,0.0,0.0,0.0,0.0,0.0,0.0,0.0,0.0,0.0,0.0,0.0,0.0,0.0,0.0,0.0,0.0,0.0,0.0,0.0,0.0,0.0,0.0,0.0,0.0,0.0,0.0,0.0,0.0,0.0,0.0,0.0,0.0,0.0,0.0,0.0,0.0,0.0,0.0,0.0,0.0,0.0,0.0,0.0,0.0,0.0,0.0,0.0,0.0,0.0,0.0,0.0,0.0,0.0,0.0,0.0,0.0,0.0,0.0,0.0,0.0,0.0,0.0,0.0,0.0,0.0,0.0,0.0,0.0,0.0,0.0,0.0,0.0,0.0,0.0,0.0,0.0,0.0,0.0,0.0,0.0,0.0,0.0,0.0,0.0,0.0,0.0,0.0,0.0,0.0,0.0,1.7052,1.7052,1.7052,0.0,0.0,0.0,0.0,0.0,0.0,0.0,0.0,0.0,0.0,0.0,0.0,0.0,0.0,0.0,0.0,0.0,0.0,0.0,0.0,0.0,0.0,0.0,0.0,0.0,0.0,0.0,0.0,0.0,0.0,0.0,0.0,0.0,0.0,0.0,0.0,0.0,0.0,0.0,0.0,0.0,0.0,0.0,0.0,0.0,0.0,0.0,0.0,0.0,0.0,0.0,0.0,0.0,0.0,0.0,0.0,0.0,0.0,0.0,0.0,0.0,0.0,0.0,0.0,0.0,0.0,0.0,0.0,0.0,0.0,0.0,0.0,0.0,0.0,0.0,0.0,0.0,0.0,0.0,0.0,0.0,0.0,0.0,0.0,0.0,0.0,0.0,0.0,0.0,0.0,0.0,0.0,0.0,0.0,0.0,0.0,0.0,0.0,0.0,0.0,0.0,0.0,0.0,0.0,0.0,0.0,0.0,0.0,0.0,0.0,1.6892,1.8642,1.8687,0.0,1.867,0.0,0.0,0.0,0.0,0.0,0.0,0.0,0.0,0.0,0.0,0.0,0.0,0.0,0.0,0.0,0.0,0.0,0.0,0.0,0.0,0.0,0.0,0.0,0.0,0.0,0.0,0.0,0.0,0.0,0.0,0.0,0.0,0.0,0.0,0.0,0.0,0.0,0.0,0.0,0.0,0.0,0.0,0.0,0.0,0.0,0.0,0.0,0.0,0.0,0.0,0.0,0.0,0.0,0.0,0.0,0.0,0.0,0.0,0.0,0.0,0.0,0.0,0.0,0.0,0.0,0.0,0.0,0.0,0.0,0.0,0.0,0.0,0.0,0.0,0.0,0.0,0.0,0.0,0.0,0.0,0.0,0.0,0.0,0.0,0.0,0.0,0.0,0.0,0.0,0.0,0.0,0.0,0.0,0.0,0.0,0.0,0.0,0.0,0.0,0.0,0.0,0.0,0.0,0.0,0.0,0.0,0.0,0.0,0.0,0.0,1.7977,1.8789,1.8721,1.8459,0.0,0.0,0.0,0.0,0.0,0.0,0.0,0.0,0.0,0.0,0.0,0.0,0.0,0.0,0.0,0.0,0.0,0.0,0.0,0.0,0.0,0.0,0.0,0.0,0.0,0.0,0.0,0.0,0.0,0.0,0.0,0.0,0.0,0.0,0.0,0.0,0.0,0.0,0.0,0.0,0.0,0.0,0.0,0.0,0.0,0.0,0.0,0.0,0.0,0.0,0.0,0.0,0.0,0.0,0.0,0.0,0.0,0.0,0.0,0.0,0.0,0.0,0.0,0.0,0.0,0.0,0.0,0.0,0.0,0.0,0.0,0.0,0.0,0.0,0.0,0.0,0.0,0.0,0.0,0.0,0.0,0.0,0.0,0.0,0.0,0.0,0.0,0.0,0.0,0.0,0.0,0.0,0.0,0.0,0.0,0.0,0.0,0.0,0.0,0.0,0.0,0.0,0.0,0.0,0.0,0.0,0.0,0.0,0.0,0.0,1.8235,0.0,1.9373,1.9167,1.8519,1.7467,0.0,0.0,0.0,0.0,0.0,0.0,0.0,0.0,0.0,0.0,0.0,0.0,0.0,0.0,0.0,0.0,0.0,0.0,0.0,0.0,0.0,0.0,0.0,0.0,0.0,0.0,0.0,0.0,0.0,0.0,0.0,0.0,0.0,0.0,0.0,0.0,0.0,0.0,0.0,0.0,0.0,0.0,0.0,0.0,0.0,0.0,0.0,0.0,0.0,0.0,0.0,0.0,0.0,0.0,0.0,0.0,0.0,0.0,0.0,0.0,0.0,0.0,0.0,0.0,0.0,0.0,0.0,0.0,0.0,0.0,0.0,0.0,0.0,0.0,0.0,0.0,0.0,0.0,0.0,0.0,0.0,0.0,0.0,0.0,0.0,0.0,0.0,0.0,0.0,0.0,0.0,0.0,0.0,0.0,0.0,0.0,0.0,0.0,0.0,0.0,0.0,0.0,0.0,0.0,0.0,0.0,0.0,0.0,0.0,1.9339,1.9317,2.1152,2.0661,1.9435,0.0,0.0,0.0,0.0,0.0,0.0,0.0,0.0,0.0,0.0,0.0,0.0,0.0,0.0,0.0,0.0,0.0,0.0,0.0,0.0,0.0,0.0,0.0,0.0,0.0,0.0,0.0,0.0,0.0,0.0,0.0,0.0,0.0,0.0,0.0,0.0,0.0,0.0,0.0,0.0,0.0,0.0,0.0,0.0,0.0,0.0,0.0,0.0,0.0,0.0,0.0,0.0,0.0,0.0,0.0,0.0,0.0,0.0,0.0,0.0,0.0,0.0,0.0,0.0,0.0,0.0,0.0,0.0,0.0,0.0,0.0,0.0,0.0,0.0,0.0,0.0,0.0,0.0,0.0,0.0,0.0,0.0,0.0,0.0,0.0,0.0,0.0,0.0,0.0,0.0,0.0,0.0,0.0,0.0,0.0,0.0,0.0,0.0,0.0,0.0,0.0,0.0,0.0,0.0,0.0,0.0,0.0,0.0,0.0,1.7537,1.8042,1.9351,2.1481,1.9802,1.847,0.0,0.0,0.0,0.0,0.0,0.0,0.0,0.0,0.0,0.0,0.0,0.0,0.0,0.0,0.0,0.0,0.0,0.0,0.0,0.0,0.0,0.0,0.0,0.0,0.0,0.0,0.0,0.0,0.0,0.0,0.0,0.0,0.0,0.0,0.0,0.0,0.0,0.0,0.0,0.0,0.0,0.0,0.0,0.0,0.0,0.0,0.0,0.0,0.0,0.0,0.0,0.0,0.0,0.0,0.0,0.0,0.0,0.0,0.0,0.0,0.0,0.0,0.0,0.0,0.0,0.0,0.0,0.0,0.0,0.0,0.0,0.0,0.0,0.0,0.0,0.0,0.0,0.0,0.0,0.0,0.0,0.0,0.0,0.0,0.0,0.0,0.0,0.0,0.0,0.0,0.0,0.0,0.0,0.0,0.0,0.0,0.0,0.0,0.0,0.0,0.0,0.0,0.0,0.0,0.0,0.0,0.0,0.0,0.0,1.6888,0.0,1.9926,0.0,1.9247,1.7734,0.0,0.0,0.0,0.0,0.0,0.0,0.0,0.0,0.0,0.0,0.0,0.0,0.0,0.0,0.0,0.0,0.0,0.0,0.0,0.0,0.0,0.0,0.0,0.0,0.0,0.0,0.0,0.0,0.0,0.0,0.0,0.0,0.0,0.0,0.0,0.0,0.0,0.0,0.0,0.0,0.0,0.0,0.0,0.0,0.0,0.0,0.0,0.0,0.0,0.0,0.0,0.0,0.0,0.0,0.0,0.0,0.0,0.0,0.0,0.0,0.0,0.0,0.0,0.0,0.0,0.0,0.0,0.0,0.0,0.0,0.0,0.0,0.0,0.0,0.0,0.0,0.0,0.0,0.0,0.0,0.0,0.0,0.0,0.0,0.0,0.0,0.0,0.0,0.0,0.0,0.0,0.0,0.0,0.0,0.0,0.0,0.0,0.0,0.0,0.0,0.0,0.0,0.0,0.0,0.0,0.0,0.0,0.0,1.6666,1.9581,2.0798,2.0841,1.9841,1.9059,1.7291,0.0,0.0,0.0,0.0,0.0,0.0,0.0,0.0,0.0,0.0,0.0,0.0,0.0,0.0,0.0,0.0,0.0,0.0,0.0,0.0,0.0,0.0,0.0,0.0,0.0,0.0,0.0,0.0,0.0,0.0,0.0,0.0,0.0,0.0,0.0,0.0,0.0,0.0,0.0,0.0,0.0,0.0,0.0,0.0,0.0,0.0,0.0,0.0,0.0,0.0,0.0,0.0,0.0,0.0,0.0,0.0,0.0,0.0,0.0,0.0,0.0,0.0,0.0,0.0,0.0,0.0,0.0,0.0,0.0,0.0,0.0,0.0,0.0,0.0,0.0,0.0,0.0,0.0,0.0,0.0,0.0,0.0,0.0,0.0,0.0,0.0,0.0,0.0,0.0,0.0,0.0,0.0,0.0,0.0,0.0,0.0,0.0,0.0,0.0,0.0,0.0,0.0,0.0,0.0,0.0,0.0,0.0,0.0,0.0,1.7255,1.8567,1.9516,1.9925,1.78,1.6501,0.0,0.0,0.0,0.0,0.0,0.0,0.0,0.0,0.0,0.0,0.0,0.0,0.0,0.0,0.0,0.0,0.0,0.0,0.0,0.0,0.0,0.0,0.0,0.0,0.0,0.0,0.0,0.0,0.0,0.0,0.0,0.0,0.0,0.0,0.0,0.0,0.0,0.0,0.0,0.0,0.0,0.0,0.0,0.0,0.0,0.0,0.0,0.0,0.0,0.0,0.0,0.0,0.0,0.0,0.0,0.0,0.0,0.0,0.0,0.0,0.0,0.0,0.0,0.0,0.0,0.0,0.0,0.0,0.0,0.0,0.0,0.0,0.0,0.0,0.0,0.0,0.0,0.0,0.0,0.0,0.0,0.0,0.0,0.0,0.0,0.0,0.0,0.0,0.0,0.0,0.0,0.0,0.0,0.0,0.0,0.0,0.0,0.0,0.0,0.0,0.0,0.0,0.0,0.0,0.0,0.0,0.0,0.0,0.0,1.6767,1.8339,1.9256,1.9428,1.76,1.6465,1.6179,0.0,0.0,0.0,0.0,0.0,0.0,0.0,0.0,0.0,0.0,0.0,0.0,0.0,0.0,0.0,0.0,0.0,0.0,0.0,0.0,0.0,0.0,0.0,0.0,0.0,0.0,0.0,0.0,0.0,0.0,0.0,0.0,0.0,0.0,0.0,0.0,0.0,0.0,0.0,0.0,0.0,0.0,0.0,0.0,0.0,0.0,0.0,0.0,0.0,0.0,0.0,0.0,0.0,0.0,0.0,0.0,0.0,0.0,0.0,0.0,0.0,0.0,0.0,0.0,0.0,0.0,0.0,0.0,0.0,0.0,0.0,0.0,0.0,0.0,0.0,0.0,0.0,0.0,0.0,0.0,0.0,0.0,0.0,0.0,0.0,0.0,0.0,0.0,0.0,0.0,0.0,0.0,0.0,0.0,0.0,0.0,0.0,0.0,0.0,0.0,0.0,0.0,0.0,0.0,0.0,0.0,0.0,0.0,1.7702,1.9759,2.0092,1.8523,1.8308,1.6992,0.0,0.0,0.0,0.0,0.0,0.0,0.0,0.0,0.0,0.0,0.0,0.0,0.0,0.0,0.0,0.0,0.0,0.0,0.0,0.0,0.0,0.0,0.0,0.0,0.0,0.0,0.0,0.0,0.0,0.0,0.0,0.0,0.0,0.0,0.0,0.0,0.0,0.0,0.0,0.0,0.0,0.0,0.0,0.0,0.0,0.0,0.0,0.0,0.0,0.0,0.0,0.0,0.0,0.0,0.0,0.0,0.0,0.0,0.0,0.0,0.0,0.0,0.0,0.0,0.0,0.0,0.0,0.0,0.0,0.0,0.0,0.0,0.0,0.0,0.0,0.0,0.0,0.0,0.0,0.0,0.0,0.0,0.0,0.0,0.0,0.0,0.0,0.0,0.0,0.0,0.0,0.0,0.0,0.0,0.0,0.0,0.0,0.0,0.0,0.0,0.0,0.0,0.0,0.0,0.0,0.0,0.0,0.0,0.0,1.8125,1.971,2.0366,1.9995,1.842,1.7083,0.0,0.0,0.0,0.0,0.0,0.0,0.0,0.0,0.0,0.0,0.0,0.0,0.0,0.0,0.0,0.0,0.0,0.0,0.0,0.0,0.0,0.0,0.0,0.0,0.0,0.0,0.0,0.0,0.0,0.0,0.0,0.0,0.0,0.0,0.0,0.0,0.0,0.0,0.0,0.0,0.0,0.0,0.0,0.0,0.0,0.0,0.0,0.0,0.0,0.0,0.0,0.0,0.0,0.0,0.0,0.0,0.0,0.0,0.0,0.0,0.0,0.0,0.0,0.0,0.0,0.0,0.0,0.0,0.0,0.0,0.0,0.0,0.0,0.0,0.0,0.0,0.0,0.0,0.0,0.0,0.0,0.0,0.0,0.0,0.0,0.0,0.0,0.0,0.0,0.0,0.0,0.0,0.0,0.0,0.0,0.0,0.0,0.0,0.0,0.0,0.0,0.0,0.0,0.0,0.0,0.0,0.0,0.0,1.7701,1.8603,1.9821,2.0408,2.0322,1.9022,1.769,0.0,0.0,0.0,0.0,0.0,0.0,0.0,0.0,0.0,0.0,0.0,0.0,0.0,0.0,0.0,0.0,0.0,0.0,0.0,0.0,0.0,0.0,0.0,0.0,0.0,0.0,0.0,0.0,0.0,0.0,0.0,0.0,0.0,0.0,0.0,0.0,0.0,0.0,0.0,0.0,0.0,0.0,0.0,0.0,0.0,0.0,0.0,0.0,0.0,0.0,0.0,0.0,0.0,0.0,0.0,0.0,0.0,0.0,0.0,0.0,0.0,0.0,0.0,0.0,0.0,0.0,0.0,0.0,0.0,0.0,0.0,0.0,0.0,0.0,0.0,0.0,0.0,0.0,0.0,0.0,0.0,0.0,0.0,0.0,0.0,0.0,0.0,0.0,0.0,0.0,0.0,0.0,0.0,0.0,0.0,0.0,0.0,0.0,0.0,0.0,0.0,0.0,0.0,0.0,0.0,0.0,0.0,0.0,1.8313,1.901,2.0008,2.0359,1.9912,1.9667,1.836,0.0,0.0,0.0,0.0,0.0,0.0,0.0,0.0,0.0,0.0,0.0,0.0,0.0,0.0,0.0,0.0,0.0,0.0,0.0,0.0,0.0,0.0,0.0,0.0,0.0,0.0,0.0,0.0,0.0,0.0,0.0,0.0,0.0,0.0,0.0,0.0,0.0,0.0,0.0,0.0,0.0,0.0,0.0,0.0,0.0,0.0,0.0,0.0,0.0,0.0,0.0,0.0,0.0,0.0,0.0,0.0,0.0,0.0,0.0,0.0,0.0,0.0,0.0,0.0,0.0,0.0,0.0,0.0,0.0,0.0,0.0,0.0,0.0,0.0,0.0,0.0,0.0,0.0,0.0,0.0,0.0,0.0,0.0,0.0,0.0,0.0,0.0,0.0,0.0,0.0,0.0,0.0,0.0,0.0,0.0,0.0,0.0,0.0,0.0,0.0,0.0,0.0,0.0,0.0,0.0,0.0,0.0,0.0,1.7628,1.8566,1.9625,2.0182,2.0083,1.8885,1.7578,0.0,0.0,0.0,0.0,0.0,0.0,0.0,0.0,0.0,0.0,0.0,0.0,0.0,0.0,0.0,0.0,0.0,0.0,0.0,0.0,0.0,0.0,0.0,0.0,0.0,0.0,0.0,0.0,0.0,0.0,0.0,0.0,0.0,0.0,0.0,0.0,0.0,0.0,0.0,0.0,0.0,0.0,0.0,0.0,0.0,0.0,0.0,0.0,1.2809,0.0,0.0,0.0,0.0,0.0,0.0,0.0,0.0,0.0,0.0,0.0,0.0,0.0,0.0,0.0,0.0,0.0,0.0,0.0,0.0,0.0,0.0,0.0,0.0,0.0,0.0,0.0,0.0,0.0,0.0,0.0,0.0,0.0,0.0,0.0,0.0,0.0,0.0,0.0,0.0,0.0,0.0,0.0,0.0,0.0,0.0,0.0,0.0,0.0,0.0,0.0,0.0,0.0,0.0,0.0,0.0,0.0,0.0,0.0,1.7946,1.8884,1.9552,1.9846,1.9803,1.8518,1.7449,0.0,0.0,0.0,0.0,0.0,0.0,0.0,0.0,0.0,0.0,0.0,0.0,0.0,0.0,0.0,0.0,0.0,0.0,0.0,0.0,0.0,0.0,0.0,0.0,0.0,0.0,0.0,0.0,0.0,0.0,0.0,0.0,0.0,0.0,0.0,0.0,0.0,0.0,0.0,0.0,0.0,0.0,0.0,0.0,0.0,0.0,0.0,0.0,0.0,0.0,0.0,0.0,0.0,0.0,0.0,0.0,0.0,0.0,0.0,0.0,0.0,0.0,0.0,0.0,0.0,0.0,0.0,0.0,0.0,0.0,0.0,0.0,0.0,0.0,0.0,0.0,0.0,0.0,0.0,0.0,0.0,0.0,0.0,0.0,0.0,0.0,0.0,0.0,0.0,0.0,0.0,0.0,0.0,0.0,0.0,0.0,0.0,0.0,0.0,0.0,0.0,0.0,0.0,0.0,0.0,0.0,0.0,1.6987,1.8272,1.9193,1.9393,1.9507,1.9422,1.8228,1.7374,1.688,0.0,0.0,0.0,0.0,0.0,0.0,0.0,0.0,0.0,0.0,0.0,0.0,0.0,0.0,0.0,0.0,0.0,0.0,0.0,0.0,0.0,0.0,0.0,0.0,0.0,0.0,0.0,0.0,0.0,0.0,0.0,0.0,0.0,0.0,0.0,0.0,0.0,0.0,1.0646,1.1523,0.0,0.0,0.0,0.0,0.0,0.0,0.0,0.0,1.1835,0.0,0.0,0.0,0.0,0.0,0.0,0.0,0.0,0.0,0.0,0.0,0.0,0.0,0.0,0.0,0.0,0.0,0.0,0.0,0.0,0.0,0.0,0.0,0.0,0.0,0.0,0.0,0.0,0.0,0.0,0.0,0.0,0.0,0.0,0.0,0.0,0.0,0.0,0.0,0.0,0.0,0.0,0.0,0.0,0.0,0.0,0.0,0.0,0.0,0.0,0.0,0.0,0.0,0.0,0.0,0.0,1.5774,1.6148,1.6995,1.8379,1.891,1.902,1.856,1.7653,1.6598,1.5462,0.0,0.0,0.0,0.0,0.0,0.0,0.0,0.0,0.0,0.0,0.0,0.0,0.0,0.0,0.0,0.0,0.0,0.0,0.0,0.0,0.0,0.0,0.0,0.0,0.0,0.0,0.0,0.0,0.0,0.0,0.0,0.0,0.0,0.0,0.0,0.0,0.0,0.0,0.0,1.2527,1.2983,0.0,0.0,0.0,0.0,0.0,0.0,0.0,0.0,1.1513,0.0,0.0,0.0,0.0,0.0,0.0,0.0,0.0,0.0,0.0,0.0,0.0,0.0,0.0,0.0,0.0,0.0,0.0,0.0,0.0,0.0,0.0,0.0,0.0,0.0,0.0,0.0,0.0,0.0,0.0,0.0,0.0,0.0,0.0,0.0,0.0,0.0,0.0,0.0,0.0,0.0,0.0,0.0,0.0,0.0,0.0,0.0,0.0,0.0,0.0,0.0,0.0,0.0,0.0,0.0,1.5178,1.5956,1.7022,1.8281,1.8527,1.8451,1.8049,1.6733,1.5527,0.0,0.0,0.0,0.0,0.0,0.0,0.0,0.0,0.0,0.0,0.0,0.0,0.0,0.0,0.0,0.0,0.0,0.0,0.0,0.0,0.0,0.0,0.0,0.0,0.0,0.0,0.0,0.0,0.0,0.0,0.0,0.0,0.0,0.0,0.0,0.0,0.0,0.0,0.0,0.0,1.2082,1.2414,1.2531,0.0,0.0,0.0,0.0,0.0,0.0,1.1516,1.135,0.0,0.0,0.0,0.0,0.0,0.0,0.0,0.0,0.0,0.0,0.0,0.0,0.0,0.0,0.0,0.0,0.0,0.0,0.0,0.0,0.0,0.0,0.0,0.0,0.0,0.0,0.0,0.0,0.0,0.0,0.0,0.0,0.0,0.0,0.0,0.0,0.0,0.0,0.0,0.0,0.0,0.0,0.0,0.0,0.0,0.0,0.0,0.0,0.0,0.0,0.0,0.0,0.0,0.0,0.0,1.4542,1.5792,1.6984,1.8063,1.8031,1.7734,1.7197,1.5695,1.4477,0.0,0.0,0.0,0.0,0.0,0.0,0.0,0.0,0.0,0.0,0.0,0.0,0.0,0.0,0.0,0.0,0.0,0.0,0.0,0.0,0.0,0.0,0.0,0.0,0.0,0.0,0.0,0.0,0.0,0.0,0.0,0.0,0.0,0.0,0.0,0.0,0.0,0.0,0.0,0.0,0.0,1.2,1.1868,1.2248,0.0,0.0,0.0,0.0,1.1582,1.1603,0.0,0.0,0.0,0.0,0.0,0.0,0.0,0.0,0.0,0.0,0.0,0.0,0.0,0.0,0.0,0.0,0.0,0.0,0.0,0.0,0.0,0.0,0.0,0.0,0.0,0.0,0.0,0.0,0.0,0.0,0.0,0.0,0.0,0.0,0.0,0.0,0.0,0.0,0.0,0.0,0.0,0.0,0.0,0.0,0.0,0.0,0.0,0.0,0.0,0.0,0.0,0.0,0.0,0.0,0.0,0.0,1.4273,1.519,1.6136,1.7069,1.7069,1.6563,1.5411,1.4737,1.3756,0.0,0.0,0.0,0.0,0.0,0.0,0.0,0.0,0.0,0.0,0.0,0.0,0.0,0.0,0.0,0.0,0.0,0.0,0.0,0.0,0.0,0.0,0.0,0.0,0.0,0.0,0.0,0.0,0.0,0.0,0.0,0.0,0.0,0.0,0.0,0.0,0.0,0.0,0.0,0.0,0.0,1.3027,1.2107,1.2089,1.2158,0.0,0.0,1.1641,1.2083,1.217,0.0,0.0,0.0,0.0,0.0,0.0,0.0,0.0,0.0,0.0,0.0,0.0,0.0,0.0,0.0,0.0,0.0,0.0,0.0,0.0,0.0,0.0,0.0,0.0,0.0,0.0,0.0,0.0,0.0,0.0,0.0,0.0,0.0,0.0,0.0,0.0,0.0,0.0,0.0,0.0,0.0,0.0,0.0,0.0,0.0,0.0,0.0,0.0,0.0,0.0,0.0,0.0,0.0,0.0,0.0,1.2552,1.3841,1.4697,1.5579,1.6495,1.6231,1.5652,1.4698,1.3596,1.2423,0.0,0.0,0.0,0.0,0.0,0.0,0.0,0.0,0.0,0.0,0.0,0.0,0.0,0.0,0.0,0.0,0.0,0.0,0.0,0.0,0.0,0.0,0.0,0.0,0.0,0.0,0.0,0.0,0.0,0.0,0.0,0.0,0.0,0.0,0.0,0.0,0.0,0.0,0.0,0.0,0.0,0.0,1.1926,1.2045,0.0,0.0,0.0,1.1668,1.2437,0.0,0.0,0.0,0.0,0.0,0.0,0.0,0.0,0.0,0.0,0.0,0.0,0.0,0.0,0.0,0.0,0.0,0.0,0.0,0.0,0.0,0.0,0.0,0.0,0.0,0.0,0.0,0.0,0.0,0.0,0.0,0.0,0.0,0.0,0.0,0.0,0.0,0.0,0.0,0.0,0.0,0.0,0.0,0.0,0.0,0.0,0.0,0.0,0.0,0.0,0.0,0.0,0.0,0.0,0.0,0.0,0.0,1.3394,1.4396,1.5212,1.5836,1.5382,1.4694,1.3784,1.2515,0.0,0.0,0.0,0.0,0.0,0.0,0.0,0.0,0.0,0.0,0.0,0.0,0.0,0.0,0.0,0.0,0.0,0.0,0.0,0.0,0.0,0.0,0.0,0.0,0.0,0.0,0.0,0.719,0.0,0.0,0.0,0.0,0.0,0.0,0.0,0.0,0.0,0.0,0.0,0.0,0.0,0.0,1.1039,1.1336,1.1623,1.203,0.0,0.0,1.1563,1.2267,1.2182,1.1853,0.0,0.0,0.0,0.0,0.0,0.0,0.0,0.0,0.0,0.0,0.0,0.0,0.0,0.0,0.0,0.0,0.0,0.0,0.0,0.0,0.0,0.0,0.0,0.0,0.0,0.0,0.0,0.0,0.0,0.0,0.0,0.0,0.0,0.0,0.0,0.0,0.0,0.0,0.0,0.0,0.0,0.0,0.0,0.0,0.0,0.0,0.0,0.0,0.0,0.0,0.0,0.0,0.0,0.0,0.0,1.3095,1.425,1.4815,1.4972,1.4466,1.3454,1.199,1.1553,1.0628,0.0,0.0,0.0,0.0,0.0,0.0,0.0,0.0,0.0,0.0,0.0,0.0,0.0,0.0,0.0,0.0,0.0,0.0,0.0,0.0,0.0,0.0,0.0,0.0,0.0,0.0,0.0,0.0,0.0,0.0,0.0,0.0,0.0,0.0,0.0,0.0,0.0,0.0,0.0,0.0,0.0,1.0501,1.0162,1.0654,1.1109,0.0,0.0,1.0999,1.139,1.1401,1.0925,0.958,0.0,0.0,0.0,0.0,0.0,0.0,0.0,0.0,0.0,0.0,0.0,0.0,0.0,0.0,0.0,0.0,0.0,0.0,0.0,0.0,0.0,0.0,0.0,0.0,0.0,0.0,0.0,0.0,0.0,0.0,0.0,0.0,0.0,0.0,0.0,0.0,0.0,0.0,0.0,0.0,0.0,0.0,0.0,0.0,0.0,0.0,0.0,0.0,0.0,0.0,0.0,0.0,0.0,1.1221,1.2714,1.3361,1.3713,1.3852,1.339,1.2611,1.1493,1.0995,1.023,0.0,0.0,0.0,0.0,0.0,0.0,0.0,0.0,0.0,0.0,0.0,0.0,0.0,0.0,0.0,0.0,0.0,0.0,0.0,0.0,0.0,0.0,0.0,0.0,0.0,0.0,0.0,0.0,0.7483,0.7422,0.7006,0.0,0.0,0.0,0.0,0.0,0.0,0.0,0.0,0.0,0.0,0.9771,0.9937,1.0376,0.0,0.0,1.1059,1.081,1.1367,1.1209,1.0776,0.9951,0.967,0.0,0.0,0.0,0.0,0.0,0.0,0.0,0.0,0.0,0.0,0.0,0.0,0.0,0.0,0.0,0.0,0.0,0.0,0.0,0.0,0.0,0.0,0.0,0.0,0.0,0.0,0.0,0.0,0.0,0.0,0.0,0.0,0.0,0.0,0.0,0.0,0.0,0.0,0.0,0.0,0.0,0.0,0.0,0.0,0.0,0.0,0.0,0.0,0.0,0.0,0.0,0.0,1.046,1.1886,1.228,1.2618,1.2712,1.2439,1.1866,1.1,1.048,0.981,0.0,0.0,0.0,0.0,0.0,0.0,0.0,0.0,0.0,0.0,0.0,0.0,0.0,0.0,0.0,0.0,0.0,0.0,0.0,0.0,0.0,0.0,0.0,0.0,0.0,0.0,0.0,0.0,0.7468,0.7132,0.6264,0.0,0.0,0.0,0.0,0.0,0.0,0.0,0.0,0.0,0.0,0.9096,0.9605,0.9931,1.0292,1.093,1.0421,1.0145,1.0626,1.044,1.0075,0.9497,0.0,0.0,0.0,0.0,0.0,0.0,0.0,0.0,0.0,0.0,0.0,0.0,0.0,0.0,0.0,0.0,0.0,0.0,0.0,0.0,0.0,0.0,0.0,0.0,0.0,0.0,0.0,0.0,0.0,0.0,0.0,0.0,0.0,0.0,0.0,0.0,0.0,0.0,0.0,0.0,0.0,0.0,0.0,0.0,0.0,0.0,0.0,0.0,0.0,0.0,0.0,0.0,0.0,0.9609,1.0516,1.1186,1.157,1.1761,1.1706,1.1359,1.0521,1.0075,0.9303,0.8244,0.0,0.0,0.0,0.0,0.0,0.0,0.0,0.0,0.0,0.0,0.0,0.0,0.0,0.0,0.0,0.0,0.0,0.0,0.0,0.0,0.0,0.0,0.0,0.0,0.0,0.0,0.7532,0.7086,0.6574,0.0,0.0,0.0,0.0,0.0,0.0,0.0,0.0,0.0,0.0,0.8135,0.8479,0.9099,0.9096,0.9206,0.9202,0.905,0.8836,0.8659,0.8725,0.8541,0.0,0.0,0.0,0.0,0.0,0.0,0.0,0.0,0.0,0.0,0.0,0.0,0.0,0.0,0.0,0.0,0.0,0.0,0.0,0.0,0.0,0.0,0.0,0.0,0.0,0.0,0.0,0.0,0.0,0.0,0.0,0.0,0.0,0.0,0.0,0.0,0.0,0.0,0.0,0.0,1.4461,1.4823,0.0,0.0,0.0,0.0,0.0,0.0,0.0,0.0,0.0,0.0,0.0,0.0,0.9624,1.0181,1.0924,1.1253,1.1099,1.1117,1.0771,1.0096,0.9785,0.9265,0.8376,0.0,0.0,0.0,0.0,0.0,0.0,0.0,0.0,0.0,0.0,0.0,0.0,0.0,0.0,0.0,0.0,0.0,0.0,0.0,0.0,0.0,0.0,0.0,0.0,0.0,0.6636,0.0,0.0,0.0,0.0,0.0,0.0,0.0,0.0,0.0,0.0,0.0,0.7626,0.8219,0.8605,0.8934,0.9226,0.9376,0.9449,0.0,0.0,0.0,0.0,0.0,0.0,0.0,0.0,0.0,0.0,0.0,0.0,0.0,0.0,0.9125,0.8277,0.7983,0.7957,0.8159,0.0,0.0,0.0,0.0,0.0,0.0,0.0,0.0,0.0,0.0,0.0,0.0,0.0,0.0,0.0,0.0,1.1873,0.0,0.0,0.0,0.0,0.0,0.0,0.0,0.0,1.5007,1.5539,1.5329,1.5668,1.5613,0.0,1.3823,1.25,0.0,0.0,0.0,0.0,0.0,0.0,0.0,0.0,0.9379,0.9974,1.049,1.073,1.0758,1.0696,1.0427,1.004,0.9511,0.9082,0.8748,0.8052,0.7591,0.0,0.0,0.0,0.0,0.0,0.0,0.0,0.0,0.0,0.0,0.0,0.0,0.0,0.0,0.0,0.0,0.0,0.0,0.0,0.0,0.0,0.0,0.0,0.6284,0.0,0.0,0.0,0.0,0.0,0.0,0.0,0.0,0.0,0.7233,0.7663,0.8219,0.869,0.9003,0.925,0.9425,0.0,0.0,0.0,0.0,0.0,0.0,0.0,0.8894,0.8555,0.8643,0.8665,0.8563,0.8946,0.9242,0.912,0.0,0.0,0.8398,0.813,0.8101,0.828,0.8219,0.8182,0.8353,0.839,0.8406,0.0,0.0,0.0,0.0,0.0,0.0,0.0,0.0,1.4002,1.4298,0.0,0.0,0.0,0.0,0.0,0.0,0.0,0.0,0.0,0.0,1.651,1.6657,1.5428,1.5653,1.5083,0.0,1.3653,1.3584,1.3413,1.082,0.0,0.0,0.0,0.0,0.0,0.0,0.8857,0.9887,0.9917,1.0169,1.06,1.0417,1.0304,1.0194,0.9087,0.8737,0.9203,0.8332,0.7638,0.7165,0.7338,0.0,0.0,0.0,0.0,0.0,0.0,0.0,0.0,0.0,0.0,0.0,0.0,0.0,0.0,0.0,0.0,0.0,0.0,0.0,0.0,0.6431,0.0,0.0,0.0,0.0,0.0,0.0,0.0,0.0,0.0,0.0,0.7638,0.8162,0.8723,0.9068,0.0,0.0,0.0,0.0,0.9636,0.9636,0.9494,0.9296,0.9103,0.9284,0.922,0.8777,0.0,0.0,0.9194,0.9417,0.9539,0.9206,0.9437,0.9644,0.962,0.9299,0.9141,0.9299,0.9068,0.893,0.908,0.9129,0.9173,1.6797,0.0,0.0,0.0,0.0,1.4366,1.5773,1.6668,1.6237,1.5974,1.586,1.5425,0.0,0.0,0.0,0.0,0.0,0.0,1.3991,1.5192,1.5374,1.5389,1.5285,1.5412,1.5333,1.4891,1.4352,1.4178,1.4216,1.2104,0.9977,0.804,0.0,0.0,0.0,0.0,0.9689,0.9708,1.0182,1.0498,1.0552,1.0573,1.0131,0.9493,0.8477,0.8024,0.8118,0.7693,0.7404,0.7216,0.6407,0.0,0.0,0.0,0.0,0.0,0.0,0.0,0.0,0.0,0.0,0.0,0.0,0.0,0.0,0.0,0.0,0.0,0.0,0.0,0.5676,0.5784,0.5897,0.0,0.0,0.0,0.0,0.0,0.0,0.0,0.0,0.0,0.8808,0.8995,0.9218,0.0,0.0,0.9567,0.962,0.973,0.9811,0.9811,0.0,0.0,0.0,0.9819,0.9662,0.9536,0.9638,0.9772,0.9872,0.9941,0.9973,0.9864,0.9941,1.001,0.9989,0.9721,0.9551,0.9681,0.9644,0.9644,0.9811,0.9855,0.9864,1.7288,1.552,1.5974,1.5267,1.3935,1.5444,1.7195,1.8774,1.7473,1.6826,1.6599,1.5992,1.5527,1.5217,1.3692,0.0,0.0,0.0,1.418,1.5168,1.5219,1.5088,1.4919,1.4983,1.4799,1.4345,1.3715,1.3541,1.3617,1.2289,1.0937,0.9553,0.0,0.0,0.8713,0.9583,1.0027,1.0008,1.0509,1.0651,1.0325,0.9819,0.9299,0.8769,0.7842,0.758,0.7937,0.746,0.7094,0.6929,0.6419,0.5762,0.0,0.0,0.0,0.0,0.0,0.0,0.0,0.0,0.0,0.0,0.0,0.5697,0.5452,0.0,0.0,0.0,0.5548,0.5567,0.5839,0.6103,0.0,0.0,0.0,0.0,0.0,0.0,0.0,0.8564,0.8982,0.9324,0.9535,0.9632,0.9717,0.9827,0.9839,0.9839,0.9839,0.0,0.9994,0.9994,1.0091,1.016,1.016,1.0067,1.0038,0.9935,0.9951,0.9955,1.016,1.016,1.016,1.016,1.016,1.016,1.016,0.9981,0.9864,0.9973,0.9994,1.0034,1.0144,1.016,1.018,1.7034,1.5948,1.6613,1.655,1.6157,1.6389,1.7767,1.9558,1.7711,1.6946,1.6986,1.6036,1.517,1.4402,1.3761,0.0,0.0,1.4303,1.4631,1.4844,1.5493,1.5292,1.4372,1.4266,1.3725,1.2819,1.2396,1.22,1.22,1.1973,1.1936,1.2097,1.0052,0.9257,0.9653,0.9825,1.0084,1.0486,1.0725,1.0429,0.9758,0.8602,0.7996,0.8166,0.7254,0.7143,0.8019,0.7388,0.6789,0.6386,0.685,0.6324,0.4643,0.0,0.0,0.0,0.0,0.0,0.0,0.0,0.0,0.0,0.0,0.0,0.0,0.0,0.0,0.0,0.5799,0.0,0.6712,0.7066,0.0,0.0,0.0,0.7914,0.8134,0.8589,0.8962,0.9161,0.0,0.0,0.0,0.0,1.0188,1.0201,1.018,1.016,1.016,1.0168,1.0184,1.0184,1.0197,1.0209,1.0237,1.0221,1.0225,1.0237,1.0201,1.0221,1.0225,1.0221,1.0209,1.0225,1.0209,1.0213,1.0205,1.0213,1.0205,1.0209,1.0193,1.0188,1.0225,1.0233,1.0286,1.6936,1.6657,1.6635,1.7313,1.8316,1.7324,1.6234,1.5301,1.6828,1.7047,1.6221,1.6048,1.5294,1.4164,1.4028,1.4112,1.4289,1.3707,1.4013,1.4926,1.4129,1.3622,1.3437,1.3245,1.3052,1.2775,1.2715,1.2592,1.2682,1.262,1.2549,1.2562,1.0474,0.9709,1.0103,0.9968,0.9868,0.9805,0.933,0.9018,0.8794,0.7682,0.708,0.7126,0.6274,0.5836,0.6094,0.6022,0.5923,0.5805,0.5698,0.5377,0.4823,0.4529,0.0,0.0,0.0,0.0,0.0,0.0,0.0,0.0,0.0,0.5811,0.5133,0.0,0.6075,0.0,0.6818,0.7155,0.7285,0.75,0.0,0.0,0.8426,0.8658,0.9356,0.9437,0.9555,0.9876,1.0018,1.0152,1.0286,1.0343,1.042,1.0538,1.0331,1.016,1.0164,1.0286,1.0367,1.0379,1.0473,1.0566,1.0554,1.0566,1.0558,1.0566,1.0562,1.0566,1.0566,1.0566,1.0566,1.0566,1.0566,1.0566,1.0562,1.0566,1.0566,1.0558,1.0465,1.0412,1.0538,1.0562,1.0582,1.5684,1.521,1.493,1.5409,1.6387,1.6672,1.5438,1.338,1.493,1.5543,1.5545,1.5084,1.454,1.3857,1.3851,1.383,1.3862,1.3305,1.3391,1.3998,1.3238,1.2953,1.2953,1.2861,1.2759,1.2759,1.2759,1.2457,1.195,1.2464,1.2208,1.0904,1.0014,0.9657,0.9789,0.9557,0.962,0.9962,0.8645,0.7908,0.7837,0.6823,0.626,0.6274,0.5759,0.5505,0.5597,0.5612,0.5678,0.5684,0.546,0.527,0.5121,0.4813,0.4519,0.0,0.0,0.0,0.0,0.0,0.0,0.0,0.0,0.0,0.0,0.0,0.6777,0.0,0.0,0.0,0.8065,0.8316,0.8694,0.9238,0.921,0.938,0.9949,0.9925,0.9973,1.0249,1.0282,1.0351,1.0521,1.0546,1.0582,1.0676,1.0526,1.04,1.0404,1.0489,1.055,1.0554,1.0631,1.0692,1.0692,1.0692,1.0692,1.0692,1.0692,1.0692,1.0692,1.0692,1.0692,1.0692,1.0692,1.0724,1.0798,1.0883,1.0948,1.1029,1.1045,1.098,1.0846,1.0818,1.0846,1.41,1.305,1.2759,1.2667,1.2969,1.5076,1.4783,1.2773,1.2775,1.3494,1.4663,1.3817,1.3448,1.3443,1.3443,1.3249,1.305,1.305,1.2953,1.2764,1.2759,1.2759,1.2565,1.2565,1.2565,1.237,1.2365,1.1765,1.0765,1.181,1.1105,0.8682,0.8996,0.9225,0.9268,0.8831,0.9023,0.9912,0.8088,0.705,0.6933,0.599,0.5604,0.565,0.5575,0.558,0.5739,0.5689,0.5705,0.5708,0.5674,0.5555,0.5423,0.527,0.5125,0.0,0.4996,0.0,0.0,0.0,0.0,0.0,0.0,0.0,0.0,0.7382,0.7577,0.7845,0.8227,0.8593,0.8893,0.9226,0.9555,0.9876,0.992,0.9994,1.0168,1.0197,1.0266,1.0448,1.0469,1.053,1.0664,1.0708,1.0729,1.0741,1.0765,1.0761,1.0753,1.0712,1.068,1.0692,1.0692,1.0692,1.0692,1.0692,1.07,1.0724,1.0741,1.0737,1.0777,1.0802,1.081,1.0818,1.0863,1.0915,1.1049,1.12,1.1338,1.148,1.161,1.1569,1.1216,1.1106,1.1175,1.3534,1.2953,1.196,1.1991,1.2834,1.3291,1.3241,1.2818,1.2748,1.2953,1.3238,1.305,1.2958,1.2958,1.2958,1.2958,1.2861,1.2861,1.2861,1.2759,1.2759,1.236,1.1565,1.1468,1.1077,1.0199,1.0194,1.0408,1.0726,1.0417,0.96,0.8481,0.7489,0.7882,0.0,0.0,0.0,0.0,0.6529,0.6318,0.629,0.5899,0.564,0.5515,0.537,0.0,0.5105,0.5355,0.5493,0.5427,0.5641,0.0,0.0,0.0,0.0,0.0,0.0,0.0,0.0,0.0,0.0,0.0,0.7119,0.7332,0.7468,0.8235,0.8653,0.8455,0.8995,0.9401,0.947,0.9661,0.9872,1.0079,1.0111,1.018,1.0359,1.0379,1.0452,1.0619,1.0643,1.0655,1.0696,1.0818,1.0915,1.0923,1.1033,1.1114,1.111,1.0879,1.0704,1.0692,1.0716,1.07,1.0692,1.0704,1.0777,1.0867,1.0919,1.0968,1.1082,1.1232,1.1334,1.1321,1.1468,1.1549,1.1602,1.165,1.1663,1.1719,1.1756,1.1744,1.1646,1.1622,1.1646,1.1634,0.0,1.1151,1.1016,0.0,0.0,1.1654,0.9887,1.0852,1.1184,1.1184,1.1184,1.1184,1.1184,1.1184,1.1184,1.1184,1.1184,1.1184,1.1179,1.1184,1.0984,1.0386,1.0391,1.0096,0.9608,0.9608,0.9517,0.943,0.9537,0.8928,0.7412,0.6716,0.6915,0.7922,0.693,0.635,0.6179,0.6176,0.6146,0.6086,0.5969,0.5822,0.5646,0.0,0.0,0.0,0.0,0.0,0.0,0.0,0.0,0.0,0.0,0.0,0.602,0.6166,0.6217,0.6156,0.6568,0.6958,0.7353,0.7959,0.83,0.83,0.8865,0.919,0.9112,0.9502,0.9754,0.9762,0.9916,1.0099,1.027,1.0294,1.0367,1.0526,1.0562,1.0599,1.068,1.0773,1.083,1.0826,1.098,1.109,1.1098,1.1167,1.1228,1.1212,1.1074,1.0956,1.0952,1.0952,1.0952,1.0956,1.0956,1.0972,1.1074,1.1094,1.1126,1.1208,1.1301,1.1362,1.137,1.1443,1.1524,1.163,1.1707,1.1801,1.189,1.1975,1.2032,1.2032,1.1967,1.1959,0.9983,0.9827,1.0255,1.0129,0.9823,1.1145,0.9843,0.7027,0.0,0.0,0.0,0.9701,0.9681,0.9657,0.9652,0.9743,0.9813,0.9608,0.9505,0.9402,0.9505,0.9509,0.9308,0.9308,0.9213,0.9011,0.9011,0.8619,0.7822,0.8649,0.8148,0.6537,0.6437,0.6437,0.6437,0.6437,0.6391,0.6304,0.6298,0.6249,0.6151,0.6127,0.6015,0.5801,0.5754,0.5709,0.5635,0.5764,0.5802,0.5827,0.597,0.614,0.6366,0.6376,0.6498,0.6759,0.6922,0.7004,0.7014,0.7282,0.755,0.7852,0.857,0.9056,0.9107,0.9324,0.9474,0.9657,0.9803,0.9912,0.9973,1.0115,1.0282,1.0461,1.0481,1.0538,1.0668,1.0692,1.07,1.0749,1.0875,1.0984,1.1013,1.1167,1.1269,1.1277,1.1317,1.1317,1.1309,1.1256,1.1187,1.1187,1.1171,1.1204,1.1216,1.1204,1.1236,1.1261,1.1273,1.1281,1.1317,1.1346,1.1366,1.1427,1.1386,1.1512,1.1634,1.1801,1.1914,1.2048,1.2199,1.2304,1.2292,1.2182,1.2166,1.0174,0.9892,0.9287,0.9429,0.9778,0.8069,0.7217,0.7317,0.915,0.9955,0.9955,0.9955,0.9875,0.9738,0.9742,1.0071,1.0538,0.9916,0.9296,0.0,0.93,0.9114,0.8219,0.8219,0.7723,0.6933,0.683,0.6734,0.6634,0.6839,0.6637,0.6437,0.6437,0.6437,0.6437,0.6437,0.6429,0.6415,0.6412,0.6407,0.6385,0.6293,0.6179,0.604,0.5841,0.5619,0.5466,0.561,0.5703,0.5577,0.5981,0.6347,0.6561,0.6746,0.6909,0.7071,0.7224,0.7309,0.7312,0.7584,0.7901,0.8224,0.8671,0.8882,0.9166,0.9477,0.9661,0.9827,0.9876,1.0018,1.0306,1.0375,1.0461,1.0619,1.0651,1.0672,1.07,1.0704,1.0761,1.0911,1.0952,1.1041,1.1179,1.1346,1.1459,1.1484,1.1557,1.1679,1.1618,1.1423,1.1244,1.122,1.122,1.122,1.1261,1.1224,1.1309,1.1439,1.1459,1.1504,1.163,1.1748,1.1821,1.189,1.1947,1.2069,1.2134,1.2211,1.2186,1.2207,1.2239,1.2272,1.2264,1.2235,1.2255,0.8411,0.8378,0.7861,0.8015,0.8415,0.6994,0.6668,0.7219,0.7855,0.8191,0.8266,0.8262,0.8226,0.817,0.817,0.8343,0.8484,0.8086,0.7778,0.7524,0.7792,0.7669,0.7229,0.7166,0.683,0.6437,0.6437,0.6437,0.6437,0.6437,0.6437,0.6437,0.6437,0.6437,0.6437,0.6437,0.6437,0.6437,0.6437,0.6437,0.6434,0.6385,0.6304,0.6189,0.6075,0.5942,0.5765,0.5936,0.6054,0.6103,0.6508,0.6747,0.6982,0.7078,0.7234,0.738,0.7526,0.7611,0.7607,0.7811,0.7963,0.8226,0.8531,0.8866,0.9164,0.9566,0.9799,0.9888,1.0059,1.0249,1.042,1.0517,1.0607,1.0684,1.0692,1.0733,1.0822,1.0842,1.0915,1.1082,1.12,1.1285,1.1362,1.1537,1.165,1.1658,1.1732,1.1776,1.1776,1.1638,1.152,1.152,1.1524,1.1524,1.152,1.152,1.1561,1.1642,1.165,1.1687,1.1768,1.1853,1.1886,1.1894,1.1971,1.2012,1.2024,1.202,1.202,1.2016,1.202,1.202,1.202,1.202,1.2085,0.6942,0.7029,0.692,0.6974,0.7051,0.5813,0.559,0.5929,0.604,0.6172,0.6355,0.6773,0.6869,0.6844,0.6842,0.6828,0.6685,0.6703,0.6711,0.6669,0.6605,0.657,0.6646,0.6562,0.6505,0.648,0.6478,0.6464,0.6439,0.6437,0.6437,0.6437,0.6437,0.6437,0.6437,0.6437,0.6437,0.6437,0.6437,0.6437,0.6442,0.6439,0.6393,0.632,0.6282,0.6227,0.6135,0.6002,0.6037,0.6135,0.6221,0.6418,0.6629,0.6725,0.6879,0.6917,0.7018,0.7076,0.718,0.747,0.765,0.7782,0.8482,0.8952,0.9214,0.9682,1.001,1.0038,1.0266,1.044,1.0505,1.0607,1.0692,1.0692,1.0733,1.0814,1.0944,1.1001,1.1094,1.1265,1.1411,1.1504,1.1577,1.1687,1.176,1.1764,1.1776,1.1776,1.1776,1.1776,1.1776,1.1776,1.1776,1.1756,1.1776,1.176,1.176,1.1776,1.1768,1.1764,1.1776,1.1776,1.1776,1.1788,1.1784,1.1809,1.1788,1.1788,1.1801,1.1813,1.1821,1.1801,1.1809,1.1809,1.1857,0.7149,0.7165,0.7054,0.7182,0.6621,0.3579,0.2346,0.2571,0.3804,0.4693,0.5224,0.6564,0.7059,0.6975,0.697,0.6915,0.6926,0.6793,0.6796,0.6915,0.6782,0.6774,0.6785,0.6768,0.6709,0.6613,0.6603,0.6551,0.6461,0.6445,0.6439,0.6437,0.6437,0.6439,0.6437,0.6439,0.6437,0.6437,0.6437,0.6442,0.6358,0.6445,0.6437,0.6448,0.6238,0.6179,0.6066,0.5288,0.4759,0.4748,0.4462,0.4399,0.4558,0.4766,0.4903,0.5085,0.5105,0.5112,0.5211,0.6027,0.6782,0.7184,0.833,0.9229,0.9707,1.0071,1.0383,1.0383,1.0416,1.0509,1.0643,1.0684,1.0696,1.0724,1.0842,1.0952,1.1001,1.111,1.1269,1.1451,1.1504,1.1561,1.1703,1.176,1.1772,1.1776,1.1776,1.1776,1.1776,1.1776,1.1776,1.1776,1.1776,1.1776,1.1776,1.1776,1.1776,1.1776,1.1776,1.1776,1.1776,1.1776,1.1776,1.1776,1.1776,1.1776,1.1776,1.1776,1.1776,1.1776,1.1776,1.1776,1.1776,1.1667,1.172,0.5942,0.425,0.6286,0.5044,0.19,0.0223,-0.0335,-0.0112,0.2012,0.3579,0.4475,0.5146,0.6019,0.7103,0.7092,0.7062,0.7024,0.6948,0.695,0.71,0.6869,0.6839,0.6899,0.6834,0.6774,0.673,0.6725,0.6706,0.6551,0.6487,0.642,0.6366,0.6456,0.6456,0.6358,0.6361,0.6361,0.6361,0.6361,0.6366,0.6374,0.6361,0.6361,0.6364,0.6323,0.5691,0.4482,0.3755,0.3543,0.3738,0.4035,0.4343,0.4571,0.4672,0.4787,0.482,0.4824,0.4824,0.4824,0.5588,0.6355,0.7012,0.8123,0.8978,0.9871,1.0178,1.0473,1.057,1.059,1.0623,1.0684,1.0692,1.0733,1.0834,1.0928,1.1045,1.1265,1.1342,1.1455,1.163,1.1663,1.1683,1.1756,1.1776,1.1776,1.1776,1.1776,1.1776,1.1776,1.1776,1.1776,1.1776,1.1776,1.1776,1.1776,1.1776,1.1776,1.1776,1.1776,1.1776,1.1776,1.1776,1.1776,1.1776,1.1776,1.1776,1.1776,1.1776,1.1776,1.1772,1.1776,1.1651,1.1039,1.0997,1.0804,0.5723,0.3695,0.4484,0.2238,-0.1677,-0.179,-0.179,-0.1566,0.0335,0.2014,0.3358,0.3918,0.527,0.6959,0.6492,0.6495,0.7171,0.7086,0.7086,0.7141,0.6986,0.6956,0.7024,0.6956,0.6891,0.6861,0.6858,0.6847,0.6494,0.5779,0.5796,0.623,0.58,0.548,0.556,0.556,0.556,0.5459,0.556,0.5768,0.6284,0.6377,0.5861,0.4847,0.5766,0.5663,0.4138,0.2822,0.2318,0.2717,0.3324,0.3726,0.3924,0.3924,0.3924,0.3924,0.3924,0.3934,0.3952,0.4828,0.5712,0.649,0.7425,0.8495,0.9262,0.985,1.0229,1.0335,1.0622,1.0769,1.0769,1.0769,1.0846,1.1009,1.1074,1.1232,1.1451,1.1533,1.1626,1.1752,1.1756,1.1776,1.1776,1.1776,1.1776,1.1776,1.1776,1.1776,1.1776,1.1776,1.1776,1.1776,1.1776,1.1776,1.1776,1.1776,1.1776,1.1651,1.1651,1.1285,1.1409,1.1409,1.1039,1.0671,1.1042,1.1042,1.0671,1.0793,1.1039,1.1039,1.0925,1.0826,1.0134,0.9978,0.9673,0.7097,0.5958,0.0896,-0.1346,-0.1795,-0.1795,-0.1795,-0.1794,-0.157,-0.0448,0.1456,0.3138,0.5278,0.698,0.4931,0.5043,0.6852,0.6956,0.6951,0.6964,0.7057,0.7168,0.7173,0.7173,0.6998,0.6666,0.6668,0.6727,0.6303,0.4357,0.4421,0.6029,0.4558,0.3488,0.3344,0.3335,0.3327,0.3334,0.333,0.4342,0.6181,0.639,0.4551,0.1512,0.4144,0.5977,0.5571,0.2727,0.1212,0.1617,0.1817,0.1818,0.1818,0.1818,0.1919,0.1818,0.1819,0.1833,0.2169,0.3526,0.4622,0.5179,0.6624,0.7666,0.8204,0.8996,0.9457,0.9478,1.0397,1.0823,1.0976,1.0964,1.1029,1.1196,1.1362,1.1455,1.15,1.1654,1.1748,1.1772,1.1776,1.1776,1.1776,1.1776,1.1776,1.1776,1.1776,1.1776,1.1776,1.1776,1.1776,1.1776,1.1776,1.1772,1.1776,1.153,1.1651,1.1285,1.0671,1.0304,1.0308,1.0304,0.9815,0.9569,1.0058,0.9937,0.9204,0.9083,0.9201,0.9332,0.9477,0.9261,0.9091,0.9019,0.8857,0.2579,0.2355,-0.0561,-0.1795,-0.1795,-0.1795,-0.1795,-0.1795,-0.1795,-0.1458,-0.0672,0.0112,0.2917,0.7102,0.4716,0.325,0.2799,0.4143,0.4931,0.4931,0.4931,0.4929,0.5041,0.6398,0.627,0.4998,0.4882,0.5621,0.6416,0.3027,0.1501,0.2647,0.4437,0.4,0.1671,0.1136,0.1129,0.1129,0.1117,0.2827,0.5989,0.6398,0.4659,0.1313,0.1817,0.2324,0.2324,0.1313,0.101,0.1617,0.1617,0.1617,0.1617,0.1617,0.1617,0.1618,0.1635,0.1856,0.2286,0.3178,0.4303,0.5439,0.6391,0.721,0.791,0.8364,0.8732,0.9384,0.9782,1.0357,1.1121,1.1204,1.1204,1.137,1.1459,1.1553,1.1654,1.1736,1.1776,1.1776,1.1776,1.1776,1.1776,1.1776,1.1776,1.1776,1.1776,1.178,1.1776,1.1776,1.1784,1.1655,1.1285,1.0796,1.0793,1.0793,1.0671,1.0058,0.9447,0.9326,0.9326,0.9326,0.8958,0.8714,0.9083,0.9083,0.8474,0.8497,0.8491,0.85,0.8518,0.8242,0.8157,0.8265,0.8114,-0.0791,-0.0451,-0.1011,-0.1234,-0.1234,-0.1234,-0.1458,-0.1795,-0.1795,-0.1795,-0.1683,-0.1458,0.1121,0.4158,0.3143,0.157,0.0224,0.1791,0.2463,0.2463,0.2462,0.2462,0.291,0.5725,0.6405,0.4707,0.3023,0.334,0.4421,0.1652,-0.0,-0.0,0.3014,0.3005,0.0426,0.0316,0.0524,0.0522,0.0412,0.1836,0.4291,0.4573,0.3644,0.1617,0.0808,0.0404,0.0303,0.0808,0.1212,0.1516,0.1617,0.1617,0.1617,0.1626,0.1733,0.1939,0.197,0.2206,0.2853,0.3451,0.4266,0.5275,0.5886,0.6601,0.7149,0.7402,0.803,0.8565,0.9485,1.0203,1.0821,1.12,1.1455,1.1565,1.1589,1.1638,1.1756,1.1772,1.1776,1.1776,1.1776,1.1776,1.1776,1.1776,1.1776,1.1776,1.1776,1.1792,1.1845,1.1861,1.1764,1.1436,1.0968,1.0112,0.9627,0.9271,0.9648,0.913,0.8506,0.8375,0.8381,0.8372,0.8247,0.8116,0.7989,0.8108,0.8,0.7902,0.7918,0.8052,0.777,0.7367,0.7434,0.7649,0.7594,-0.2638,-0.126,-0.0338,-0.0337,-0.0225,-0.0561,-0.1009,-0.2131,-0.1907,-0.1906,-0.1906,-0.0673,-0.0,-0.0,-0.0,-0.0,-0.0,-0.0,-0.0,-0.0,-0.0,-0.0,-0.0,0.4494,0.6305,0.5846,0.213,-0.0,-0.0,0.0335,-0.0,-0.0,-0.0,0.0653,0.0107,0.1069,0.1708,0.1595,0.1049,0.0935,0.0829,0.133,0.1321,0.1014,0.1319,0.1218,0.0811,0.1315,0.1516,0.1617,0.1617,0.1617,0.1624,0.1746,0.1971,0.2392,0.2532,0.2898,0.348,0.404,0.4409,0.4786,0.515,0.5607,0.5853,0.6358,0.687,0.7391,0.87,0.994,1.0328,1.1152,1.1723,1.1768,1.1864,1.1872,1.1889,1.1897,1.1897,1.1897,1.2018,1.1897,1.1897,1.1897,1.1901,1.1805,1.1813,1.1874,1.2,1.1913,1.1604,1.0944,1.0307,0.939,0.8427,0.7694,0.819,0.8324,0.7819,0.7444,0.7464,0.7467,0.7234,0.7108,0.7232,0.7232,0.6996,0.6895,0.6793,0.6692,0.6521,0.6837,0.7027,0.7353,0.7675,-0.6078,-0.5244,-0.3785,-0.1821,-0.0454,-0.2588,-0.4372,-0.5164,-0.3585,-0.2799,-0.2575,-0.0896,-0.0,-0.0,-0.0,-0.0,-0.0,-0.0,-0.0,-0.0,-0.0,-0.0,-0.0,0.157,0.2244,0.2018,0.0785,-0.0,-0.0,0.0785,0.0894,-0.0,-0.0,-0.0,0.1103,0.164,0.1847,0.1733,0.1601,0.1482,0.1375,0.1368,0.1363,0.1467,0.1572,0.1572,0.1465,0.1536,0.1618,0.1618,0.1617,0.1626,0.1748,0.2069,0.24,0.2643,0.3007,0.3473,0.4041,0.4306,0.4675,0.5037,0.527,0.5412,0.5457,0.572,0.6369,0.7181,0.8121,0.9023,1.0808,1.1599,1.1881,1.2367,1.2483,1.2608,1.2969,1.3089,1.3089,1.3093,1.3093,1.2973,1.2608,1.2371,1.231,1.2049,1.1947,1.202,1.2041,1.1454,1.108,1.076,0.9748,0.8637,0.7894,0.7138,0.7205,0.7494,0.7084,0.6791,0.68,0.6681,0.6441,0.6319,0.6573,0.6452,0.6212,0.611,0.6133,0.6293,0.661,0.6792,0.6972,0.7287,0.774,-0.7603,-0.711,-0.6299,-0.4281,-0.2079,-0.4925,-0.6633,-0.7095,-0.548,-0.479,-0.4678,-0.3535,-0.2291,-0.1614,-0.1489,-0.0915,-0.0,-0.0,-0.0,-0.0,-0.0,-0.0,-0.0,0.0561,0.0673,0.0561,0.0224,-0.0,-0.0,0.1121,0.1458,0.0785,0.0448,0.0672,0.1457,0.1667,0.1767,0.1762,0.1846,0.1831,0.1721,0.1712,0.1705,0.1704,0.1704,0.1704,0.1701,0.1667,0.165,0.165,0.1856,0.1971,0.2097,0.2636,0.3083,0.3334,0.3711,0.4191,0.4636,0.4788,0.4931,0.527,0.5382,0.5533,0.5608,0.5762,0.6331,0.7174,0.7853,0.863,1.0155,1.0906,1.1511,1.259,1.296,1.3204,1.3688,1.3688,1.3688,1.3569,1.3688,1.3449,1.3209,1.317,1.2986,1.2504,1.2089,1.1815,1.1699,1.0856,1.0358,0.9748,0.8897,0.8,0.7334,0.6814,0.6423,0.6509,0.6466,0.6417,0.6392,0.639,0.6268,0.6264,0.6392,0.6385,0.6143,0.62,0.6237,0.6404,0.6566,0.6881,0.7192,0.7607,0.8046,-0.7347,-0.6966,-0.7819,-0.6825,-0.5055,-0.6701,-0.7516,-0.7769,-0.741,-0.7163,-0.7285,-0.6917,-0.5992,-0.4347,-0.4097,-0.3025,-0.0,-0.0,-0.0,-0.0,-0.0,-0.0,-0.0,0.1121,0.1458,0.1458,0.0673,-0.0,0.0112,0.1234,0.1795,0.157,0.1121,0.0897,0.1233,0.1569,0.1791,0.1786,0.1765,0.1752,0.175,0.1728,0.1714,0.1715,0.1716,0.1716,0.1717,0.1819,0.1813,0.1811,0.2227,0.2548,0.2779,0.325,0.3811,0.4262,0.4441,0.4803,0.5264,0.5373,0.538,0.5493,0.551,0.5652,0.5981,0.6194,0.6405,0.6995,0.768,0.8343,0.8839,0.9451,1.0781,1.2462,1.3435,1.3928,1.3808,1.3928,1.4047,1.3933,1.3808,1.3822,1.3846,1.3999,1.3609,1.2986,1.2357,1.1865,1.0966,1.012,0.9121,0.8492,0.7974,0.7445,0.6894,0.6764,0.6368,0.6349,0.6317,0.6284,0.6247,0.6243,0.6245,0.6237,0.6219,0.6208,0.6227,0.6292,0.6325,0.6473,0.6647,0.7105,0.7524,0.7922,0.8189,-0.7704,-0.7688,-0.7823,-0.7779,-0.7646,-0.7688,-0.7646,-0.7883,-0.7649,-0.7543,-0.7529,-0.7535,-0.7236,-0.6689,-0.6749,-0.6382,-0.5077,-0.2668,-0.1376,-0.1139,0.0113,0.0898,0.1121,0.1121,0.1458,0.1683,0.1346,0.0897,0.0112,0.1234,0.1795,0.1795,0.1683,0.157,0.157,0.1683,0.1795,0.1795,0.1789,0.1782,0.178,0.1774,0.1772,0.1772,0.1769,0.1769,0.1881,0.2214,0.2404,0.2348,0.2451,0.2788,0.3254,0.3817,0.4284,0.4552,0.4912,0.5156,0.5382,0.5603,0.5712,0.5719,0.5886,0.6201,0.6415,0.6521,0.6863,0.7198,0.762,0.8113,0.9079,0.9566,1.0891,1.3062,1.4033,1.4878,1.5007,1.5126,1.5121,1.5126,1.5002,1.483,1.46,1.446,1.3995,1.2965,1.2327,1.1763,1.0575,0.9441,0.8405,0.8018,0.7498,0.6976,0.6577,0.6579,0.6441,0.6433,0.6417,0.6404,0.6384,0.638,0.6386,0.6388,0.6351,0.6333,0.6364,0.6411,0.6417,0.6398,0.6956,0.739,0.7658,0.7922,0.8323,-0.7994,-0.8113,-0.8046,-0.8389,-0.8751,-0.8184,-0.7881,-0.7732,-0.7649,-0.7635,-0.7616,-0.7655,-0.7714,-0.7769,-0.7837,-0.7937,-0.7454,-0.5046,-0.3353,-0.229,-0.1016,0.0337,0.1346,0.1458,0.1458,0.1795,0.1795,0.1458,0.1009,0.1458,0.1795,0.1795,0.1795,0.1795,0.1795,0.1795,0.1795,0.1795,0.1795,0.1795,0.1795,0.1795,0.2019,0.2132,0.2132,0.2244,0.2578,0.2915,0.3108,0.3062,0.3269,0.3609,0.3859,0.4527,0.488,0.4929,0.527,0.538,0.5603,0.5712,0.5841,0.5992,0.628,0.6611,0.685,0.6948,0.7143,0.7482,0.7625,0.8111,0.8836,0.9441,1.0528,1.1736,1.3181,1.4386,1.5359,1.5483,1.5601,1.5483,1.5126,1.472,1.4455,1.4175,1.3394,1.2347,1.1701,1.0864,0.9883,0.8845,0.8053,0.7653,0.725,0.6851,0.6587,0.6587,0.6453,0.6453,0.6453,0.6453,0.6453,0.6453,0.6449,0.6443,0.6449,0.6453,0.6453,0.6587,0.6579,0.6838,0.7257,0.7526,0.7791,0.8056,0.8454,-0.8119,-0.8369,-0.8369,-0.8494,-0.8738,-0.8488,-0.8043,-0.7627,-0.7807,-0.7801,-0.775,-0.7823,-0.7845,-0.7872,-0.7712,-0.7694,-0.7613,-0.6182,-0.4786,-0.3337,-0.2041,-0.0675,0.1121,0.1346,0.1458,0.157,0.1683,0.1795,0.1683,0.1795,0.1795,0.1795,0.1795,0.1795,0.1795,0.1795,0.1795,0.1795,0.1795,0.1907,0.2019,0.2019,0.2244,0.2692,0.2805,0.3029,0.3474,0.3698,0.3691,0.381,0.4258,0.447,0.4587,0.5152,0.5377,0.5377,0.5491,0.5601,0.5828,0.5951,0.61,0.6398,0.6555,0.6759,0.7164,0.7352,0.7533,0.7864,0.7872,0.7991,0.8113,0.8961,0.9684,1.0286,1.1129,1.2577,1.451,1.5235,1.5235,1.5126,1.4157,1.3676,1.3364,1.2936,1.2115,1.1686,1.1009,1.0392,0.9504,0.8451,0.7789,0.7388,0.7118,0.6851,0.6719,0.6589,0.6453,0.6453,0.6453,0.6453,0.6453,0.6453,0.6453,0.6453,0.6453,0.6453,0.6453,0.6587,0.6721,0.6855,0.7257,0.7658,0.7925,0.8323,0.8587,-0.7994,-0.7994,-0.7994,-0.7997,-0.8119,-0.7994,-0.798,-0.7831,-0.7856,-0.785,-0.7839,-0.7861,-0.7877,-0.788,-0.7383,-0.6999,-0.6722,-0.5662,-0.4254,-0.276,-0.2406,-0.1587,-0.0338,0.0225,0.0673,0.0785,0.1458,0.1795,0.1795,0.1795,0.1795,0.1795,0.1795,0.1795,0.1795,0.1907,0.1795,0.1795,0.1795,0.2132,0.2468,0.258,0.2805,0.3365,0.3477,0.3698,0.4145,0.4257,0.4592,0.4819,0.4706,0.4817,0.5044,0.527,0.5491,0.5712,0.5712,0.5824,0.6175,0.6454,0.6744,0.6782,0.7153,0.7525,0.7565,0.7664,0.7834,0.7872,0.7872,0.7872,0.7994,0.8113,0.8717,0.9441,1.0044,1.0767,1.2093,1.2577,1.2817,1.2599,1.2465,1.2381,1.2557,1.2345,1.1751,1.1009,1.0406,0.9772,0.9117,0.8189,0.7789,0.7524,0.7123,0.6987,0.6851,0.6587,0.6453,0.6453,0.6453,0.6453,0.6453,0.6453,0.6453,0.6453,0.6453,0.6453,0.6453,0.6453,0.6587,0.6989,0.7257,0.7658,0.8058,0.8456,0.8587,-0.9207,-0.9211,-0.8723,-0.8355,-0.7983,-0.7867,-0.7961,-0.7933,-0.785,-0.7839,-0.7812,-0.7596,-0.763,-0.776,-0.6893,-0.6027,-0.5395,-0.4972,-0.4166,-0.3268,-0.3021,-0.2776,-0.2186,-0.1374,-0.0684,-0.0225,0.0224,0.0897,0.157,0.1795,0.1795,0.1795,0.1795,0.1795,0.1907,0.2019,0.2244,0.2356,0.2579,0.2805,0.3029,0.3141,0.3477,0.4035,0.4258,0.4594,0.4931,0.4931,0.5044,0.5268,0.5266,0.5154,0.5377,0.5491,0.5712,0.5822,0.5935,0.6158,0.6519,0.6706,0.6906,0.7193,0.7482,0.7706,0.7769,0.7842,0.7864,0.7872,0.7872,0.7872,0.7872,0.7872,0.8355,0.8596,0.8958,0.9198,0.9923,1.0891,1.1732,1.1526,1.1397,1.1196,1.1244,1.1151,1.0658,0.9729,0.9624,0.9117,0.9117,0.8323,0.8189,0.7791,0.7524,0.7257,0.6985,0.6719,0.6587,0.6453,0.6453,0.6453,0.6453,0.6453,0.6453,0.6453,0.6453,0.6453,0.6453,0.6455,0.6723,0.7125,0.7526,0.7791,0.8056,0.8454,0.8587,-1.0793,-1.0668,-0.9822,-0.8955,-0.8085,-0.8224,-0.8184,-0.7878,-0.795,-0.7826,-0.7517,-0.6977,-0.7016,-0.7143,-0.6278,-0.5042,-0.441,-0.4366,-0.406,-0.3671,-0.3664,-0.3532,-0.3289,-0.2814,-0.2094,-0.1358,-0.079,-0.0,0.0898,0.1346,0.1121,0.1458,0.1458,0.157,0.1795,0.2244,0.258,0.2805,0.3251,0.3587,0.3698,0.3698,0.4035,0.4594,0.4931,0.5268,0.538,0.538,0.5493,0.5605,0.5714,0.5714,0.5712,0.5712,0.5933,0.5933,0.627,0.651,0.6776,0.6974,0.7198,0.7538,0.766,0.7763,0.7845,0.7864,0.7869,0.7872,0.7872,0.7872,0.7872,0.7872,0.7872,0.7991,0.7991,0.7872,0.8236,0.9926,1.0649,1.0793,1.0183,0.984,0.9608,0.9494,0.8978,0.8557,0.8576,0.8587,0.8587,0.8587,0.8323,0.8058,0.7658,0.7123,0.6853,0.6719,0.6587,0.6587,0.6587,0.6587,0.6453,0.6453,0.6453,0.6453,0.6453,0.6453,0.6587,0.6585,0.6855,0.7393,0.766,0.7925,0.8323,0.8587,0.8587,-1.0793,-1.0789,-1.0668,-0.9546,-0.8303,-0.9552,-0.9431,-0.8071,-0.834,-0.7736,-0.7109,-0.639,-0.6278,-0.6037,-0.5419,-0.4559,-0.4053,-0.4137,-0.4101,-0.3845,-0.3843,-0.3828,-0.3681,-0.3586,-0.3206,-0.2689,-0.1846,-0.0798,-0.0563,-0.0448,-0.0112,0.0224,0.0336,0.0673,0.1458,0.2019,0.2355,0.2915,0.3362,0.381,0.4033,0.4369,0.4594,0.5156,0.5382,0.5491,0.5712,0.571,0.5824,0.6163,0.6163,0.6163,0.6165,0.6165,0.6279,0.6495,0.6616,0.6763,0.7061,0.7303,0.7426,0.7663,0.7766,0.7828,0.7864,0.7872,0.7872,0.7872,0.7872,0.7872,0.7872,0.7872,0.7872,0.7872,0.7872,0.7872,0.7994,0.8477,0.8958,0.9092,0.872,0.8597,0.86,0.8728,0.8588,0.8543,0.8579,0.8587,0.8587,0.8587,0.8587,0.8189,0.7925,0.7257,0.6719,0.6587,0.6453,0.6587,0.6587,0.6587,0.6587,0.6453,0.6453,0.6587,0.6587,0.6587,0.6585,0.6719,0.7121,0.7524,0.7791,0.8056,0.8323,0.8587,0.8587,-1.2238,-1.2238,-1.1756,-1.1261,-1.0891,-1.0778,-1.0925,-1.0694,-0.9822,-0.8717,-0.762,-0.6766,-0.6156,-0.5669,-0.4808,-0.4195,-0.3939,-0.3925,-0.3906,-0.3906,-0.3905,-0.3897,-0.3739,-0.3771,-0.3623,-0.3105,-0.2362,-0.1975,-0.205,-0.2161,-0.1471,-0.0673,-0.0673,-0.0336,0.0673,0.1234,0.1682,0.2353,0.3137,0.3696,0.4142,0.4592,0.5154,0.5489,0.5603,0.5826,0.6047,0.6047,0.6158,0.6272,0.6383,0.6495,0.6512,0.6654,0.6776,0.6743,0.6883,0.7045,0.7247,0.7494,0.7638,0.7695,0.7807,0.7864,0.7872,0.7872,0.7872,0.7872,0.7872,0.7872,0.7872,0.7872,0.7872,0.7872,0.7872,0.7872,0.7872,0.7872,0.7872,0.788,0.8099,0.834,0.8345,0.8337,0.8456,0.8527,0.8576,0.8587,0.8587,0.8587,0.8587,0.8323,0.8056,0.7524,0.6855,0.6721,0.6721,0.6721,0.6721,0.6721,0.6855,0.6855,0.6855,0.6853,0.6719,0.6853,0.6855,0.7121,0.7388,0.7655,0.7925,0.8189,0.8456,0.8587,0.8587,-1.3566,-1.3561,-1.2724,-1.287,-1.3374,-1.2021,-1.2183,-1.2991,-1.1242,-0.966,-0.8474,-0.7497,-0.6519,-0.5419,-0.4564,-0.395,-0.395,-0.3947,-0.3822,-0.3821,-0.382,-0.3824,-0.3701,-0.3574,-0.3307,-0.3032,-0.2902,-0.286,-0.279,-0.3006,-0.2293,-0.1484,-0.1588,-0.1242,-0.0,0.0565,0.0788,0.1457,0.2352,0.3245,0.3917,0.4706,0.5603,0.5824,0.5938,0.6163,0.6383,0.6383,0.6492,0.6614,0.6738,0.6865,0.6881,0.7193,0.7212,0.6927,0.7209,0.7369,0.7462,0.7565,0.7701,0.7755,0.7823,0.7861,0.7872,0.7872,0.7872,0.7872,0.7872,0.7872,0.7872,0.7872,0.7872,0.7872,0.7872,0.7872,0.7872,0.7872,0.7872,0.7907,0.7978,0.8079,0.8201,0.8285,0.8391,0.8535,0.8587,0.8587,0.8587,0.8587,0.8587,0.832,0.8056,0.7655,0.7257,0.6989,0.6989,0.7123,0.7123,0.7123,0.7123,0.7259,0.7257,0.7121,0.7254,0.739,0.739,0.739,0.7658,0.7925,0.8058,0.8323,0.8454,0.8587,0.8587,-1.314,-1.3145,-1.303,-1.327,-1.3538,-1.3058,-1.3049,-1.3235,-1.1422,-1.0053,-0.9061,-0.8099,-0.6508,-0.4795,-0.4192,-0.395,-0.395,-0.395,-0.3826,-0.3579,-0.3579,-0.3455,-0.3208,-0.3085,-0.2957,-0.2697,-0.2578,-0.2658,-0.2724,-0.2823,-0.2463,-0.1868,-0.163,-0.1279,-0.0344,-0.0114,0.0682,0.146,0.1904,0.2685,0.3918,0.4931,0.5603,0.6165,0.64,0.6519,0.6631,0.6748,0.6748,0.7083,0.7158,0.7198,0.722,0.7316,0.7483,0.7483,0.75,0.7543,0.7622,0.769,0.7755,0.7812,0.7861,0.7869,0.7872,0.7872,0.7872,0.7872,0.7872,0.7872,0.7872,0.7872,0.7872,0.7872,0.7872,0.7872,0.7872,0.7872,0.7872,0.7875,0.7926,0.8051,0.8179,0.8247,0.8326,0.8475,0.8587,0.8587,0.8587,0.8587,0.8587,0.8454,0.8189,0.7791,0.7524,0.7257,0.739,0.739,0.739,0.739,0.7524,0.766,0.7526,0.7524,0.7658,0.7789,0.7789,0.7791,0.8058,0.8192,0.8325,0.8456,0.8587,0.8587,0.8587,-1.2852,-1.3065,-1.3065,-1.3189,-1.3308,-1.3189,-1.2887,-1.2516,-1.2047,-1.1059,-0.9813,-0.9169,-0.7847,-0.6261,-0.4797,-0.4309,-0.4682,-0.4318,-0.3703,-0.3579,-0.3455,-0.3331,-0.3083,-0.2837,-0.259,-0.2467,-0.2343,-0.2212,-0.2298,-0.2274,-0.2142,-0.2007,-0.1887,-0.1761,-0.0931,-0.1038,-0.0802,-0.0114,0.0901,0.2686,0.4594,0.5495,0.5944,0.6396,0.6566,0.6701,0.7053,0.7109,0.7244,0.7369,0.7423,0.7437,0.7467,0.7546,0.7625,0.7627,0.7687,0.7712,0.7706,0.7761,0.7818,0.785,0.7872,0.7872,0.7872,0.7872,0.7872,0.7872,0.7872,0.7872,0.7872,0.7872,0.7872,0.7872,0.7872,0.7872,0.7872,0.7872,0.7872,0.7872,0.7883,0.7997,0.8117,0.8212,0.8299,0.8435,0.8549,0.8587,0.8587,0.8587,0.8587,0.8456,0.8323,0.8058,0.7791,0.7658,0.7658,0.7791,0.7791,0.7925,0.7925,0.7927,0.7925,0.7925,0.8189,0.8189,0.8056,0.8189,0.8323,0.8456,0.8456,0.859,0.8587,0.8587,0.8587,-1.2625,-1.2904,-1.2909,-1.2913,-1.2909,-1.3031,-1.2583,-1.1718,-1.2219,-1.1762,-1.0814,-1.0346,-0.9697,-0.8596,-0.6632,-0.5778,-0.5786,-0.4807,-0.3947,-0.3577,-0.3208,-0.3086,-0.2715,-0.2468,-0.2345,-0.2345,-0.2099,-0.2095,-0.209,-0.2076,-0.2052,-0.1909,-0.1917,-0.1906,-0.1891,-0.1752,-0.1616,-0.1137,-0.0,0.202,0.4398,0.5541,0.5667,0.5579,0.5504,0.5777,0.7182,0.7462,0.7508,0.751,0.7546,0.7562,0.7699,0.779,0.7859,0.7878,0.8052,0.8057,0.792,0.7939,0.7864,0.7872,0.7872,0.7872,0.7872,0.7872,0.7872,0.7872,0.7872,0.7872,0.7872,0.7872,0.7872,0.7872,0.7872,0.7872,0.7872,0.7872,0.7872,0.7872,0.788,0.7905,0.8027,0.8157,0.8277,0.8402,0.8494,0.8571,0.8587,0.8587,0.8587,0.859,0.8456,0.8192,0.8192,0.8058,0.8058,0.8058,0.8189,0.8189,0.8192,0.8323,0.8323,0.8454,0.8454,0.8454,0.832,0.8454,0.8587,0.8587,0.859,0.8587,0.8587,0.8587,0.8587,-1.245,-1.2484,-1.2493,-1.2502,-1.2502,-1.2484,-1.2151,-1.1625,-1.1439,-1.1659,-1.1598,-1.1559,-1.1386,-1.08,-0.9061,-0.7357,-0.6025,-0.5535,-0.4433,-0.3452,-0.2714,-0.2468,-0.2222,-0.2099,-0.2099,-0.21,-0.1977,-0.1977,-0.1976,-0.1972,-0.1967,-0.1969,-0.1955,-0.1946,-0.1928,-0.1898,-0.1509,-0.1143,-0.0452,0.0568,0.2972,0.437,0.5205,0.385,0.246,0.2583,0.7067,0.7087,0.722,0.7225,0.7525,0.7684,0.7703,0.8018,0.8071,0.8213,0.8346,0.8349,0.8343,0.8097,0.7989,0.7872,0.7872,0.7872,0.7872,0.7872,0.7872,0.7872,0.7872,0.7872,0.7872,0.7872,0.7872,0.7872,0.7877,0.7896,0.7891,0.7875,0.7875,0.7872,0.7896,0.7937,0.8021,0.8174,0.8244,0.8361,0.8505,0.8587,0.8587,0.8587,0.8587,0.8587,0.8587,0.8587,0.8587,0.8454,0.8323,0.8323,0.8456,0.8456,0.8454,0.8587,0.8587,0.8587,0.8587,0.8587,0.8587,0.8587,0.8587,0.8587,0.8587,0.8587,0.8587,0.8587,0.8587,-1.2436,-1.2436,-1.2436,-1.2436,-1.2436,-1.2436,-1.2042,-1.1568,-1.111,-1.1187,-1.157,-1.1536,-1.1573,-1.1126,-0.9772,-0.8594,-0.7643,-0.6006,-0.4911,-0.3819,-0.3082,-0.2345,-0.2099,-0.2099,-0.1977,-0.1977,-0.1977,-0.1977,-0.1977,-0.1977,-0.1977,-0.1977,-0.1975,-0.1725,-0.1585,-0.1683,-0.1297,-0.0,-0.0,-0.0,0.1395,0.4674,0.6341,0.5657,0.1666,0.0954,0.2748,0.4215,0.5315,0.6417,0.6931,0.7301,0.7669,0.7969,0.848,0.8613,0.8735,0.8735,0.8732,0.861,0.8488,0.8119,0.7997,0.7872,0.7872,0.7872,0.7872,0.7872,0.7872,0.7872,0.7872,0.7872,0.7872,0.7872,0.7888,0.7918,0.7943,0.794,0.7948,0.7978,0.7986,0.8005,0.8103,0.8212,0.8261,0.8323,0.847,0.8587,0.8587,0.8587,0.8587,0.8587,0.8587,0.8587,0.8587,0.8587,0.8587,0.8587,0.8587,0.8587,0.8587,0.8587,0.8587,0.8587,0.8587,0.8587,0.8587,0.8587,0.8587,0.8587,0.8587,0.8587,0.8587,0.8587,0.8587,-1.2436,-1.2436,-1.2436,-1.2436,-1.2441,-1.2441,-1.2119,-1.1586,-1.0904,-1.0847,-1.1151,-1.1306,-1.1343,-1.0914,-1.0164,-0.9163,-0.8476,-0.7095,-0.5806,-0.4734,-0.3653,-0.2815,-0.2455,-0.2217,-0.1977,-0.1977,-0.1977,-0.1977,-0.1977,-0.1977,-0.173,-0.1481,-0.1721,-0.1715,-0.1465,-0.1208,-0.0953,-0.0,-0.0,-0.0,-0.0,0.3323,0.5379,0.4913,0.1814,0.0728,0.1458,0.293,0.4291,0.5156,0.59,0.6514,0.7131,0.7869,0.8482,0.8851,0.8976,0.8976,0.8973,0.8854,0.8735,0.8366,0.8244,0.7997,0.7872,0.7872,0.7872,0.7872,0.7872,0.7872,0.7872,0.7872,0.7913,0.7929,0.7951,0.7981,0.8051,0.8076,0.8084,0.8098,0.8103,0.8111,0.8174,0.8277,0.8364,0.8407,0.8497,0.8587,0.8587,0.8587,0.8587,0.8587,0.8587,0.8587,0.8587,0.8587,0.8587,0.8587,0.8587,0.8587,0.8587,0.8587,0.8587,0.8587,0.8587,0.8587,0.8587,0.8587,0.8587,0.8587,0.8587,0.8587,0.8587,0.8587,0.8587,-1.2436,-1.2436,-1.2436,-1.2436,-1.2441,-1.2346,-1.2123,-1.1455,-1.092,-1.0687,-1.086,-1.0992,-1.1175,-1.1069,-1.0501,-0.9954,-0.9033,-0.8113,-0.7079,-0.5932,-0.4315,-0.3731,-0.3154,-0.2688,-0.1971,-0.1976,-0.1977,-0.1977,-0.1977,-0.1723,-0.1109,-0.0857,-0.1213,-0.1689,-0.1687,-0.0714,-0.0118,-0.0,-0.0,-0.0,-0.0,0.2051,0.2672,0.2567,0.184,0.0983,0.1475,0.2459,0.3574,0.3943,0.4679,0.5536,0.6639,0.7131,0.7867,0.8967,0.9214,0.9335,0.9214,0.9095,0.8854,0.8491,0.8366,0.8122,0.7994,0.7872,0.7872,0.7872,0.7872,0.7872,0.7872,0.7888,0.7951,0.7994,0.8013,0.8087,0.816,0.8171,0.8168,0.8212,0.8228,0.8242,0.8282,0.8348,0.8456,0.8522,0.8565,0.8587,0.8587,0.8587,0.8587,0.8587,0.8587,0.8587,0.8587,0.8587,0.8587,0.8587,0.8587,0.8587,0.8587,0.8587,0.8587,0.8587,0.8587,0.8587,0.8587,0.8587,0.8587,0.8587,0.8587,0.8587,0.8587,0.8587,0.8587,-1.2436,-1.2436,-1.2436,-1.2436,-1.2436,-1.2337,-1.1891,-1.1008,-1.0794,-1.0724,-1.0777,-1.0854,-1.0871,-1.0787,-1.0666,-1.0262,-0.9703,-0.8302,-0.7505,-0.7755,-0.52,-0.3938,-0.3367,-0.2663,-0.1956,-0.1972,-0.1977,-0.1972,-0.1976,-0.1346,-0.0608,-0.0363,-0.0,-0.0593,-0.0601,-0.0,-0.0,-0.0,-0.0,-0.0,0.1347,0.1348,0.1597,0.1977,0.173,0.1606,0.1606,0.2592,0.2715,0.296,0.3574,0.4553,0.5531,0.6023,0.7617,0.8471,0.8961,0.9579,0.9579,0.9339,0.9095,0.8732,0.8491,0.8244,0.7994,0.7872,0.7872,0.7872,0.7872,0.7872,0.7872,0.7956,0.8021,0.8054,0.8103,0.8223,0.8288,0.8244,0.8233,0.8315,0.8359,0.8402,0.8443,0.8435,0.8516,0.8552,0.8581,0.8587,0.8587,0.8587,0.8587,0.8587,0.8587,0.8587,0.8587,0.8587,0.8587,0.8587,0.8587,0.8587,0.8587,0.8587,0.8587,0.8587,0.8587,0.8587,0.8587,0.8587,0.8587,0.8587,0.8587,0.8587,0.8587,0.8587,0.8587,-1.2436,-1.2436,-1.2436,-1.2441,-1.2332,-1.1996,-1.1328,-1.0789,-1.0688,-1.0692,-1.0696,-1.0696,-1.07,-1.063,-1.0362,-1.0208,-0.9999,-0.8937,-0.8416,-0.8676,-0.5813,-0.4915,-0.4249,-0.2864,-0.2043,-0.1943,-0.1946,-0.1821,-0.1211,-0.0361,-0.0,-0.0,-0.0,-0.0,-0.0,-0.0,-0.0,0.0733,0.1477,0.1847,0.1727,0.1728,0.1605,0.1853,0.1977,0.1977,0.1977,0.1977,0.1977,0.2222,0.2713,0.3447,0.4306,0.5284,0.6754,0.7365,0.8346,0.9211,0.9589,0.9592,0.923,0.8741,0.8494,0.8244,0.7994,0.7872,0.7872,0.7872,0.7872,0.7872,0.7888,0.7989,0.8076,0.8106,0.8225,0.8342,0.841,0.8372,0.8367,0.8446,0.8473,0.853,0.8562,0.8565,0.8573,0.8581,0.8587,0.8587,0.8587,0.8587,0.8587,0.8587,0.8587,0.8587,0.8587,0.8587,0.8587,0.8587,0.8587,0.8587,0.8587,0.8587,0.8587,0.8587,0.8587,0.8587,0.8587,0.8587,0.8587,0.8587,0.8587,0.8587,0.8587,0.8587,0.8587,-1.2436,-1.2436,-1.2436,-1.2341,-1.2232,-1.1324,-1.0777,-1.0692,-1.0692,-1.0692,-1.0692,-1.0692,-1.0692,-1.0582,-1.0154,-0.9835,-0.9735,-0.9085,-0.8988,-0.8339,-0.6379,-0.6191,-0.509,-0.339,-0.2126,-0.1891,-0.1776,-0.1072,-0.0118,0.0353,-0.0,-0.0,-0.0,-0.0,-0.0,-0.0,0.084,0.1463,0.1721,0.197,0.1975,0.1977,0.1853,0.1977,0.1977,0.1977,0.1977,0.1977,0.1977,0.21,0.21,0.2836,0.3448,0.3815,0.4794,0.5896,0.7245,0.8236,0.8983,0.8983,0.887,0.8255,0.8375,0.8125,0.7997,0.7872,0.7872,0.7872,0.7872,0.7872,0.7888,0.8008,0.8122,0.822,0.8342,0.8446,0.8535,0.8546,0.8543,0.8562,0.856,0.8581,0.8579,0.8587,0.8587,0.8587,0.8587,0.8587,0.8587,0.8587,0.8587,0.8587,0.8587,0.8587,0.8587,0.8587,0.8587,0.8587,0.8587,0.8587,0.8587,0.8587,0.8587,0.8587,0.8587,0.8587,0.8587,0.8587,0.8587,0.8587,0.8587,0.8587,0.8587,0.8587,0.8587,-1.2436,-1.2436,-1.2436,-1.2341,-1.2237,-1.1223,-1.0672,-1.068,-1.0688,-1.0692,-1.0692,-1.0692,-1.0692,-1.0692,-1.0036,-0.9816,-0.9482,-0.9154,-0.894,-0.818,-0.7086,-0.6694,-0.526,-0.3228,-0.1979,-0.1524,-0.1176,-0.0,0.0117,0.07,0.0689,-0.0,0.0456,0.08,0.0919,0.0809,0.1301,0.1688,0.1945,0.196,0.1972,0.1977,0.1977,0.1977,0.1977,0.1977,0.1977,0.1977,0.1977,0.1977,0.1977,0.2346,0.2468,0.3325,0.4548,0.5651,0.6388,0.6634,0.7008,0.7385,0.7516,0.7523,0.7771,0.8011,0.788,0.775,0.775,0.7875,0.7875,0.7877,0.7929,0.8038,0.8141,0.8244,0.838,0.8513,0.8587,0.8587,0.8587,0.8587,0.8587,0.8587,0.8587,0.8587,0.8587,0.8587,0.8587,0.8587,0.8587,0.8587,0.8587,0.8587,0.8587,0.8587,0.8587,0.8587,0.8587,0.8587,0.8587,0.8587,0.8587,0.8587,0.8587,0.8587,0.8587,0.8587,0.8587,0.8587,0.8587,0.8587,0.8587,0.8587,0.8587,0.8587,0.8587,-1.2436,-1.2436,-1.2436,-1.211,-1.1673,-1.1223,-1.0895,-1.068,-1.0692,-1.0692,-1.0692,-1.0692,-1.0692,-1.0582,-1.0147,-0.9706,-0.9592,-0.9154,-0.8937,-0.8602,-0.7485,-0.7086,-0.566,-0.3181,-0.137,-0.0,-0.0,-0.0,-0.0,0.1032,0.1244,0.0899,0.1009,0.1241,0.1476,0.1483,0.1508,0.1778,0.1928,0.1948,0.1964,0.1977,0.1977,0.1977,0.1977,0.1977,0.1977,0.1977,0.1977,0.1977,0.1977,0.1977,0.2099,0.2836,0.3692,0.4673,0.5039,0.5535,0.6033,0.6287,0.6414,0.6667,0.7168,0.7033,0.7148,0.7016,0.7513,0.7886,0.7883,0.7899,0.7981,0.8065,0.8149,0.8239,0.8402,0.8568,0.8587,0.8587,0.8587,0.8587,0.8587,0.8587,0.8587,0.8587,0.8587,0.8587,0.8587,0.8587,0.8587,0.8587,0.8587,0.8587,0.8587,0.8587,0.8587,0.8587,0.8587,0.8587,0.8587,0.8587,0.8587,0.8587,0.8587,0.8587,0.8587,0.8587,0.8587,0.8587,0.8587,0.8587,0.8587,0.8587,0.8587,0.8587,0.8587,-1.2436,-1.2436,-1.2327,-1.1882,-1.0992,-1.1114,-1.1013,-1.0692,-1.0692,-1.0692,-1.0692,-1.0692,-1.0692,-1.0582,-1.0033,-0.9816,-0.9596,-0.9154,-0.8937,-0.8826,-0.7817,-0.7396,-0.6386,-0.3804,-0.2028,-0.0,-0.0,-0.0,-0.0,0.09,0.1351,0.1683,0.1234,0.1237,0.1688,0.169,0.172,0.1886,0.1915,0.1937,0.1966,0.1977,0.1977,0.1977,0.1977,0.1977,0.1977,0.1977,0.1977,0.1977,0.1977,0.1977,0.21,0.2099,0.2958,0.3325,0.3693,0.4189,0.4685,0.4937,0.5311,0.5935,0.669,0.5806,0.5425,0.591,0.6528,0.7023,0.7023,0.7643,0.7954,0.7975,0.8087,0.8301,0.8432,0.8552,0.8598,0.8595,0.8592,0.8592,0.8587,0.8587,0.8587,0.8587,0.8592,0.859,0.8592,0.8592,0.8459,0.8459,0.8454,0.8454,0.8587,0.8587,0.8587,0.8587,0.8587,0.8587,0.8587,0.8587,0.8587,0.8587,0.8587,0.8587,0.8587,0.8587,0.8587,0.8587,0.8587,0.8587,0.8587,0.8587,0.8587,0.8587,0.8587,-1.2436,-1.2332,-1.2119,-1.2019,-1.1805,-1.1131,-1.0798,-1.0692,-1.0692,-1.0692,-1.0692,-1.0692,-1.0692,-1.0582,-1.0036,-0.9816,-0.9706,-0.9268,-0.8937,-0.8823,-0.8149,-0.7709,-0.7721,-0.5817,-0.3467,-0.0,-0.0,-0.0,-0.0,-0.0,0.0897,0.157,0.1234,0.1346,0.1795,0.1795,0.1825,0.1882,0.1896,0.193,0.1971,0.1977,0.1977,0.1977,0.1977,0.1977,0.1977,0.1977,0.1977,0.1977,0.1977,0.1977,0.1977,0.1977,0.2099,0.2345,0.259,0.2962,0.3087,0.3334,0.3459,0.2841,0.2965,0.3211,0.3579,0.4436,0.5049,0.5544,0.6039,0.6908,0.7701,0.7738,0.7753,0.7964,0.8454,0.8532,0.8609,0.847,0.8467,0.8595,0.859,0.859,0.859,0.8592,0.8598,0.8603,0.8606,0.8475,0.8208,0.8071,0.7786,0.792,0.8456,0.859,0.8587,0.859,0.8592,0.859,0.8587,0.8587,0.8587,0.8587,0.8587,0.8587,0.8587,0.8587,0.8587,0.8587,0.8587,0.8587,0.8587,0.8587,0.8587,0.8587,0.8587,-1.2332,-1.2332,-1.2119,-1.1791,-1.1577,-1.1021,-1.0802,-1.0692,-1.0692,-1.0692,-1.0692,-1.0692,-1.0692,-1.0582,-1.0036,-0.9816,-0.9706,-0.9158,-0.8937,-0.8823,-0.8598,-0.8266,-0.7832,-0.739,-0.5258,-0.0,-0.0,-0.0,-0.0,-0.0,0.0561,0.1009,0.1009,0.1234,0.1683,0.1799,0.1825,0.1883,0.1885,0.1919,0.197,0.1977,0.1977,0.1977,0.1977,0.1977,0.1977,0.1977,0.1977,0.1977,0.1977,0.1977,0.1977,0.1977,0.1977,0.21,0.21,0.1977,0.1977,0.1853,0.173,0.1112,-0.0,-0.0,-0.0,0.2096,0.2094,0.2587,0.2709,0.3448,0.5213,0.5686,0.5638,0.5833,0.7266,0.8187,0.7937,0.7663,0.8066,0.8606,0.8603,0.8603,0.8603,0.8611,0.8478,0.8071,0.821,0.6853,0.6857,0.7273,0.7125,0.7388,0.7927,0.8459,0.8587,0.8592,0.8598,0.8592,0.859,0.8587,0.8587,0.8587,0.8587,0.8587,0.8587,0.8587,0.8587,0.8587,0.8587,0.8587,0.8587,0.8587,0.8587,0.8587,0.8587,-1.211,-1.2223,-1.2005,-1.145,-1.0895,-1.0903,-1.0911,-1.0692,-1.0692,-1.0692,-1.0692,-1.0692,-1.0692,-1.0472,-1.0143,-0.9926,-0.971,-0.9268,-0.9047,-0.8826,-0.8709,-0.8377,-0.8048,-0.7385,-0.6044,-0.4139,-0.0,-0.0,-0.0,-0.0,-0.0,-0.0,-0.0,0.1121,0.157,0.1802,0.1825,0.187,0.1894,0.1922,0.1952,0.1977,0.1977,0.1977,0.1977,0.1977,0.1977,0.1977,0.1977,0.1977,0.1977,0.1977,0.1977,0.1977,0.1977,0.1977,0.1977,0.1977,0.1977,0.1606,0.0988,-0.0,-0.0,-0.0,-0.0,-0.0,-0.0,-0.0,-0.0,-0.0,-0.0,-0.0,-0.0,0.4142,0.5816,0.7268,0.6859,0.6315,0.6853,0.7665,0.848,0.848,0.8074,0.8081,0.7947,0.7541,0.6862,0.5238,0.4297,0.5245,0.5649,0.6457,0.7407,0.7935,0.792,0.8598,0.8606,0.8598,0.8595,0.859,0.8587,0.8587,0.8587,0.8587,0.8587,0.8587,0.8587,0.8587,0.8587,0.8587,0.8587,0.8587,0.8587,0.8587,0.8587,-1.1678,-1.1678,-1.1459,-1.1236,-1.1131,-1.0911,-1.0692,-1.0692,-1.0692,-1.0692,-1.0692,-1.0692,-1.0692,-1.0692,-1.0363,-1.0147,-0.9706,-0.9379,-0.9047,-0.8937,-0.8823,-0.8602,-0.8269,-0.7718,-0.729,-0.5268,-0.2687,-0.0,-0.0,-0.0,-0.0,-0.0,-0.0,-0.0,0.1009,0.1353,0.1823,0.1866,0.1894,0.1915,0.1958,0.1977,0.1977,0.1977,0.1977,0.1977,0.1977,0.1977,0.1977,0.1977,0.1977,0.1977,0.1977,0.1977,0.1977,0.1977,0.1977,0.1853,0.1606,0.1112,-0.0,-0.0,-0.0,-0.0,-0.0,-0.0,-0.0,-0.0,-0.0,-0.0,-0.0,-0.0,-0.0,-0.0,0.4237,0.4948,0.5106,0.4029,0.3357,0.578,0.8218,0.7402,0.6182,0.6185,0.6055,0.6057,0.6877,0.5114,0.2151,0.2958,-0.0,-0.0,-0.0,0.6057,0.5774,0.8071,0.8617,0.8609,0.8598,0.8595,0.859,0.8587,0.8587,0.8587,0.8587,0.8587,0.8587,0.8587,0.8587,0.8587,0.8587,0.8587,0.8587,0.8587,0.8587]},{"header":{"parameterUnit":"m.s-1","parameterCategory":1,"la1":31.0,"la2":29.5877,"lo1":-88.7671,"lo2":-86.6584,"dy":0.0162,"dx":0.0185,"nx":115,"ny":88,"refTime":"2024-06-04T06:00:00:Z","depth":0,"parameterNumber":3,"parameterNumberName":"V-component_of_WINDS"},"data":[0.0,0.0,0.0,0.0,0.0,0.0,0.0,0.0,0.0,0.0,0.0,0.0,0.0,0.0,0.0,0.0,0.0,0.0,0.0,0.0,0.0,0.0,0.0,0.0,0.0,0.0,0.0,0.0,0.0,0.0,0.0,0.0,0.0,0.0,0.0,0.0,0.0,0.0,0.0,0.0,0.0,0.0,0.0,0.0,0.0,0.0,0.0,0.0,0.0,0.0,0.0,0.0,0.0,0.0,0.0,0.0,0.0,0.0,0.0,0.0,0.0,0.0,0.0,0.0,0.0,0.0,0.0,0.0,0.0,0.0,0.0,0.0,0.0,0.0,0.0,0.0,0.0,0.0,0.0,0.0,0.0,0.0,0.0,0.0,0.0,0.0,0.0,0.0,0.0,0.0,0.0,0.0,0.0,0.0,0.0,0.0,0.0,0.0,0.0,0.0,0.0,0.0,0.0,0.0,0.0,0.0,0.0,0.0,0.0,0.0,0.0,0.0,0.0,0.0,0.0,0.0,0.0,0.0,0.0,0.0,0.0,0.0,0.0,0.0,0.0,0.0,0.0,0.0,0.0,0.0,0.0,0.0,0.0,0.0,0.0,0.0,0.0,0.0,0.0,0.0,0.0,0.0,0.0,0.0,0.0,0.0,0.0,0.0,0.0,0.0,0.0,0.0,0.0,0.0,0.0,0.0,0.0,0.0,0.0,0.0,0.0,0.0,0.0,0.0,0.0,0.0,0.0,0.0,0.0,0.0,0.0,0.0,0.0,0.0,0.0,0.0,0.0,0.0,0.0,0.0,0.0,0.0,0.0,0.0,0.0,0.0,0.0,0.0,0.0,0.0,0.0,0.0,0.0,0.0,0.0,0.0,0.0,0.0,0.0,0.0,0.0,0.0,0.0,0.0,0.0,0.0,0.0,0.0,0.0,0.0,0.0,0.0,0.0,0.0,0.0,0.0,0.0,0.0,0.0,0.0,0.0,0.0,0.0,0.0,0.0,0.0,0.0,0.0,0.0,0.0,0.0,0.0,0.0,0.0,0.0,0.0,0.0,0.0,0.0,0.0,0.0,0.0,0.0,0.0,0.0,0.0,0.0,0.0,0.0,0.0,0.0,0.0,0.0,0.0,0.0,0.0,0.0,0.0,0.0,0.0,0.0,0.0,0.0,0.0,0.0,0.0,0.0,0.0,0.0,0.0,0.0,0.0,0.0,0.0,0.0,0.0,0.0,0.0,0.0,0.0,0.0,0.0,0.0,0.0,0.0,0.0,0.0,0.0,0.0,0.0,0.0,0.0,0.0,0.0,0.0,0.0,0.0,0.0,0.0,0.0,0.0,0.0,0.0,0.0,0.0,0.0,0.0,0.0,0.0,0.0,0.0,0.0,0.0,0.0,0.0,0.0,0.0,0.0,0.0,0.0,0.0,0.0,0.0,0.0,0.0,0.0,0.0,0.0,0.0,0.0,0.0,0.0,0.0,0.0,0.0,0.0,0.0,0.0,0.0,0.0,0.0,0.0,0.0,0.0,0.0,0.0,0.0,0.0,0.0,0.0,0.0,0.0,0.0,0.0,0.0,0.0,0.0,0.0,0.0,0.0,0.0,0.0,0.0,0.0,0.0,0.0,0.0,0.0,0.0,0.0,0.0,0.0,0.0,0.0,0.0,0.0,0.0,0.0,0.0,0.0,0.0,0.0,0.0,0.0,0.0,0.0,0.0,0.0,0.0,0.0,0.0,0.0,0.0,0.0,0.0,0.0,0.0,0.0,0.0,0.0,0.0,0.0,0.0,0.0,0.0,0.0,0.0,0.0,0.0,0.0,0.0,0.0,0.0,0.0,0.0,0.0,0.0,0.0,0.0,0.0,0.0,0.0,0.0,0.0,0.0,0.0,0.0,0.0,0.0,0.0,0.0,0.0,0.0,0.0,0.0,0.0,0.0,0.0,0.0,0.0,0.0,0.0,0.0,0.0,0.0,0.0,0.0,0.0,0.0,0.0,0.0,0.0,0.0,0.0,0.0,0.0,0.0,0.0,0.0,0.0,0.0,0.0,0.0,0.0,0.0,0.0,0.0,0.0,0.0,0.0,0.0,0.0,0.0,0.0,0.0,0.0,0.0,0.0,0.0,0.0,0.0,0.0,0.0,0.0,0.0,0.0,0.0,0.0,0.0,0.0,0.0,0.0,0.0,0.0,0.0,0.0,0.0,0.0,0.0,0.0,0.0,0.0,0.0,0.0,0.0,0.0,0.0,0.0,0.0,0.0,0.0,0.0,0.0,0.0,0.0,0.0,0.0,0.0,0.0,0.0,0.0,0.0,0.0,0.0,0.0,0.0,0.0,0.0,0.0,0.0,0.0,0.0,0.0,0.0,0.0,0.0,0.0,0.0,0.0,0.0,0.0,0.0,0.0,0.0,0.0,0.0,0.0,0.0,0.0,0.0,0.0,0.0,0.0,0.0,0.0,0.0,0.0,0.0,0.0,0.0,0.0,0.0,0.0,0.0,0.0,0.0,0.0,0.0,0.0,0.0,0.0,0.0,0.0,0.0,0.0,0.0,0.0,0.0,0.0,0.0,0.0,0.0,0.0,0.0,0.0,0.0,0.0,0.0,0.0,0.0,0.0,0.0,0.0,0.0,0.0,0.0,0.0,0.0,0.0,0.0,0.0,0.0,0.0,0.0,0.0,0.0,0.0,0.0,0.0,0.0,0.0,0.0,0.0,0.0,0.0,0.0,0.0,0.0,0.0,0.0,0.0,0.0,0.0,0.0,0.0,0.0,0.0,0.0,0.0,0.0,0.0,0.0,0.0,0.0,0.0,0.0,0.0,0.0,0.0,0.0,0.0,0.0,0.0,0.0,0.0,0.0,0.0,0.0,0.0,0.0,0.0,0.0,0.0,0.0,0.0,0.0,0.0,0.0,0.0,0.0,0.0,0.0,0.0,0.0,0.0,0.0,0.0,0.0,0.0,0.0,0.0,0.0,0.0,0.0,0.0,0.0,0.0,0.0,0.0,0.0,0.0,0.0,0.0,0.0,0.0,0.0,0.0,0.0,0.0,0.0,0.0,0.0,0.0,0.0,0.0,0.0,0.0,0.0,0.0,0.0,0.0,0.0,0.0,0.0,0.0,0.0,0.0,0.0,0.0,0.0,0.0,0.0,0.0,0.0,0.0,0.0,0.0,0.0,0.0,0.0,0.0,0.0,0.0,0.0,0.0,0.0,0.0,0.0,0.0,0.0,0.0,0.0,0.0,0.0,0.0,0.0,0.0,0.0,0.0,0.0,0.0,0.0,0.0,0.0,0.0,0.0,0.0,0.0,0.0,0.0,0.0,0.0,0.0,0.0,0.0,0.0,0.0,0.0,0.0,0.0,0.0,0.0,0.0,0.0,0.0,0.0,0.0,0.0,0.0,0.0,0.0,0.0,0.0,0.0,0.0,0.0,0.0,0.0,0.0,0.0,0.0,0.0,0.0,0.0,0.0,0.0,0.0,0.0,0.0,0.0,0.0,0.0,0.0,0.0,0.0,0.0,0.0,0.0,0.0,0.0,0.0,0.0,0.0,0.0,0.0,0.0,0.0,0.0,0.0,0.0,0.0,0.0,0.0,0.0,0.0,0.0,0.0,0.0,0.0,0.0,0.0,0.0,0.0,0.0,0.0,0.0,0.0,0.0,0.0,0.0,0.0,0.0,0.0,0.0,0.0,0.0,0.0,0.0,0.0,0.0,0.0,0.0,0.0,0.0,0.0,0.0,0.0,0.0,0.0,0.0,0.0,0.0,0.0,0.0,0.0,0.0,0.0,0.0,0.0,0.0,0.0,0.0,0.0,0.0,0.0,0.0,0.0,0.0,0.0,0.0,0.0,0.0,0.0,0.0,0.0,0.0,0.0,0.0,0.0,0.0,0.0,0.0,0.0,0.0,0.0,0.0,0.0,0.0,0.0,0.0,0.0,0.0,0.0,0.0,0.0,0.0,0.0,0.0,0.0,0.0,0.0,0.0,0.0,0.0,0.0,0.0,0.0,0.0,0.0,0.0,0.0,0.0,0.0,0.0,0.0,0.0,0.0,0.0,0.0,0.0,0.0,0.0,0.0,0.0,0.0,0.0,0.0,0.0,0.0,0.0,0.0,0.0,0.0,0.0,0.0,0.0,0.0,0.0,0.0,0.0,0.0,0.0,0.0,0.0,0.0,0.0,0.0,0.0,0.0,0.0,0.0,0.0,0.0,0.0,0.0,0.0,0.0,0.0,0.0,0.0,0.0,0.0,0.0,0.0,0.0,0.0,-1.1968,0.0,0.0,0.0,0.0,0.0,0.0,0.0,0.0,0.0,0.0,0.0,0.0,0.0,0.0,0.0,0.0,0.0,0.0,0.0,0.0,0.0,0.0,0.0,0.0,0.0,0.0,0.0,0.0,0.0,0.0,0.0,0.0,0.0,0.0,0.0,0.0,0.0,0.0,0.0,0.0,0.0,0.0,0.0,0.0,0.0,0.0,0.0,0.0,0.0,0.0,0.0,0.0,0.0,0.0,0.0,0.0,0.0,0.0,0.0,0.0,0.0,0.0,0.0,0.0,0.0,0.0,0.0,0.0,0.0,0.0,0.0,0.0,0.0,0.0,0.0,0.0,0.0,0.0,0.0,0.0,0.0,0.0,0.0,0.0,0.0,0.0,0.0,0.0,0.0,0.0,0.0,0.0,0.0,0.0,0.0,0.0,0.0,0.0,0.0,0.0,0.0,0.0,0.0,0.0,0.0,0.0,0.0,0.0,0.0,0.0,-1.2029,-1.2066,-1.2066,-1.209,-1.2138,0.0,0.0,0.0,0.0,0.0,0.0,0.0,0.0,0.0,0.0,0.0,0.0,0.0,0.0,0.0,0.0,0.0,0.0,0.0,0.0,0.0,0.0,0.0,0.0,0.0,0.0,0.0,0.0,0.0,0.0,0.0,0.0,0.0,0.0,0.0,0.0,0.0,0.0,0.0,0.0,0.0,0.0,0.0,0.0,0.0,0.0,0.0,0.0,0.0,0.0,0.0,0.0,0.0,0.0,0.0,0.0,0.0,0.0,0.0,0.0,0.0,0.0,0.0,0.0,0.0,0.0,0.0,0.0,0.0,0.0,0.0,0.0,0.0,0.0,0.0,0.0,0.0,0.0,0.0,0.0,0.0,0.0,0.0,0.0,0.0,0.0,0.0,0.0,0.0,0.0,0.0,0.0,0.0,0.0,0.0,0.0,0.0,0.0,0.0,0.0,0.0,0.0,0.0,0.0,0.0,0.0,0.0,0.0,0.0,0.0,0.0,0.0,-1.2908,-1.2908,-1.2908,0.0,0.0,0.0,0.0,0.0,0.0,0.0,0.0,0.0,0.0,0.0,0.0,0.0,0.0,0.0,0.0,0.0,0.0,0.0,0.0,0.0,0.0,0.0,0.0,0.0,0.0,0.0,0.0,0.0,0.0,0.0,0.0,0.0,0.0,0.0,0.0,0.0,0.0,0.0,0.0,0.0,0.0,0.0,0.0,0.0,0.0,0.0,0.0,0.0,0.0,0.0,0.0,0.0,0.0,0.0,0.0,0.0,0.0,0.0,0.0,0.0,0.0,0.0,0.0,0.0,0.0,0.0,0.0,0.0,0.0,0.0,0.0,0.0,0.0,0.0,0.0,0.0,0.0,0.0,0.0,0.0,0.0,0.0,0.0,0.0,0.0,0.0,0.0,0.0,0.0,0.0,0.0,0.0,0.0,0.0,0.0,0.0,0.0,0.0,0.0,0.0,0.0,0.0,0.0,0.0,0.0,0.0,0.0,0.0,0.0,-1.3558,-1.5029,-1.5065,0.0,-1.5118,0.0,0.0,0.0,0.0,0.0,0.0,0.0,0.0,0.0,0.0,0.0,0.0,0.0,0.0,0.0,0.0,0.0,0.0,0.0,0.0,0.0,0.0,0.0,0.0,0.0,0.0,0.0,0.0,0.0,0.0,0.0,0.0,0.0,0.0,0.0,0.0,0.0,0.0,0.0,0.0,0.0,0.0,0.0,0.0,0.0,0.0,0.0,0.0,0.0,0.0,0.0,0.0,0.0,0.0,0.0,0.0,0.0,0.0,0.0,0.0,0.0,0.0,0.0,0.0,0.0,0.0,0.0,0.0,0.0,0.0,0.0,0.0,0.0,0.0,0.0,0.0,0.0,0.0,0.0,0.0,0.0,0.0,0.0,0.0,0.0,0.0,0.0,0.0,0.0,0.0,0.0,0.0,0.0,0.0,0.0,0.0,0.0,0.0,0.0,0.0,0.0,0.0,0.0,0.0,0.0,0.0,0.0,0.0,0.0,0.0,-1.4885,-1.5558,-1.564,-1.5558,0.0,0.0,0.0,0.0,0.0,0.0,0.0,0.0,0.0,0.0,0.0,0.0,0.0,0.0,0.0,0.0,0.0,0.0,0.0,0.0,0.0,0.0,0.0,0.0,0.0,0.0,0.0,0.0,0.0,0.0,0.0,0.0,0.0,0.0,0.0,0.0,0.0,0.0,0.0,0.0,0.0,0.0,0.0,0.0,0.0,0.0,0.0,0.0,0.0,0.0,0.0,0.0,0.0,0.0,0.0,0.0,0.0,0.0,0.0,0.0,0.0,0.0,0.0,0.0,0.0,0.0,0.0,0.0,0.0,0.0,0.0,0.0,0.0,0.0,0.0,0.0,0.0,0.0,0.0,0.0,0.0,0.0,0.0,0.0,0.0,0.0,0.0,0.0,0.0,0.0,0.0,0.0,0.0,0.0,0.0,0.0,0.0,0.0,0.0,0.0,0.0,0.0,0.0,0.0,0.0,0.0,0.0,0.0,0.0,0.0,-1.5369,0.0,-1.6473,-1.6443,-1.6028,-1.5184,0.0,0.0,0.0,0.0,0.0,0.0,0.0,0.0,0.0,0.0,0.0,0.0,0.0,0.0,0.0,0.0,0.0,0.0,0.0,0.0,0.0,0.0,0.0,0.0,0.0,0.0,0.0,0.0,0.0,0.0,0.0,0.0,0.0,0.0,0.0,0.0,0.0,0.0,0.0,0.0,0.0,0.0,0.0,0.0,0.0,0.0,0.0,0.0,0.0,0.0,0.0,0.0,0.0,0.0,0.0,0.0,0.0,0.0,0.0,0.0,0.0,0.0,0.0,0.0,0.0,0.0,0.0,0.0,0.0,0.0,0.0,0.0,0.0,0.0,0.0,0.0,0.0,0.0,0.0,0.0,0.0,0.0,0.0,0.0,0.0,0.0,0.0,0.0,0.0,0.0,0.0,0.0,0.0,0.0,0.0,0.0,0.0,0.0,0.0,0.0,0.0,0.0,0.0,0.0,0.0,0.0,0.0,0.0,0.0,-1.6811,-1.6866,-1.8388,-1.7881,-1.682,0.0,0.0,0.0,0.0,0.0,0.0,0.0,0.0,0.0,0.0,0.0,0.0,0.0,0.0,0.0,0.0,0.0,0.0,0.0,0.0,0.0,0.0,0.0,0.0,0.0,0.0,0.0,0.0,0.0,0.0,0.0,0.0,0.0,0.0,0.0,0.0,0.0,0.0,0.0,0.0,0.0,0.0,0.0,0.0,0.0,0.0,0.0,0.0,0.0,0.0,0.0,0.0,0.0,0.0,0.0,0.0,0.0,0.0,0.0,0.0,0.0,0.0,0.0,0.0,0.0,0.0,0.0,0.0,0.0,0.0,0.0,0.0,0.0,0.0,0.0,0.0,0.0,0.0,0.0,0.0,0.0,0.0,0.0,0.0,0.0,0.0,0.0,0.0,0.0,0.0,0.0,0.0,0.0,0.0,0.0,0.0,0.0,0.0,0.0,0.0,0.0,0.0,0.0,0.0,0.0,0.0,0.0,0.0,0.0,-1.5312,-1.5892,-1.7271,-1.9342,-1.7908,-1.6703,0.0,0.0,0.0,0.0,0.0,0.0,0.0,0.0,0.0,0.0,0.0,0.0,0.0,0.0,0.0,0.0,0.0,0.0,0.0,0.0,0.0,0.0,0.0,0.0,0.0,0.0,0.0,0.0,0.0,0.0,0.0,0.0,0.0,0.0,0.0,0.0,0.0,0.0,0.0,0.0,0.0,0.0,0.0,0.0,0.0,0.0,0.0,0.0,0.0,0.0,0.0,0.0,0.0,0.0,0.0,0.0,0.0,0.0,0.0,0.0,0.0,0.0,0.0,0.0,0.0,0.0,0.0,0.0,0.0,0.0,0.0,0.0,0.0,0.0,0.0,0.0,0.0,0.0,0.0,0.0,0.0,0.0,0.0,0.0,0.0,0.0,0.0,0.0,0.0,0.0,0.0,0.0,0.0,0.0,0.0,0.0,0.0,0.0,0.0,0.0,0.0,0.0,0.0,0.0,0.0,0.0,0.0,0.0,0.0,-1.5073,0.0,-1.8179,0.0,-1.7792,-1.6465,0.0,0.0,0.0,0.0,0.0,0.0,0.0,0.0,0.0,0.0,0.0,0.0,0.0,0.0,0.0,0.0,0.0,0.0,0.0,0.0,0.0,0.0,0.0,0.0,0.0,0.0,0.0,0.0,0.0,0.0,0.0,0.0,0.0,0.0,0.0,0.0,0.0,0.0,0.0,0.0,0.0,0.0,0.0,0.0,0.0,0.0,0.0,0.0,0.0,0.0,0.0,0.0,0.0,0.0,0.0,0.0,0.0,0.0,0.0,0.0,0.0,0.0,0.0,0.0,0.0,0.0,0.0,0.0,0.0,0.0,0.0,0.0,0.0,0.0,0.0,0.0,0.0,0.0,0.0,0.0,0.0,0.0,0.0,0.0,0.0,0.0,0.0,0.0,0.0,0.0,0.0,0.0,0.0,0.0,0.0,0.0,0.0,0.0,0.0,0.0,0.0,0.0,0.0,0.0,0.0,0.0,0.0,0.0,-1.5406,-1.8179,-1.9394,-1.952,-1.8502,-1.7851,-1.6195,0.0,0.0,0.0,0.0,0.0,0.0,0.0,0.0,0.0,0.0,0.0,0.0,0.0,0.0,0.0,0.0,0.0,0.0,0.0,0.0,0.0,0.0,0.0,0.0,0.0,0.0,0.0,0.0,0.0,0.0,0.0,0.0,0.0,0.0,0.0,0.0,0.0,0.0,0.0,0.0,0.0,0.0,0.0,0.0,0.0,0.0,0.0,0.0,0.0,0.0,0.0,0.0,0.0,0.0,0.0,0.0,0.0,0.0,0.0,0.0,0.0,0.0,0.0,0.0,0.0,0.0,0.0,0.0,0.0,0.0,0.0,0.0,0.0,0.0,0.0,0.0,0.0,0.0,0.0,0.0,0.0,0.0,0.0,0.0,0.0,0.0,0.0,0.0,0.0,0.0,0.0,0.0,0.0,0.0,0.0,0.0,0.0,0.0,0.0,0.0,0.0,0.0,0.0,0.0,0.0,0.0,0.0,0.0,0.0,-1.7105,-1.8167,-1.9347,-2.0454,-1.8352,-1.7162,0.0,0.0,0.0,0.0,0.0,0.0,0.0,0.0,0.0,0.0,0.0,0.0,0.0,0.0,0.0,0.0,0.0,0.0,0.0,0.0,0.0,0.0,0.0,0.0,0.0,0.0,0.0,0.0,0.0,0.0,0.0,0.0,0.0,0.0,0.0,0.0,0.0,0.0,0.0,0.0,0.0,0.0,0.0,0.0,0.0,0.0,0.0,0.0,0.0,0.0,0.0,0.0,0.0,0.0,0.0,0.0,0.0,0.0,0.0,0.0,0.0,0.0,0.0,0.0,0.0,0.0,0.0,0.0,0.0,0.0,0.0,0.0,0.0,0.0,0.0,0.0,0.0,0.0,0.0,0.0,0.0,0.0,0.0,0.0,0.0,0.0,0.0,0.0,0.0,0.0,0.0,0.0,0.0,0.0,0.0,0.0,0.0,0.0,0.0,0.0,0.0,0.0,0.0,0.0,0.0,0.0,0.0,0.0,0.0,-1.8622,-1.9752,-2.074,-2.1483,-1.9633,-1.8447,-1.7969,0.0,0.0,0.0,0.0,0.0,0.0,0.0,0.0,0.0,0.0,0.0,0.0,0.0,0.0,0.0,0.0,0.0,0.0,0.0,0.0,0.0,0.0,0.0,0.0,0.0,0.0,0.0,0.0,0.0,0.0,0.0,0.0,0.0,0.0,0.0,0.0,0.0,0.0,0.0,0.0,0.0,0.0,0.0,0.0,0.0,0.0,0.0,0.0,0.0,0.0,0.0,0.0,0.0,0.0,0.0,0.0,0.0,0.0,0.0,0.0,0.0,0.0,0.0,0.0,0.0,0.0,0.0,0.0,0.0,0.0,0.0,0.0,0.0,0.0,0.0,0.0,0.0,0.0,0.0,0.0,0.0,0.0,0.0,0.0,0.0,0.0,0.0,0.0,0.0,0.0,0.0,0.0,0.0,0.0,0.0,0.0,0.0,0.0,0.0,0.0,0.0,0.0,0.0,0.0,0.0,0.0,0.0,0.0,-2.2156,-2.3653,-2.3525,-2.1783,-2.153,-1.9983,0.0,0.0,0.0,0.0,0.0,0.0,0.0,0.0,0.0,0.0,0.0,0.0,0.0,0.0,0.0,0.0,0.0,0.0,0.0,0.0,0.0,0.0,0.0,0.0,0.0,0.0,0.0,0.0,0.0,0.0,0.0,0.0,0.0,0.0,0.0,0.0,0.0,0.0,0.0,0.0,0.0,0.0,0.0,0.0,0.0,0.0,0.0,0.0,0.0,0.0,0.0,0.0,0.0,0.0,0.0,0.0,0.0,0.0,0.0,0.0,0.0,0.0,0.0,0.0,0.0,0.0,0.0,0.0,0.0,0.0,0.0,0.0,0.0,0.0,0.0,0.0,0.0,0.0,0.0,0.0,0.0,0.0,0.0,0.0,0.0,0.0,0.0,0.0,0.0,0.0,0.0,0.0,0.0,0.0,0.0,0.0,0.0,0.0,0.0,0.0,0.0,0.0,0.0,0.0,0.0,0.0,0.0,0.0,0.0,-2.4053,-2.6037,-2.6421,-2.5024,-2.3157,-2.1476,0.0,0.0,0.0,0.0,0.0,0.0,0.0,0.0,0.0,0.0,0.0,0.0,0.0,0.0,0.0,0.0,0.0,0.0,0.0,0.0,0.0,0.0,0.0,0.0,0.0,0.0,0.0,0.0,0.0,0.0,0.0,0.0,0.0,0.0,0.0,0.0,0.0,0.0,0.0,0.0,0.0,0.0,0.0,0.0,0.0,0.0,0.0,0.0,0.0,0.0,0.0,0.0,0.0,0.0,0.0,0.0,0.0,0.0,0.0,0.0,0.0,0.0,0.0,0.0,0.0,0.0,0.0,0.0,0.0,0.0,0.0,0.0,0.0,0.0,0.0,0.0,0.0,0.0,0.0,0.0,0.0,0.0,0.0,0.0,0.0,0.0,0.0,0.0,0.0,0.0,0.0,0.0,0.0,0.0,0.0,0.0,0.0,0.0,0.0,0.0,0.0,0.0,0.0,0.0,0.0,0.0,0.0,0.0,-2.3173,-2.5255,-2.7533,-2.8218,-2.7214,-2.5358,-2.3475,0.0,0.0,0.0,0.0,0.0,0.0,0.0,0.0,0.0,0.0,0.0,0.0,0.0,0.0,0.0,0.0,0.0,0.0,0.0,0.0,0.0,0.0,0.0,0.0,0.0,0.0,0.0,0.0,0.0,0.0,0.0,0.0,0.0,0.0,0.0,0.0,0.0,0.0,0.0,0.0,0.0,0.0,0.0,0.0,0.0,0.0,0.0,0.0,0.0,0.0,0.0,0.0,0.0,0.0,0.0,0.0,0.0,0.0,0.0,0.0,0.0,0.0,0.0,0.0,0.0,0.0,0.0,0.0,0.0,0.0,0.0,0.0,0.0,0.0,0.0,0.0,0.0,0.0,0.0,0.0,0.0,0.0,0.0,0.0,0.0,0.0,0.0,0.0,0.0,0.0,0.0,0.0,0.0,0.0,0.0,0.0,0.0,0.0,0.0,0.0,0.0,0.0,0.0,0.0,0.0,0.0,0.0,0.0,-2.4302,-2.5926,-2.8311,-2.9211,-2.857,-2.7572,-2.5504,0.0,0.0,0.0,0.0,0.0,0.0,0.0,0.0,0.0,0.0,0.0,0.0,0.0,0.0,0.0,0.0,0.0,0.0,0.0,0.0,0.0,0.0,0.0,0.0,0.0,0.0,0.0,0.0,0.0,0.0,0.0,0.0,0.0,0.0,0.0,0.0,0.0,0.0,0.0,0.0,0.0,0.0,0.0,0.0,0.0,0.0,0.0,0.0,0.0,0.0,0.0,0.0,0.0,0.0,0.0,0.0,0.0,0.0,0.0,0.0,0.0,0.0,0.0,0.0,0.0,0.0,0.0,0.0,0.0,0.0,0.0,0.0,0.0,0.0,0.0,0.0,0.0,0.0,0.0,0.0,0.0,0.0,0.0,0.0,0.0,0.0,0.0,0.0,0.0,0.0,0.0,0.0,0.0,0.0,0.0,0.0,0.0,0.0,0.0,0.0,0.0,0.0,0.0,0.0,0.0,0.0,0.0,0.0,-2.4828,-2.627,-2.8555,-2.9641,-2.9496,-2.7736,-2.5577,0.0,0.0,0.0,0.0,0.0,0.0,0.0,0.0,0.0,0.0,0.0,0.0,0.0,0.0,0.0,0.0,0.0,0.0,0.0,0.0,0.0,0.0,0.0,0.0,0.0,0.0,0.0,0.0,0.0,0.0,0.0,0.0,0.0,0.0,0.0,0.0,0.0,0.0,0.0,0.0,0.0,0.0,0.0,0.0,0.0,0.0,0.0,0.0,-2.1424,0.0,0.0,0.0,0.0,0.0,0.0,0.0,0.0,0.0,0.0,0.0,0.0,0.0,0.0,0.0,0.0,0.0,0.0,0.0,0.0,0.0,0.0,0.0,0.0,0.0,0.0,0.0,0.0,0.0,0.0,0.0,0.0,0.0,0.0,0.0,0.0,0.0,0.0,0.0,0.0,0.0,0.0,0.0,0.0,0.0,0.0,0.0,0.0,0.0,0.0,0.0,0.0,0.0,0.0,0.0,0.0,0.0,0.0,0.0,-2.5511,-2.7476,-2.9124,-2.9984,-2.9919,-2.8379,-2.6488,0.0,0.0,0.0,0.0,0.0,0.0,0.0,0.0,0.0,0.0,0.0,0.0,0.0,0.0,0.0,0.0,0.0,0.0,0.0,0.0,0.0,0.0,0.0,0.0,0.0,0.0,0.0,0.0,0.0,0.0,0.0,0.0,0.0,0.0,0.0,0.0,0.0,0.0,0.0,0.0,0.0,0.0,0.0,0.0,0.0,0.0,0.0,0.0,0.0,0.0,0.0,0.0,0.0,0.0,0.0,0.0,0.0,0.0,0.0,0.0,0.0,0.0,0.0,0.0,0.0,0.0,0.0,0.0,0.0,0.0,0.0,0.0,0.0,0.0,0.0,0.0,0.0,0.0,0.0,0.0,0.0,0.0,0.0,0.0,0.0,0.0,0.0,0.0,0.0,0.0,0.0,0.0,0.0,0.0,0.0,0.0,0.0,0.0,0.0,0.0,0.0,0.0,0.0,0.0,0.0,0.0,0.0,-2.4037,-2.6094,-2.8589,-2.9721,-3.0182,-3.0051,-2.9029,-2.7536,-2.5623,0.0,0.0,0.0,0.0,0.0,0.0,0.0,0.0,0.0,0.0,0.0,0.0,0.0,0.0,0.0,0.0,0.0,0.0,0.0,0.0,0.0,0.0,0.0,0.0,0.0,0.0,0.0,0.0,0.0,0.0,0.0,0.0,0.0,0.0,0.0,0.0,0.0,0.0,-2.1121,-2.3237,0.0,0.0,0.0,0.0,0.0,0.0,0.0,0.0,-2.3998,0.0,0.0,0.0,0.0,0.0,0.0,0.0,0.0,0.0,0.0,0.0,0.0,0.0,0.0,0.0,0.0,0.0,0.0,0.0,0.0,0.0,0.0,0.0,0.0,0.0,0.0,0.0,0.0,0.0,0.0,0.0,0.0,0.0,0.0,0.0,0.0,0.0,0.0,0.0,0.0,0.0,0.0,0.0,0.0,0.0,0.0,0.0,0.0,0.0,0.0,0.0,0.0,0.0,0.0,0.0,0.0,-2.3167,-2.4281,-2.5922,-2.8167,-2.9683,-3.0146,-2.9558,-2.8948,-2.7623,-2.548,0.0,0.0,0.0,0.0,0.0,0.0,0.0,0.0,0.0,0.0,0.0,0.0,0.0,0.0,0.0,0.0,0.0,0.0,0.0,0.0,0.0,0.0,0.0,0.0,0.0,0.0,0.0,0.0,0.0,0.0,0.0,0.0,0.0,0.0,0.0,0.0,0.0,0.0,0.0,-2.6116,-2.7219,0.0,0.0,0.0,0.0,0.0,0.0,0.0,0.0,-2.4974,0.0,0.0,0.0,0.0,0.0,0.0,0.0,0.0,0.0,0.0,0.0,0.0,0.0,0.0,0.0,0.0,0.0,0.0,0.0,0.0,0.0,0.0,0.0,0.0,0.0,0.0,0.0,0.0,0.0,0.0,0.0,0.0,0.0,0.0,0.0,0.0,0.0,0.0,0.0,0.0,0.0,0.0,0.0,0.0,0.0,0.0,0.0,0.0,0.0,0.0,0.0,0.0,0.0,0.0,0.0,-2.2932,-2.457,-2.6463,-2.8695,-3.0085,-3.0406,-2.9599,-2.8407,-2.6894,0.0,0.0,0.0,0.0,0.0,0.0,0.0,0.0,0.0,0.0,0.0,0.0,0.0,0.0,0.0,0.0,0.0,0.0,0.0,0.0,0.0,0.0,0.0,0.0,0.0,0.0,0.0,0.0,0.0,0.0,0.0,0.0,0.0,0.0,0.0,0.0,0.0,0.0,0.0,0.0,-2.7459,-2.838,-2.8819,0.0,0.0,0.0,0.0,0.0,0.0,-2.713,-2.6903,0.0,0.0,0.0,0.0,0.0,0.0,0.0,0.0,0.0,0.0,0.0,0.0,0.0,0.0,0.0,0.0,0.0,0.0,0.0,0.0,0.0,0.0,0.0,0.0,0.0,0.0,0.0,0.0,0.0,0.0,0.0,0.0,0.0,0.0,0.0,0.0,0.0,0.0,0.0,0.0,0.0,0.0,0.0,0.0,0.0,0.0,0.0,0.0,0.0,0.0,0.0,0.0,0.0,0.0,0.0,-2.2717,-2.4908,-2.7181,-2.9476,-3.0611,-3.0717,-2.9786,-2.8169,-2.6387,0.0,0.0,0.0,0.0,0.0,0.0,0.0,0.0,0.0,0.0,0.0,0.0,0.0,0.0,0.0,0.0,0.0,0.0,0.0,0.0,0.0,0.0,0.0,0.0,0.0,0.0,0.0,0.0,0.0,0.0,0.0,0.0,0.0,0.0,0.0,0.0,0.0,0.0,0.0,0.0,0.0,-2.9888,-3.0129,-3.0125,0.0,0.0,0.0,0.0,-2.9591,-2.9646,0.0,0.0,0.0,0.0,0.0,0.0,0.0,0.0,0.0,0.0,0.0,0.0,0.0,0.0,0.0,0.0,0.0,0.0,0.0,0.0,0.0,0.0,0.0,0.0,0.0,0.0,0.0,0.0,0.0,0.0,0.0,0.0,0.0,0.0,0.0,0.0,0.0,0.0,0.0,0.0,0.0,0.0,0.0,0.0,0.0,0.0,0.0,0.0,0.0,0.0,0.0,0.0,0.0,0.0,0.0,0.0,-2.2841,-2.528,-2.767,-3.0017,-3.1113,-3.0988,-2.9762,-2.8923,-2.7143,0.0,0.0,0.0,0.0,0.0,0.0,0.0,0.0,0.0,0.0,0.0,0.0,0.0,0.0,0.0,0.0,0.0,0.0,0.0,0.0,0.0,0.0,0.0,0.0,0.0,0.0,0.0,0.0,0.0,0.0,0.0,0.0,0.0,0.0,0.0,0.0,0.0,0.0,0.0,0.0,0.0,-3.3284,-3.1336,-3.1699,-3.209,0.0,0.0,-3.1554,-3.2973,-3.3211,0.0,0.0,0.0,0.0,0.0,0.0,0.0,0.0,0.0,0.0,0.0,0.0,0.0,0.0,0.0,0.0,0.0,0.0,0.0,0.0,0.0,0.0,0.0,0.0,0.0,0.0,0.0,0.0,0.0,0.0,0.0,0.0,0.0,0.0,0.0,0.0,0.0,0.0,0.0,0.0,0.0,0.0,0.0,0.0,0.0,0.0,0.0,0.0,0.0,0.0,0.0,0.0,0.0,0.0,0.0,-2.0483,-2.315,-2.6109,-2.8545,-3.0381,-3.1515,-3.1393,-2.9969,-2.8505,-2.6489,0.0,0.0,0.0,0.0,0.0,0.0,0.0,0.0,0.0,0.0,0.0,0.0,0.0,0.0,0.0,0.0,0.0,0.0,0.0,0.0,0.0,0.0,0.0,0.0,0.0,0.0,0.0,0.0,0.0,0.0,0.0,0.0,0.0,0.0,0.0,0.0,0.0,0.0,0.0,0.0,0.0,0.0,-3.3445,-3.4252,0.0,0.0,0.0,-3.3887,-3.4403,0.0,0.0,0.0,0.0,0.0,0.0,0.0,0.0,0.0,0.0,0.0,0.0,0.0,0.0,0.0,0.0,0.0,0.0,0.0,0.0,0.0,0.0,0.0,0.0,0.0,0.0,0.0,0.0,0.0,0.0,0.0,0.0,0.0,0.0,0.0,0.0,0.0,0.0,0.0,0.0,0.0,0.0,0.0,0.0,0.0,0.0,0.0,0.0,0.0,0.0,0.0,0.0,0.0,0.0,0.0,0.0,0.0,-2.3794,-2.7075,-2.9535,-3.1081,-3.2068,-3.1874,-3.0421,-2.8443,0.0,0.0,0.0,0.0,0.0,0.0,0.0,0.0,0.0,0.0,0.0,0.0,0.0,0.0,0.0,0.0,0.0,0.0,0.0,0.0,0.0,0.0,0.0,0.0,0.0,0.0,0.0,-1.7147,0.0,0.0,0.0,0.0,0.0,0.0,0.0,0.0,0.0,0.0,0.0,0.0,0.0,0.0,-3.3234,-3.5151,-3.631,-3.6753,0.0,0.0,-3.6124,-3.6139,-3.5631,-3.467,0.0,0.0,0.0,0.0,0.0,0.0,0.0,0.0,0.0,0.0,0.0,0.0,0.0,0.0,0.0,0.0,0.0,0.0,0.0,0.0,0.0,0.0,0.0,0.0,0.0,0.0,0.0,0.0,0.0,0.0,0.0,0.0,0.0,0.0,0.0,0.0,0.0,0.0,0.0,0.0,0.0,0.0,0.0,0.0,0.0,0.0,0.0,0.0,0.0,0.0,0.0,0.0,0.0,0.0,0.0,-2.489,-2.8119,-3.0715,-3.2477,-3.2876,-3.248,-3.1235,-2.9519,-2.7154,0.0,0.0,0.0,0.0,0.0,0.0,0.0,0.0,0.0,0.0,0.0,0.0,0.0,0.0,0.0,0.0,0.0,0.0,0.0,0.0,0.0,0.0,0.0,0.0,0.0,0.0,0.0,0.0,0.0,0.0,0.0,0.0,0.0,0.0,0.0,0.0,0.0,0.0,0.0,0.0,0.0,-3.545,-3.5732,-3.7155,-3.8426,0.0,0.0,-3.8357,-3.9077,-3.9114,-3.7788,-3.3968,0.0,0.0,0.0,0.0,0.0,0.0,0.0,0.0,0.0,0.0,0.0,0.0,0.0,0.0,0.0,0.0,0.0,0.0,0.0,0.0,0.0,0.0,0.0,0.0,0.0,0.0,0.0,0.0,0.0,0.0,0.0,0.0,0.0,0.0,0.0,0.0,0.0,0.0,0.0,0.0,0.0,0.0,0.0,0.0,0.0,0.0,0.0,0.0,0.0,0.0,0.0,0.0,0.0,-2.2384,-2.6068,-2.8982,-3.1351,-3.3033,-3.335,-3.3068,-3.2231,-3.0625,-2.8493,0.0,0.0,0.0,0.0,0.0,0.0,0.0,0.0,0.0,0.0,0.0,0.0,0.0,0.0,0.0,0.0,0.0,0.0,0.0,0.0,0.0,0.0,0.0,0.0,0.0,0.0,0.0,0.0,-2.0014,-2.0391,-2.064,0.0,0.0,0.0,0.0,0.0,0.0,0.0,0.0,0.0,0.0,-3.6467,-3.808,-3.9762,0.0,0.0,-4.0915,-4.0698,-4.0303,-3.9414,-3.7892,-3.5284,-3.4003,0.0,0.0,0.0,0.0,0.0,0.0,0.0,0.0,0.0,0.0,0.0,0.0,0.0,0.0,0.0,0.0,0.0,0.0,0.0,0.0,0.0,0.0,0.0,0.0,0.0,0.0,0.0,0.0,0.0,0.0,0.0,0.0,0.0,0.0,0.0,0.0,0.0,0.0,0.0,0.0,0.0,0.0,0.0,0.0,0.0,0.0,0.0,0.0,0.0,0.0,0.0,0.0,-2.3221,-2.7012,-2.9647,-3.1828,-3.3552,-3.3716,-3.3508,-3.2876,-3.1321,-2.932,0.0,0.0,0.0,0.0,0.0,0.0,0.0,0.0,0.0,0.0,0.0,0.0,0.0,0.0,0.0,0.0,0.0,0.0,0.0,0.0,0.0,0.0,0.0,0.0,0.0,0.0,0.0,0.0,-2.1535,-2.1628,-2.0979,0.0,0.0,0.0,0.0,0.0,0.0,0.0,0.0,0.0,0.0,-3.7888,-4.0397,-4.1765,-4.2462,-4.2262,-4.2189,-4.1854,-4.1089,-4.0008,-3.8609,-3.6721,0.0,0.0,0.0,0.0,0.0,0.0,0.0,0.0,0.0,0.0,0.0,0.0,0.0,0.0,0.0,0.0,0.0,0.0,0.0,0.0,0.0,0.0,0.0,0.0,0.0,0.0,0.0,0.0,0.0,0.0,0.0,0.0,0.0,0.0,0.0,0.0,0.0,0.0,0.0,0.0,0.0,0.0,0.0,0.0,0.0,0.0,0.0,0.0,0.0,0.0,0.0,0.0,0.0,-2.4239,-2.7575,-3.0119,-3.2224,-3.3917,-3.3998,-3.3704,-3.3115,-3.1474,-2.9506,-2.7176,0.0,0.0,0.0,0.0,0.0,0.0,0.0,0.0,0.0,0.0,0.0,0.0,0.0,0.0,0.0,0.0,0.0,0.0,0.0,0.0,0.0,0.0,0.0,0.0,0.0,0.0,-2.1719,-2.1971,-2.1845,0.0,0.0,0.0,0.0,0.0,0.0,0.0,0.0,0.0,0.0,-3.7866,-3.989,-4.2354,-4.2794,-4.285,-4.2831,-4.2125,-4.1571,-4.1628,-4.1495,-4.0616,0.0,0.0,0.0,0.0,0.0,0.0,0.0,0.0,0.0,0.0,0.0,0.0,0.0,0.0,0.0,0.0,0.0,0.0,0.0,0.0,0.0,0.0,0.0,0.0,0.0,0.0,0.0,0.0,0.0,0.0,0.0,0.0,0.0,0.0,0.0,0.0,0.0,0.0,0.0,0.0,-2.6774,-2.8174,0.0,0.0,0.0,0.0,0.0,0.0,0.0,0.0,0.0,0.0,0.0,0.0,-2.574,-2.8552,-3.1065,-3.2915,-3.416,-3.4216,-3.4162,-3.4083,-3.3034,-3.1029,-2.8053,0.0,0.0,0.0,0.0,0.0,0.0,0.0,0.0,0.0,0.0,0.0,0.0,0.0,0.0,0.0,0.0,0.0,0.0,0.0,0.0,0.0,0.0,0.0,0.0,0.0,-2.205,0.0,0.0,0.0,0.0,0.0,0.0,0.0,0.0,0.0,0.0,0.0,-3.5878,-3.8667,-4.0482,-4.203,-4.3405,-4.4112,-4.4456,0.0,0.0,0.0,0.0,0.0,0.0,0.0,0.0,0.0,0.0,0.0,0.0,0.0,0.0,-4.0328,-3.5854,-3.4579,-3.4464,-3.534,0.0,0.0,0.0,0.0,0.0,0.0,0.0,0.0,0.0,0.0,0.0,0.0,0.0,0.0,0.0,0.0,-2.1867,0.0,0.0,0.0,0.0,0.0,0.0,0.0,0.0,-2.8828,-3.0333,-3.0746,-3.2125,-3.2369,0.0,-3.1046,-2.8748,0.0,0.0,0.0,0.0,0.0,0.0,0.0,0.0,-2.7239,-3.0027,-3.2284,-3.4032,-3.5189,-3.4983,-3.4922,-3.5015,-3.3723,-3.1673,-2.8839,-2.6336,-2.4638,0.0,0.0,0.0,0.0,0.0,0.0,0.0,0.0,0.0,0.0,0.0,0.0,0.0,0.0,0.0,0.0,0.0,0.0,0.0,0.0,0.0,0.0,0.0,-2.3248,0.0,0.0,0.0,0.0,0.0,0.0,0.0,0.0,0.0,-3.3665,-3.605,-3.8667,-4.0883,-4.2354,-4.352,-4.4341,0.0,0.0,0.0,0.0,0.0,0.0,0.0,-4.2298,-4.2049,-4.1552,-4.1208,-4.117,-4.2546,-4.3482,-4.2908,0.0,0.0,-3.9508,-3.8247,-3.8113,-3.8954,-3.8667,-3.8495,-3.9298,-3.947,-3.9546,0.0,0.0,0.0,0.0,0.0,0.0,0.0,0.0,-2.6333,-2.675,0.0,0.0,0.0,0.0,0.0,0.0,0.0,0.0,0.0,0.0,-3.4039,-3.5721,-3.5482,-3.6215,-3.6414,0.0,-3.6035,-3.4932,-3.2582,-2.712,0.0,0.0,0.0,0.0,0.0,0.0,-2.8745,-3.184,-3.3749,-3.5465,-3.6967,-3.6329,-3.5935,-3.5844,-3.3618,-3.1506,-2.9639,-2.882,-2.7311,-2.4989,-2.3817,0.0,0.0,0.0,0.0,0.0,0.0,0.0,0.0,0.0,0.0,0.0,0.0,0.0,0.0,0.0,0.0,0.0,0.0,0.0,0.0,-2.3795,0.0,0.0,0.0,0.0,0.0,0.0,0.0,0.0,0.0,0.0,-3.5935,-3.84,-4.1036,-4.266,0.0,0.0,0.0,0.0,-4.5335,-4.5335,-4.4666,-4.4209,-4.4249,-4.4152,-4.3846,-4.314,0.0,0.0,-4.3252,-4.4303,-4.4876,-4.331,-4.4399,-4.5373,-4.5258,-4.3749,-4.3004,-4.3749,-4.266,-4.2011,-4.2717,-4.2947,-4.3157,-3.1261,0.0,0.0,0.0,0.0,-2.9131,-3.03,-3.2191,-3.2213,-3.2039,-3.1638,-3.0938,0.0,0.0,0.0,0.0,0.0,0.0,-3.2762,-3.3921,-3.644,-3.7851,-3.8313,-3.9125,-3.9428,-3.9305,-3.8902,-3.8175,-3.7033,-3.4418,-3.0479,-2.5501,0.0,0.0,0.0,0.0,-3.1942,-3.3037,-3.5218,-3.661,-3.7103,-3.6873,-3.6531,-3.6056,-3.432,-3.3104,-3.2558,-3.057,-2.9153,-2.8414,-2.5939,0.0,0.0,0.0,0.0,0.0,0.0,0.0,0.0,0.0,0.0,0.0,0.0,0.0,0.0,0.0,0.0,0.0,0.0,0.0,-2.4106,-2.5304,-2.66,0.0,0.0,0.0,0.0,0.0,0.0,0.0,0.0,0.0,-4.1437,-4.2316,-4.3367,0.0,0.0,-4.501,-4.5258,-4.5774,-4.6156,-4.6156,0.0,0.0,0.0,-4.6194,-4.5948,-4.6353,-4.6851,-4.6983,-4.6443,-4.6768,-4.692,-4.6405,-4.6768,-4.7092,-4.6997,-4.5736,-4.4934,-4.5545,-4.5373,-4.5373,-4.6156,-4.6366,-4.6405,-3.6655,-3.3859,-3.2214,-3.2188,-3.3232,-3.3119,-3.4115,-3.5873,-3.6025,-3.5879,-3.5597,-3.5296,-3.407,-3.2082,-3.1679,0.0,0.0,0.0,-3.5999,-3.7076,-3.8885,-4.0087,-4.0712,-4.1167,-4.1503,-4.1662,-4.0989,-4.047,-4.0115,-3.9275,-3.6339,-3.1493,0.0,0.0,-2.8952,-3.2096,-3.4124,-3.4902,-3.6648,-3.7765,-3.8199,-3.7627,-3.6953,-3.6179,-3.5011,-3.4189,-3.3707,-3.2314,-3.1035,-3.0011,-2.8084,-2.599,0.0,0.0,0.0,0.0,0.0,0.0,0.0,0.0,0.0,0.0,0.0,-2.2432,-2.1467,0.0,0.0,0.0,-2.3334,-2.4853,-2.7472,-2.8714,0.0,0.0,0.0,0.0,0.0,0.0,0.0,-4.0291,-4.2259,-4.3864,-4.4857,-4.5316,-4.5717,-4.6233,-4.629,-4.629,-4.629,0.0,-4.7016,-4.7016,-4.7474,-4.7799,-4.7799,-4.736,-4.7226,-4.7767,-4.7843,-4.7862,-4.7799,-4.7799,-4.7799,-4.7799,-4.7799,-4.7799,-4.7799,-4.6959,-4.6405,-4.692,-4.7016,-4.7207,-4.7723,-4.7799,-4.7895,-4.1123,-4.0488,-3.688,-3.59,-3.672,-3.6809,-3.7249,-3.7974,-3.8419,-3.8741,-3.9065,-3.9443,-3.8758,-3.7275,-3.5848,0.0,0.0,-3.8003,-3.9132,-3.9969,-4.1437,-4.2301,-4.2643,-4.2637,-4.2876,-4.3278,-4.2527,-4.2198,-4.2198,-4.21,-4.0952,-3.8659,-3.5641,-3.3956,-3.3663,-3.4548,-3.5754,-3.7182,-3.8028,-3.892,-3.9878,-3.8404,-3.7217,-3.646,-3.5656,-3.4722,-3.3728,-3.3672,-3.2641,-3.0371,-2.9969,-2.8526,-2.5677,0.0,0.0,0.0,0.0,0.0,0.0,0.0,0.0,0.0,0.0,0.0,0.0,0.0,0.0,0.0,-2.7281,0.0,-3.158,-3.3242,0.0,0.0,0.0,-3.7234,-3.8266,-4.0406,-4.2163,-4.31,0.0,0.0,0.0,0.0,-4.7933,-4.799,-4.7895,-4.7799,-4.7799,-4.7837,-4.7914,-4.7914,-4.7971,-4.8028,-4.8162,-4.8086,-4.8105,-4.8162,-4.799,-4.8086,-4.8105,-4.8086,-4.8028,-4.8105,-4.8028,-4.8048,-4.8009,-4.8048,-4.8009,-4.8028,-4.7952,-4.7933,-4.8105,-4.8143,-4.8391,-4.2449,-4.2287,-4.1434,-4.054,-3.9731,-4.0323,-4.069,-4.0924,-4.1651,-4.1667,-4.1178,-4.1267,-4.0906,-4.0277,-3.989,-4.013,-4.0917,-4.1568,-4.2187,-4.2742,-4.3485,-4.3871,-4.3949,-4.4007,-4.4064,-4.4186,-4.398,-4.3914,-4.3867,-4.3296,-4.2706,-4.2071,-4.0867,-3.8582,-3.5525,-3.7527,-3.8502,-3.8256,-3.9238,-3.9852,-4.0082,-3.8618,-3.774,-3.7533,-3.5584,-3.4411,-3.4128,-3.2891,-3.1956,-3.1322,-3.0011,-2.866,-2.7351,-2.5043,0.0,0.0,0.0,0.0,0.0,0.0,0.0,0.0,0.0,-2.7338,-2.4148,0.0,-2.858,0.0,-3.2076,-3.3662,-3.4273,-3.5286,0.0,0.0,-3.9642,-4.0731,-4.4017,-4.4399,-4.4953,-4.6462,-4.7131,-4.7761,-4.8391,-4.8659,-4.9022,-4.9576,-4.8602,-4.7799,-4.7818,-4.8391,-4.8774,-4.8831,-4.927,-4.971,-4.9652,-4.971,-4.9671,-4.971,-4.9691,-4.971,-4.971,-4.971,-4.971,-4.971,-4.971,-4.971,-4.9691,-4.971,-4.971,-4.9671,-4.9232,-4.8984,-4.9576,-4.9691,-4.9786,-4.3385,-4.3553,-4.367,-4.3214,-4.2413,-4.2596,-4.2705,-4.276,-4.3361,-4.329,-4.2708,-4.2894,-4.2834,-4.2649,-4.263,-4.2883,-4.3304,-4.3519,-4.3799,-4.406,-4.4335,-4.444,-4.444,-4.4487,-4.4496,-4.4496,-4.4496,-4.4541,-4.4599,-4.4194,-4.4022,-4.4142,-4.3811,-4.225,-3.9629,-4.0589,-4.0855,-4.0331,-4.0673,-4.0684,-4.0319,-3.9196,-3.8439,-3.8001,-3.6363,-3.5256,-3.4846,-3.3537,-3.2615,-3.2237,-3.0968,-2.989,-2.9044,-2.7294,-2.5957,0.0,0.0,0.0,0.0,0.0,0.0,0.0,0.0,0.0,0.0,0.0,-3.1885,0.0,0.0,0.0,-3.7941,-3.9126,-4.0903,-4.3463,-4.3329,-4.4131,-4.6806,-4.6691,-4.692,-4.822,-4.8372,-4.8697,-4.95,-4.9614,-4.9786,-5.0225,-4.9519,-4.8926,-4.8945,-4.9347,-4.9633,-4.9652,-5.0015,-5.0302,-5.0302,-5.0302,-5.0302,-5.0302,-5.0302,-5.0302,-5.0302,-5.0302,-5.0302,-5.0302,-5.0302,-5.0455,-5.0799,-5.12,-5.1505,-5.1888,-5.1964,-5.1658,-5.1028,-5.0894,-5.1028,-4.4048,-4.4411,-4.4496,-4.4542,-4.4496,-4.4096,-4.3865,-4.3821,-4.4186,-4.4136,-4.3823,-4.4158,-4.4333,-4.4314,-4.4314,-4.4373,-4.4411,-4.4411,-4.444,-4.4515,-4.4496,-4.4496,-4.4551,-4.4551,-4.4551,-4.4605,-4.4587,-4.4688,-4.4839,-4.4858,-4.4957,-4.5189,-4.5227,-4.4842,-4.4075,-4.3407,-4.2909,-4.2512,-4.2101,-4.1574,-4.0881,-4.0082,-3.925,-3.8375,-3.73,-3.6253,-3.5239,-3.4455,-3.3641,-3.2788,-3.2179,-3.1506,-3.0756,-2.989,-2.9063,0.0,-2.8332,0.0,0.0,0.0,0.0,0.0,0.0,0.0,0.0,-3.4732,-3.5649,-3.691,-3.8706,-4.0425,-4.1839,-4.3405,-4.4953,-4.6462,-4.6672,-4.7016,-4.7837,-4.7971,-4.8296,-4.9156,-4.9251,-4.9538,-5.0168,-5.0378,-5.0474,-5.0531,-5.0646,-5.0627,-5.0588,-5.0397,-5.0245,-5.0302,-5.0302,-5.0302,-5.0302,-5.0302,-5.034,-5.0455,-5.0531,-5.0512,-5.0703,-5.0818,-5.0856,-5.0894,-5.1104,-5.1353,-5.1983,-5.269,-5.3339,-5.4008,-5.4619,-5.4428,-5.2766,-5.2251,-5.2575,-4.4266,-4.444,-4.4636,-4.4749,-4.4759,-4.487,-4.4701,-4.4337,-4.4458,-4.444,-4.4335,-4.4411,-4.4458,-4.4458,-4.4458,-4.4458,-4.4487,-4.4487,-4.4487,-4.4496,-4.4496,-4.4568,-4.472,-4.4745,-4.4843,-4.5071,-4.5052,-4.5084,-4.5109,-4.5122,-4.5163,-4.5207,-4.5362,-4.5276,0.0,0.0,0.0,0.0,-4.3043,-4.2916,-4.2723,-4.1319,-4.0133,-3.9243,-3.7035,0.0,-3.3658,-3.3342,-3.2825,-3.2004,-3.2403,0.0,0.0,0.0,0.0,0.0,0.0,0.0,0.0,0.0,0.0,0.0,-3.6201,-3.564,-3.5133,-3.8744,-4.0711,-3.9775,-4.2316,-4.4227,-4.4551,-4.5449,-4.6443,-4.7417,-4.757,-4.7895,-4.8735,-4.8831,-4.9175,-4.9958,-5.0073,-5.013,-5.0321,-5.0894,-5.1353,-5.1391,-5.1907,-5.2289,-5.227,-5.1181,-5.0359,-5.0302,-5.0417,-5.034,-5.0302,-5.0359,-5.0703,-5.1123,-5.1372,-5.1601,-5.2136,-5.2843,-5.332,-5.3263,-5.3951,-5.4333,-5.4581,-5.4811,-5.4868,-5.5135,-5.5307,-5.525,-5.4791,-5.4677,-5.4791,-4.4985,0.0,-4.5569,-4.5884,0.0,0.0,-4.631,-4.602,-4.52,-4.4857,-4.4857,-4.4857,-4.4857,-4.4857,-4.4857,-4.4857,-4.4857,-4.4857,-4.4857,-4.4838,-4.4857,-4.4887,-4.4988,-4.5007,-4.5074,-4.5201,-4.5201,-4.526,-4.5338,-4.5356,-4.54,-4.5514,-4.5621,-4.5592,-4.5507,-4.5688,-4.5181,-4.3962,-4.3943,-4.373,-4.3305,-4.2473,-4.1429,-4.0172,0.0,0.0,0.0,0.0,0.0,0.0,0.0,0.0,0.0,0.0,0.0,-3.4141,-3.4968,-3.5257,-3.4911,-3.6781,-3.8477,-3.9676,-4.0475,-4.0346,-3.9049,-4.1705,-4.3233,-4.287,-4.4704,-4.5889,-4.5927,-4.6653,-4.7513,-4.8315,-4.843,-4.8774,-4.9519,-4.9691,-4.9862,-5.0245,-5.0684,-5.0951,-5.0932,-5.1658,-5.2174,-5.2212,-5.2537,-5.2824,-5.2747,-5.2098,-5.1544,-5.1525,-5.1525,-5.1525,-5.1544,-5.1544,-5.162,-5.2098,-5.2193,-5.2346,-5.2728,-5.3168,-5.3454,-5.3492,-5.3836,-5.4218,-5.4715,-5.5078,-5.5517,-5.5938,-5.6339,-5.6606,-5.6606,-5.6301,-5.6262,-4.5979,-4.6732,-4.674,-4.7147,-4.775,-4.78,-4.7846,-4.7728,0.0,0.0,0.0,-4.564,-4.5545,-4.543,-4.5411,-4.5352,-4.5197,-4.5201,-4.5203,-4.5204,-4.5203,-4.5222,-4.5244,-4.5244,-4.5283,-4.5304,-4.5304,-4.54,-4.5524,-4.5553,-4.5626,-4.5786,-4.58,-4.58,-4.58,-4.58,-4.5471,-4.4852,-4.4813,-4.4465,-4.3769,-4.3595,-4.2802,-4.1274,-4.0945,-3.9985,-3.8279,-3.745,-3.6633,-3.5779,-3.52,-3.527,-3.6103,-3.6161,-3.6853,-3.8334,-3.9258,-3.9719,-3.9777,-4.1296,-4.228,-4.2364,-4.3579,-4.4019,-4.3311,-4.3864,-4.4571,-4.543,-4.6118,-4.6634,-4.692,-4.7589,-4.8372,-4.9213,-4.9308,-4.9576,-5.0187,-5.0302,-5.034,-5.0569,-5.1162,-5.1677,-5.1811,-5.2537,-5.3015,-5.3053,-5.3244,-5.3244,-5.3206,-5.2957,-5.2633,-5.2633,-5.2556,-5.2709,-5.2766,-5.2709,-5.2862,-5.2977,-5.3034,-5.3072,-5.3244,-5.3378,-5.3473,-5.376,-5.3569,-5.4161,-5.4734,-5.5517,-5.6052,-5.6683,-5.739,-5.7886,-5.7829,-5.7313,-5.7237,-4.7357,-4.7556,-4.7778,-4.7949,-4.8058,-4.8216,-4.8292,-4.8237,-4.7625,-4.7343,-4.7343,-4.7343,-4.6961,-4.6311,-4.633,-4.59,-4.5194,-4.5194,-4.5186,0.0,-4.5206,-4.5303,-4.5454,-4.5454,-4.5541,-4.5708,-4.5703,-4.5737,-4.5752,-4.5761,-4.5771,-4.58,-4.58,-4.58,-4.58,-4.58,-4.5742,-4.5645,-4.5626,-4.5587,-4.5432,-4.4775,-4.3962,-4.2976,-4.1564,-3.9978,-3.8284,-3.8105,-3.7597,-3.6767,-3.7237,-3.793,-3.8686,-3.8753,-3.9181,-4.0104,-4.0969,-4.145,-4.147,-4.3008,-4.4241,-4.4917,-4.5132,-4.517,-4.5053,-4.5069,-4.5449,-4.6233,-4.6462,-4.7131,-4.8487,-4.8812,-4.9213,-4.9958,-5.0111,-5.0206,-5.034,-5.0359,-5.0627,-5.1334,-5.1525,-5.1945,-5.2594,-5.3378,-5.3913,-5.4027,-5.4371,-5.4944,-5.4658,-5.3741,-5.29,-5.2785,-5.2785,-5.2785,-5.2977,-5.2805,-5.3206,-5.3817,-5.3913,-5.4123,-5.4715,-5.5269,-5.5613,-5.5938,-5.6205,-5.6778,-5.7084,-5.7447,-5.7332,-5.7428,-5.7581,-5.7734,-5.7695,-5.7562,-5.7657,-4.8316,-4.8758,-4.8943,-4.9215,-4.9623,-4.9765,-4.9809,-4.9792,-4.9597,-4.8948,-4.8103,-4.8084,-4.7873,-4.7545,-4.7545,-4.7317,-4.6915,-4.645,-4.6482,-4.6841,-4.5945,-4.5828,-4.6294,-4.5889,-4.5703,-4.58,-4.58,-4.58,-4.58,-4.58,-4.58,-4.58,-4.58,-4.58,-4.58,-4.58,-4.58,-4.58,-4.58,-4.58,-4.578,-4.5432,-4.4852,-4.404,-4.3227,-4.228,-4.1023,-4.0939,-4.0507,-3.965,-3.9962,-4.0318,-4.0635,-4.0658,-4.1027,-4.1854,-4.2681,-4.3162,-4.3143,-4.4297,-4.5163,-4.5493,-4.5476,-4.5611,-4.607,-4.5988,-4.6099,-4.6519,-4.7322,-4.822,-4.9022,-4.948,-4.9901,-5.0264,-5.0302,-5.0493,-5.0913,-5.1009,-5.1353,-5.2136,-5.269,-5.3091,-5.3454,-5.4276,-5.4811,-5.4849,-5.5193,-5.5403,-5.5403,-5.4753,-5.4199,-5.4199,-5.4218,-5.4218,-5.4199,-5.4199,-5.439,-5.4772,-5.4811,-5.4982,-5.5365,-5.5766,-5.5919,-5.5957,-5.632,-5.6511,-5.6568,-5.6549,-5.6549,-5.653,-5.6549,-5.6549,-5.6549,-5.6549,-5.6855,-4.9397,-5.0016,-5.0031,-5.0418,-5.0979,-5.1017,-5.1042,-5.1043,-5.103,-5.0267,-4.9102,-4.8967,-4.8875,-4.8701,-4.8682,-4.8585,-4.8329,-4.7695,-4.7753,-4.8213,-4.6999,-4.6748,-4.7289,-4.6689,-4.6283,-4.6109,-4.609,-4.5993,-4.5819,-4.58,-4.58,-4.58,-4.58,-4.58,-4.58,-4.58,-4.58,-4.58,-4.58,-4.58,-4.5838,-4.5819,-4.549,-4.4968,-4.4697,-4.4311,-4.3653,-4.3395,-4.2957,-4.2311,-4.2259,-4.2309,-4.2454,-4.2459,-4.283,-4.3674,-4.4311,-4.4677,-4.47,-4.5247,-4.5712,-4.5888,-4.5764,-4.6052,-4.6856,-4.7061,-4.7092,-4.7226,-4.8296,-4.9117,-4.9423,-4.9901,-5.0302,-5.0302,-5.0493,-5.0875,-5.1486,-5.1754,-5.2193,-5.2996,-5.3683,-5.4123,-5.4467,-5.4982,-5.5326,-5.5345,-5.5403,-5.5403,-5.5403,-5.5403,-5.5403,-5.5403,-5.5403,-5.5307,-5.5403,-5.5326,-5.5326,-5.5403,-5.5365,-5.5345,-5.5403,-5.5403,-5.5403,-5.546,-5.5441,-5.5556,-5.546,-5.546,-5.5517,-5.5575,-5.5613,-5.5517,-5.5556,-5.5556,-5.5785,-5.0867,-5.0983,-5.0999,-5.1099,-5.1155,-5.1183,-5.1177,-5.1185,-5.1187,-5.1074,-5.0767,-5.071,-5.0229,-4.9629,-4.9591,-4.9204,-4.8512,-4.8333,-4.8353,-4.8435,-4.8256,-4.8198,-4.8275,-4.8159,-4.7734,-4.7057,-4.698,-4.6612,-4.5974,-4.5858,-4.5819,-4.58,-4.58,-4.5819,-4.58,-4.5819,-4.58,-4.58,-4.58,-4.5838,-4.5969,-4.5858,-4.58,-4.5877,-4.5098,-4.4672,-4.457,-4.3862,-4.3451,-4.3354,-4.3365,-4.3685,-4.4297,-4.4413,-4.4771,-4.5517,-4.5692,-4.575,-4.5739,-4.5777,-4.6066,-4.6677,-4.6645,-4.6933,-4.7714,-4.8417,-4.885,-4.885,-4.9003,-4.9442,-5.0073,-5.0264,-5.0321,-5.0455,-5.1009,-5.1525,-5.1754,-5.227,-5.3015,-5.3874,-5.4123,-5.439,-5.5059,-5.5326,-5.5384,-5.5403,-5.5403,-5.5403,-5.5403,-5.5403,-5.5403,-5.5403,-5.5403,-5.5403,-5.5403,-5.5403,-5.5403,-5.5403,-5.5403,-5.5403,-5.5403,-5.5403,-5.5403,-5.5403,-5.5403,-5.5403,-5.5403,-5.5403,-5.5403,-5.5403,-5.5403,-5.5403,-5.5403,-5.5486,-5.5734,-5.116,-5.1152,-5.1197,-5.1217,-5.1215,-5.121,-5.121,-5.1211,-5.121,-5.1183,-5.1152,-5.1109,-5.0856,-5.0538,-5.0461,-5.0248,-4.9977,-4.9436,-4.9455,-4.973,-4.8875,-4.8662,-4.9088,-4.8624,-4.8198,-4.7889,-4.785,-4.7715,-4.7361,-4.6897,-4.6413,-4.6027,-4.5935,-4.5935,-4.5969,-4.5988,-4.5988,-4.5988,-4.5988,-4.6027,-4.6085,-4.5988,-4.5988,-4.6007,-4.5717,-4.5525,-4.5502,-4.5196,-4.5017,-4.4982,-4.4995,-4.5104,-4.5395,-4.5405,-4.555,-4.5861,-4.5899,-4.5899,-4.5899,-4.6344,-4.6698,-4.692,-4.7276,-4.7856,-4.8518,-4.8933,-4.927,-4.9729,-4.9824,-4.9977,-5.0264,-5.0302,-5.0493,-5.0971,-5.141,-5.1964,-5.2996,-5.3359,-5.3894,-5.4715,-5.4868,-5.4963,-5.5307,-5.5403,-5.5403,-5.5403,-5.5403,-5.5403,-5.5403,-5.5403,-5.5403,-5.5403,-5.5403,-5.5403,-5.5403,-5.5403,-5.5403,-5.5403,-5.5403,-5.5403,-5.5403,-5.5403,-5.5403,-5.5403,-5.5403,-5.5403,-5.5403,-5.5403,-5.5403,-5.5384,-5.5403,-5.5409,-5.5495,-5.5921,-5.6237,-5.1224,-5.1234,-5.1249,-5.126,-5.1242,-5.1258,-5.1258,-5.1265,-5.1249,-5.1249,-5.1238,-5.1217,-5.1214,-5.113,-5.1034,-5.1053,-5.1022,-5.0422,-5.0422,-5.0809,-4.9707,-4.9494,-4.9977,-4.9494,-4.903,-4.8817,-4.8798,-4.872,-4.8512,-4.7934,-4.7204,-4.6538,-4.6397,-4.6298,-4.6111,-4.6111,-4.6111,-4.6123,-4.6111,-4.6145,-4.6176,-4.6104,-4.6074,-4.6113,-4.6125,-4.6118,-4.6143,-4.6144,-4.6153,-4.6072,-4.6091,-4.606,-4.6005,-4.6005,-4.6005,-4.6005,-4.6005,-4.6122,-4.6336,-4.692,-4.7372,-4.7685,-4.824,-4.8797,-4.9373,-4.9518,-4.972,-5.0237,-5.0516,-5.0665,-5.0665,-5.0665,-5.1028,-5.1792,-5.2098,-5.2843,-5.3874,-5.4256,-5.4696,-5.5288,-5.5307,-5.5403,-5.5403,-5.5403,-5.5403,-5.5403,-5.5403,-5.5403,-5.5403,-5.5403,-5.5403,-5.5403,-5.5403,-5.5403,-5.5403,-5.5403,-5.5403,-5.5409,-5.5409,-5.5465,-5.546,-5.546,-5.5495,-5.5547,-5.5514,-5.5514,-5.5547,-5.5523,-5.5495,-5.5495,-5.5557,-5.5696,-5.6044,-5.6588,-5.7037,-5.1308,-5.1296,-5.1359,-5.1389,-5.1394,-5.1394,-5.1394,-5.1375,-5.1402,-5.1365,-5.1307,-5.131,-5.1292,-5.1285,-5.1208,-5.1197,-5.1184,-5.1111,-5.1072,-5.1169,-5.1018,-5.1003,-5.1041,-5.1041,-5.0592,-4.979,-4.9809,-4.9427,-4.8695,-4.8574,-4.8117,-4.7391,-4.734,-4.6941,-4.6364,-4.6247,-4.613,-4.6227,-4.6169,-4.6144,-4.617,-4.6201,-4.6202,-4.6186,-4.6201,-4.6177,-4.6208,-4.6248,-4.6273,-4.63,-4.6253,-4.6273,-4.6273,-4.6273,-4.6269,-4.6273,-4.6292,-4.6644,-4.7313,-4.7447,-4.8001,-4.9279,-4.948,-4.9804,-5.0371,-5.0375,-5.041,-5.0525,-5.1101,-5.1472,-5.1639,-5.1582,-5.1888,-5.2671,-5.3454,-5.3894,-5.4104,-5.483,-5.5269,-5.5384,-5.5403,-5.5403,-5.5403,-5.5403,-5.5403,-5.5403,-5.5403,-5.5403,-5.5403,-5.5403,-5.5403,-5.5403,-5.5403,-5.5384,-5.5403,-5.5434,-5.5409,-5.5465,-5.5547,-5.5596,-5.5615,-5.5596,-5.5665,-5.5688,-5.5621,-5.5643,-5.5749,-5.5769,-5.573,-5.5767,-5.5882,-5.6096,-5.6599,-5.6946,-5.7545,-5.1361,-5.1372,-5.1384,-5.1394,-5.1394,-5.1394,-5.1394,-5.1394,-5.1394,-5.1385,-5.1363,-5.1367,-5.1362,-5.1347,-5.1327,-5.1303,-5.1271,-5.1219,-5.1208,-5.1208,-5.1208,-5.1189,-5.1178,-5.1184,-5.1062,-5.075,-5.0703,-5.0312,-4.9567,-4.9497,-4.9118,-4.8482,-4.8293,-4.8135,-4.7842,-4.733,-4.7057,-4.7018,-4.6529,-4.6222,-4.6274,-4.6259,-4.627,-4.627,-4.6253,-4.627,-4.627,-4.629,-4.6297,-4.63,-4.63,-4.63,-4.63,-4.63,-4.63,-4.6339,-4.6827,-4.7249,-4.7601,-4.849,-4.9187,-4.9664,-5.024,-5.0503,-5.0656,-5.0662,-5.0818,-5.1257,-5.1521,-5.2066,-5.2886,-5.2709,-5.2709,-5.3492,-5.3913,-5.4352,-5.483,-5.5212,-5.5403,-5.5403,-5.5403,-5.5403,-5.5403,-5.5403,-5.5403,-5.5403,-5.5403,-5.5422,-5.5403,-5.5403,-5.5441,-5.5428,-5.5465,-5.5542,-5.5523,-5.5523,-5.5547,-5.5621,-5.5708,-5.5729,-5.5729,-5.5729,-5.5769,-5.5808,-5.5769,-5.5769,-5.5865,-5.6019,-5.5981,-5.6039,-5.6154,-5.6847,-5.7135,-5.7889,-5.866,-5.1771,-5.1736,-5.1474,-5.1391,-5.1391,-5.1391,-5.1385,-5.1394,-5.1394,-5.1394,-5.1398,-5.1385,-5.1394,-5.1394,-5.1388,-5.1382,-5.1328,-5.1277,-5.1269,-5.1269,-5.1249,-5.1249,-5.1245,-5.1244,-5.1242,-5.1229,-5.1258,-5.0965,-5.053,-5.0461,-5.0058,-4.9355,-4.9283,-4.9127,-4.8865,-4.8319,-4.8024,-4.7868,-4.7166,-4.6741,-4.6698,-4.6435,-4.6302,-4.63,-4.6301,-4.6287,-4.6288,-4.6301,-4.6293,-4.6303,-4.63,-4.63,-4.63,-4.6573,-4.6706,-4.6757,-4.7498,-4.8113,-4.8373,-4.9352,-5.0014,-5.0192,-5.0675,-5.1,-5.0867,-5.1048,-5.1427,-5.1876,-5.245,-5.3111,-5.3785,-5.3847,-5.3894,-5.4409,-5.4524,-5.4753,-5.5307,-5.5384,-5.5403,-5.5403,-5.5403,-5.5403,-5.5403,-5.5403,-5.5403,-5.5403,-5.5403,-5.5479,-5.5728,-5.5804,-5.5944,-5.6212,-5.6424,-5.6624,-5.6767,-5.6926,-5.615,-5.6058,-5.6077,-5.6038,-5.6076,-5.6018,-5.6017,-5.5977,-5.5956,-5.5919,-5.6033,-5.6225,-5.6341,-5.6401,-5.7091,-5.7912,-5.8435,-5.9097,-5.9695,-5.2531,-5.2485,-5.1678,-5.1425,-5.1484,-5.1423,-5.1377,-5.1381,-5.139,-5.1371,-5.1371,-5.1382,-5.1426,-5.1465,-5.1445,-5.1406,-5.1523,-5.1445,-5.1387,-5.1367,-5.1387,-5.1348,-5.1289,-5.1366,-5.1353,-5.1309,-5.1362,-5.1367,-5.1269,-5.1229,-5.0879,-5.0312,-5.0195,-4.9859,-4.8984,-4.9012,-4.8915,-4.8724,-4.8055,-4.7608,-4.7512,-4.6895,-4.6563,-4.6473,-4.6485,-4.6507,-4.6438,-4.6348,-4.6303,-4.63,-4.63,-4.63,-4.6495,-4.7057,-4.7518,-4.7635,-4.8312,-4.9133,-4.9761,-4.9934,-5.0393,-5.0869,-5.1147,-5.1198,-5.1367,-5.1779,-5.2186,-5.2589,-5.3417,-5.4293,-5.4399,-5.4814,-5.5154,-5.5365,-5.5224,-5.5262,-5.5339,-5.5377,-5.5377,-5.5377,-5.5351,-5.5377,-5.5377,-5.5377,-5.5396,-5.5536,-5.5575,-5.5861,-5.6454,-5.6652,-5.7035,-5.7642,-5.772,-5.7658,-5.8123,-5.8441,-5.7367,-5.6539,-5.6532,-5.6543,-5.6698,-5.6717,-5.6866,-5.6862,-5.6846,-5.6846,-5.6974,-5.7183,-5.7392,-5.762,-5.8367,-5.8862,-5.9371,-5.9882,-6.0334,-5.3346,-5.3238,-5.2481,-5.2136,-5.2068,-5.1536,-5.1259,-5.1284,-5.1261,-5.1271,-5.1283,-5.132,-5.166,-5.1992,-5.168,-5.1738,-5.2226,-5.1699,-5.1387,-5.1406,-5.1387,-5.1387,-5.1367,-5.1382,-5.1396,-5.1367,-5.14,-5.1387,-5.1387,-5.14,-5.1223,-5.1074,-5.1016,-5.0898,-5.0535,-5.011,-4.977,-4.9638,-4.8899,-4.8493,-4.8476,-4.8223,-4.8047,-4.8024,-4.8021,-4.8021,-4.7966,-4.6908,-4.6319,-4.6339,-4.63,-4.6554,-4.7116,-4.7396,-4.7791,-4.8404,-4.9166,-4.9664,-4.9954,-5.0481,-5.0879,-5.1139,-5.1214,-5.1494,-5.1921,-5.2227,-5.282,-5.3642,-5.4338,-5.4651,-5.4963,-5.5161,-5.5301,-5.5214,-5.5168,-5.5159,-5.5076,-5.5047,-5.5047,-5.5066,-5.5066,-5.5095,-5.5159,-5.5233,-5.5527,-5.6083,-5.6205,-5.6549,-5.7263,-5.7583,-5.7676,-5.8054,-5.8252,-5.8664,-5.8966,-5.92,-5.868,-5.7896,-5.7692,-5.7373,-5.745,-5.7523,-5.7649,-5.7702,-5.7693,-5.7746,-5.789,-5.8137,-5.835,-5.8648,-5.9163,-5.9614,-6.0026,-6.0441,-6.0838,-5.4097,-5.4007,-5.3222,-5.2913,-5.2908,-5.2347,-5.2138,-5.2136,-5.2135,-5.2124,-5.2154,-5.2185,-5.2469,-5.2827,-5.2479,-5.2394,-5.2578,-5.207,-5.168,-5.1445,-5.1387,-5.1387,-5.1387,-5.1384,-5.1402,-5.1384,-5.1386,-5.1387,-5.1387,-5.1394,-5.1385,-5.1381,-5.1385,-5.1363,-5.1366,-5.091,-5.0614,-5.0457,-4.9751,-4.9341,-4.9286,-4.9032,-4.8837,-4.8798,-4.8798,-4.8798,-4.872,-4.7744,-4.7237,-4.7237,-4.7229,-4.7518,-4.8021,-4.8287,-4.8672,-4.9223,-4.994,-5.0432,-5.0451,-5.0888,-5.1208,-5.1214,-5.1202,-5.1559,-5.2258,-5.2615,-5.3494,-5.4491,-5.5009,-5.5268,-5.5465,-5.5461,-5.5339,-5.5083,-5.5038,-5.5,-5.4901,-5.4901,-5.4901,-5.4931,-5.4901,-5.496,-5.5019,-5.5389,-5.5693,-5.6404,-5.6874,-5.743,-5.8151,-5.8573,-5.8742,-5.9044,-5.9534,-5.976,-5.9727,-5.9808,-5.9852,-5.943,-5.9041,-5.8595,-5.8362,-5.8342,-5.8414,-5.8376,-5.8362,-5.8304,-5.8447,-5.8991,-5.9341,-5.9677,-5.9954,-6.039,-6.0767,-6.0854,-6.1113,-5.4881,-5.4754,-5.3928,-5.365,-5.3727,-5.3606,-5.3478,-5.358,-5.3572,-5.3507,-5.353,-5.3441,-5.3631,-5.3731,-5.3554,-5.3273,-5.2832,-5.2539,-5.2168,-5.168,-5.1465,-5.1387,-5.1387,-5.1394,-5.1385,-5.1385,-5.1402,-5.1387,-5.1386,-5.1391,-5.1394,-5.1402,-5.1394,-5.1398,-5.1372,-5.1363,-5.1297,-5.1141,-5.0555,-5.0184,-5.0126,-4.9481,-4.9072,-4.9111,-4.913,-4.915,-4.9169,-4.9029,-4.8873,-4.8794,-4.8582,-4.8625,-4.8944,-4.9581,-4.9815,-4.9975,-5.0763,-5.1044,-5.1156,-5.1125,-5.1183,-5.119,-5.1346,-5.1605,-5.2492,-5.3333,-5.4114,-5.4986,-5.5526,-5.5825,-5.5808,-5.5728,-5.5466,-5.5072,-5.4903,-5.4841,-5.4871,-5.4841,-5.481,-5.486,-5.4871,-5.4928,-5.5023,-5.5629,-5.6147,-5.6816,-5.7516,-5.8317,-5.9168,-5.9675,-6.0132,-6.0422,-6.0571,-6.0638,-6.0507,-6.0541,-6.0584,-6.0409,-6.0099,-5.9788,-5.9438,-5.9399,-5.9419,-5.9341,-5.9166,-5.9069,-5.9244,-5.9865,-6.0176,-6.0318,-6.0692,-6.1171,-6.1278,-6.1208,-6.1173,-5.57,-5.5584,-5.4796,-5.4486,-5.4407,-5.3848,-5.3558,-5.3544,-5.3578,-5.3672,-5.3575,-5.3614,-5.4049,-5.4474,-5.3994,-5.392,-5.3961,-5.3117,-5.256,-5.2214,-5.164,-5.1418,-5.1394,-5.1394,-5.1385,-5.1398,-5.1389,-5.1398,-5.1386,-5.1391,-5.1394,-5.1394,-5.1398,-5.1382,-5.1402,-5.1398,-5.1394,-5.1394,-5.1219,-5.1023,-5.0984,-5.0809,-5.0731,-5.0731,-5.0653,-5.0653,-5.0688,-5.0713,-5.004,-4.8889,-4.8806,-4.91,-4.9639,-4.9893,-5.0228,-5.0753,-5.1014,-5.1206,-5.1202,-5.1159,-5.1127,-5.1185,-5.1658,-5.2388,-5.3208,-5.4081,-5.4905,-5.561,-5.5988,-5.5958,-5.575,-5.5668,-5.5384,-5.4933,-5.4754,-5.4571,-5.4576,-5.4543,-5.4524,-5.4543,-5.4557,-5.4867,-5.5454,-5.5914,-5.6656,-5.7882,-5.862,-5.9134,-5.9973,-6.0459,-6.0769,-6.09,-6.1065,-6.1225,-6.1289,-6.1308,-6.1283,-6.1206,-6.105,-6.0934,-6.074,-6.0701,-6.0759,-6.0778,-6.0429,-6.0254,-6.0545,-6.0992,-6.105,-6.0875,-6.105,-6.1294,-6.1261,-6.1208,-6.1155,-5.5995,-5.5958,-5.5494,-5.5305,-5.5249,-5.4763,-5.4353,-5.4158,-5.4426,-5.4329,-5.4194,-5.4465,-5.489,-5.5277,-5.4892,-5.474,-5.4768,-5.363,-5.2921,-5.245,-5.1748,-5.1425,-5.1389,-5.1385,-5.1385,-5.1394,-5.1394,-5.1385,-5.1396,-5.1385,-5.1394,-5.1394,-5.1394,-5.1394,-5.1394,-5.1394,-5.1394,-5.1394,-5.1394,-5.1394,-5.1394,-5.1394,-5.1386,-5.1401,-5.1401,-5.1396,-5.1341,-5.1343,-5.0823,-5.0063,-4.9873,-5.0046,-5.0438,-5.0481,-5.0683,-5.1189,-5.1214,-5.1183,-5.1159,-5.1127,-5.127,-5.1587,-5.2084,-5.2889,-5.3843,-5.4618,-5.5184,-5.5888,-5.6026,-5.5938,-5.5789,-5.567,-5.5455,-5.5212,-5.4905,-5.4642,-5.4458,-5.4443,-5.4409,-5.4443,-5.4543,-5.4937,-5.5895,-5.633,-5.7443,-5.8716,-5.9505,-6.008,-6.0685,-6.1003,-6.1171,-6.1223,-6.1252,-6.1318,-6.1386,-6.1386,-6.14,-6.14,-6.14,-6.14,-6.14,-6.14,-6.1361,-6.1303,-6.1361,-6.14,-6.14,-6.1386,-6.1308,-6.1201,-6.131,-6.1297,-6.1245,-6.1191,-6.1117,-5.5996,-5.5999,-5.5999,-5.6,-5.5962,-5.5961,-5.5474,-5.5139,-5.5548,-5.5509,-5.5142,-5.5664,-5.5818,-5.6012,-5.5758,-5.5623,-5.5042,-5.4258,-5.336,-5.2668,-5.1952,-5.1577,-5.1394,-5.1389,-5.1385,-5.1402,-5.1398,-5.1394,-5.1398,-5.1394,-5.1394,-5.1394,-5.1394,-5.1394,-5.1394,-5.1394,-5.1394,-5.1394,-5.1394,-5.139,-5.1386,-5.1386,-5.1396,-5.1375,-5.1369,-5.1356,-5.1289,-5.1273,-5.1176,-5.1265,-5.1249,-5.1094,-5.1142,-5.1167,-5.1163,-5.1163,-5.1171,-5.1139,-5.1153,-5.1237,-5.1535,-5.2109,-5.2443,-5.3126,-5.4413,-5.492,-5.5349,-5.5954,-5.6012,-5.5975,-5.5958,-5.5789,-5.5628,-5.55,-5.5317,-5.5026,-5.4629,-5.4472,-5.4472,-5.4543,-5.4742,-5.5367,-5.6206,-5.7168,-5.8245,-5.9428,-6.0133,-6.0481,-6.0864,-6.1098,-6.1225,-6.1275,-6.1287,-6.1318,-6.1352,-6.1405,-6.14,-6.14,-6.14,-6.14,-6.14,-6.14,-6.14,-6.14,-6.14,-6.14,-6.14,-6.1386,-6.1371,-6.1356,-6.131,-6.1261,-6.1227,-6.1155,-6.1099,-5.5995,-5.5995,-5.5995,-5.6014,-5.5996,-5.5995,-5.5898,-5.5722,-5.5896,-5.5857,-5.578,-5.5935,-5.6051,-5.607,-5.6078,-5.599,-5.5748,-5.5022,-5.4051,-5.2662,-5.2484,-5.1948,-5.16,-5.1542,-5.1441,-5.142,-5.1385,-5.1394,-5.1394,-5.1394,-5.1394,-5.1394,-5.1394,-5.1394,-5.1394,-5.139,-5.1394,-5.1394,-5.1394,-5.1401,-5.1386,-5.138,-5.1369,-5.1335,-5.1328,-5.1273,-5.1239,-5.123,-5.1201,-5.1219,-5.121,-5.12,-5.1217,-5.1214,-5.1171,-5.1127,-5.1127,-5.1114,-5.1211,-5.1629,-5.2104,-5.2395,-5.3429,-5.4404,-5.4694,-5.541,-5.5741,-5.6012,-5.6012,-5.6012,-5.5995,-5.5958,-5.5827,-5.567,-5.5544,-5.5389,-5.5115,-5.5026,-5.4971,-5.5121,-5.5652,-5.6431,-5.7232,-5.8077,-5.9077,-6.0133,-6.0558,-6.0841,-6.1002,-6.1173,-6.1225,-6.1278,-6.1326,-6.1322,-6.1318,-6.1386,-6.14,-6.14,-6.14,-6.14,-6.14,-6.14,-6.14,-6.14,-6.14,-6.14,-6.14,-6.14,-6.1386,-6.1341,-6.131,-6.1261,-6.121,-6.1137,-6.1099,-5.5768,-5.5788,-5.5866,-5.5902,-5.5917,-5.5973,-5.5763,-5.5569,-5.5857,-5.578,-5.5586,-5.5813,-5.6065,-5.6106,-5.6141,-5.6162,-5.603,-5.5441,-5.445,-5.3435,-5.3195,-5.2974,-5.2708,-5.2462,-5.2281,-5.1601,-5.1386,-5.1398,-5.1402,-5.1394,-5.1394,-5.1394,-5.1394,-5.1394,-5.139,-5.1386,-5.1396,-5.1391,-5.1361,-5.1369,-5.1356,-5.1349,-5.1328,-5.1267,-5.1249,-5.122,-5.1208,-5.1208,-5.1217,-5.1194,-5.1175,-5.1186,-5.1163,-5.1171,-5.1127,-5.1095,-5.1102,-5.1075,-5.1247,-5.1814,-5.2457,-5.2853,-5.4094,-5.4832,-5.5277,-5.5799,-5.5954,-5.6012,-5.6012,-5.6012,-5.6012,-5.6012,-5.5902,-5.5846,-5.5769,-5.5711,-5.5566,-5.5384,-5.5193,-5.5415,-5.602,-5.6937,-5.7843,-5.8736,-5.9681,-6.0571,-6.0766,-6.1002,-6.1002,-6.1155,-6.1173,-6.1245,-6.1278,-6.131,-6.1302,-6.1352,-6.1386,-6.14,-6.14,-6.14,-6.14,-6.14,-6.14,-6.14,-6.14,-6.14,-6.14,-6.1419,-6.1391,-6.1345,-6.1297,-6.1245,-6.1191,-6.1117,-6.1099,-5.5523,-5.5527,-5.5703,-5.575,-5.5764,-5.5863,-5.5592,-5.5183,-5.5685,-5.5683,-5.5233,-5.5816,-5.6126,-5.6149,-5.6193,-5.622,-5.6038,-5.5473,-5.4634,-5.4192,-5.4095,-5.3888,-5.3767,-5.3696,-5.3299,-5.1877,-5.1732,-5.166,-5.1437,-5.1389,-5.1394,-5.1385,-5.1385,-5.1382,-5.1394,-5.1396,-5.138,-5.1369,-5.1323,-5.13,-5.1273,-5.1273,-5.1267,-5.122,-5.1208,-5.1194,-5.1183,-5.1183,-5.119,-5.1178,-5.1146,-5.1146,-5.1127,-5.1127,-5.1082,-5.1082,-5.1062,-5.117,-5.147,-5.2094,-5.2891,-5.3633,-5.4503,-5.5238,-5.5818,-5.5954,-5.5993,-5.6012,-5.6012,-5.6012,-5.6012,-5.6012,-5.6012,-5.5975,-5.5975,-5.6012,-5.594,-5.5585,-5.5431,-5.5523,-5.6313,-5.7266,-5.8196,-5.9106,-6.0075,-6.0886,-6.1021,-6.1099,-6.1099,-6.1099,-6.1155,-6.121,-6.1261,-6.1326,-6.1337,-6.1352,-6.1386,-6.1386,-6.1386,-6.1386,-6.14,-6.14,-6.14,-6.14,-6.14,-6.14,-6.1386,-6.1366,-6.1356,-6.1314,-6.1281,-6.1227,-6.1155,-6.1099,-6.1099,-5.5523,-5.5504,-5.5527,-5.5553,-5.5555,-5.5591,-5.5612,-5.5668,-5.5806,-5.5932,-5.5878,-5.6082,-5.6193,-5.6259,-5.6283,-5.6359,-5.6202,-5.5667,-5.518,-5.4983,-5.4963,-5.4749,-5.4348,-5.4707,-5.4359,-5.3546,-5.2858,-5.224,-5.1618,-5.1385,-5.1484,-5.1425,-5.1386,-5.1402,-5.1385,-5.1386,-5.1372,-5.1343,-5.1296,-5.1265,-5.1248,-5.122,-5.122,-5.1206,-5.1202,-5.1171,-5.1127,-5.1108,-5.1114,-5.1114,-5.1114,-5.1114,-5.1133,-5.1133,-5.1139,-5.1053,-5.1116,-5.1373,-5.1885,-5.2798,-5.3688,-5.4523,-5.5258,-5.5702,-5.5954,-5.6012,-5.6012,-5.6012,-5.6012,-5.6012,-5.6012,-5.6012,-5.6012,-5.6012,-5.6012,-5.6012,-5.5995,-5.5884,-5.5769,-5.5827,-5.6657,-5.7525,-5.8413,-5.9283,-6.0152,-6.0789,-6.1041,-6.1099,-6.1099,-6.1099,-6.1099,-6.1173,-6.1227,-6.131,-6.1352,-6.1386,-6.14,-6.1386,-6.1386,-6.1386,-6.1386,-6.14,-6.14,-6.1386,-6.1386,-6.1386,-6.1366,-6.1352,-6.1306,-6.1278,-6.1245,-6.1191,-6.1155,-6.1099,-6.1099,-5.5203,-5.5203,-5.5307,-5.535,-5.5384,-5.5446,-5.5557,-5.5662,-5.5703,-5.5827,-5.5988,-5.6117,-5.6207,-5.6297,-5.6377,-5.6446,-5.6327,-5.6132,-5.586,-5.586,-5.584,-5.5723,-5.5205,-5.5673,-5.5272,-5.4677,-5.4089,-5.3225,-5.2186,-5.2104,-5.1854,-5.1441,-5.1402,-5.1386,-5.1402,-5.1391,-5.1379,-5.1333,-5.1291,-5.1253,-5.12,-5.1201,-5.1186,-5.1152,-5.1159,-5.1134,-5.1089,-5.1089,-5.1075,-5.1081,-5.1067,-5.1053,-5.1189,-5.1407,-5.147,-5.1218,-5.1416,-5.1769,-5.2392,-5.3323,-5.4349,-5.4755,-5.5548,-5.5954,-5.6012,-5.6012,-5.6012,-5.6012,-5.6012,-5.6012,-5.6012,-5.6012,-5.6012,-5.6012,-5.6012,-5.6012,-5.6012,-5.6012,-5.6012,-5.607,-5.6729,-5.7523,-5.845,-5.9319,-6.017,-6.0673,-6.1021,-6.1099,-6.1099,-6.1099,-6.1099,-6.1155,-6.1191,-6.1278,-6.1356,-6.1371,-6.1371,-6.1371,-6.1371,-6.1371,-6.1356,-6.1356,-6.1356,-6.1337,-6.1352,-6.1337,-6.1356,-6.1306,-6.1275,-6.1242,-6.1227,-6.1173,-6.1137,-6.1099,-6.1099,-5.4408,-5.4389,-5.4571,-5.4657,-5.4657,-5.479,-5.4955,-5.5171,-5.5255,-5.5493,-5.5865,-5.6004,-5.6126,-5.6283,-5.6417,-5.6483,-5.6483,-5.6444,-5.6433,-5.6414,-5.6394,-5.6453,-5.6461,-5.641,-5.6074,-5.5542,-5.5373,-5.4573,-5.3228,-5.2942,-5.2528,-5.2303,-5.1987,-5.1762,-5.1758,-5.1774,-5.1615,-5.1366,-5.1294,-5.1225,-5.1198,-5.121,-5.1159,-5.1114,-5.1121,-5.1114,-5.1067,-5.1067,-5.1034,-5.1097,-5.1179,-5.1281,-5.1397,-5.2005,-5.214,-5.1745,-5.2121,-5.2434,-5.3091,-5.3826,-5.4793,-5.518,-5.5664,-5.5935,-5.6012,-5.6012,-5.6012,-5.6012,-5.6012,-5.6012,-5.6012,-5.6012,-5.6012,-5.6012,-5.6012,-5.6012,-5.6012,-5.6012,-5.6012,-5.6263,-5.6766,-5.7482,-5.8352,-5.8952,-5.9706,-6.0731,-6.1099,-6.1099,-6.1099,-6.1099,-6.1099,-6.1136,-6.1191,-6.1242,-6.131,-6.1341,-6.1341,-6.1326,-6.1326,-6.1326,-6.1326,-6.133,-6.131,-6.1306,-6.1291,-6.1294,-6.1294,-6.1294,-6.1261,-6.1227,-6.121,-6.1155,-6.1117,-6.1099,-6.1099,-5.2703,-5.2722,-5.275,-5.2731,-5.2824,-5.2864,-5.3329,-5.4088,-5.432,-5.4908,-5.5634,-5.5861,-5.6029,-5.6222,-5.6407,-5.6483,-5.6483,-5.6483,-5.6492,-5.6488,-5.6488,-5.6496,-5.6491,-5.6498,-5.6426,-5.6146,-5.623,-5.5346,-5.4248,-5.3871,-5.3713,-5.3502,-5.3334,-5.3305,-5.2518,-5.2344,-5.2066,-5.1464,-5.1312,-5.1238,-5.1217,-5.1208,-5.1159,-5.1133,-5.1203,-5.1247,-5.1233,-5.1257,-5.1257,-5.1212,-5.1753,-5.2043,-5.2198,-5.2895,-5.3246,-5.3246,-5.3362,-5.3672,-5.4233,-5.4716,-5.518,-5.5586,-5.5935,-5.5993,-5.6012,-5.6012,-5.6012,-5.6012,-5.6012,-5.6012,-5.6012,-5.6012,-5.6012,-5.6012,-5.6012,-5.6012,-5.6012,-5.6012,-5.6012,-5.6031,-5.6399,-5.7288,-5.8197,-5.8681,-5.9242,-6.0306,-6.1099,-6.1099,-6.1099,-6.1099,-6.1099,-6.1117,-6.1173,-6.1245,-6.1278,-6.131,-6.1294,-6.1294,-6.1294,-6.1294,-6.1278,-6.1281,-6.1297,-6.1278,-6.1261,-6.1225,-6.1225,-6.1245,-6.121,-6.1192,-6.1174,-6.1137,-6.1099,-6.1099,-6.1099,-5.1547,-5.24,-5.24,-5.2409,-5.2399,-5.2409,-5.2665,-5.3156,-5.3784,-5.4355,-5.4951,-5.5537,-5.5838,-5.6038,-5.6241,-5.632,-5.6349,-5.6437,-5.65,-5.6488,-5.6496,-5.6484,-5.6478,-5.6491,-5.6484,-5.6509,-5.6494,-5.6304,-5.5401,-5.4836,-5.4528,-5.4084,-5.4029,-5.3799,-5.3332,-5.288,-5.2494,-5.2031,-5.1613,-5.1258,-5.122,-5.121,-5.1179,-5.1164,-5.1615,-5.1775,-5.1827,-5.2233,-5.2372,-5.2434,-5.2821,-5.2917,-5.313,-5.3691,-5.4252,-5.4271,-5.4697,-5.4871,-5.4832,-5.5219,-5.5625,-5.5857,-5.6012,-5.6012,-5.6012,-5.6012,-5.6012,-5.6012,-5.6012,-5.6012,-5.6012,-5.6012,-5.6012,-5.6012,-5.6012,-5.6012,-5.6012,-5.6012,-5.6012,-5.6012,-5.6089,-5.6902,-5.7753,-5.843,-5.9048,-6.0016,-6.0828,-6.1099,-6.1099,-6.1099,-6.1099,-6.1137,-6.1155,-6.121,-6.1245,-6.1261,-6.1261,-6.1245,-6.1245,-6.1227,-6.1227,-6.1247,-6.1227,-6.1227,-6.1173,-6.1173,-6.1191,-6.1173,-6.1155,-6.1137,-6.1137,-6.1118,-6.1099,-6.1099,-6.1099,-5.0637,-5.1755,-5.1774,-5.1793,-5.1774,-5.1784,-5.1915,-5.2317,-5.2924,-5.3608,-5.4364,-5.5151,-5.5705,-5.5846,-5.6035,-5.6149,-5.6226,-5.6358,-5.6444,-5.6469,-5.6491,-5.6517,-5.6517,-5.6528,-5.6533,-5.6533,-5.6563,-5.6465,-5.6328,-5.5938,-5.5294,-5.4674,-5.4908,-5.4576,-5.4147,-5.3526,-5.2885,-5.2097,-5.1562,-5.1406,-5.157,-5.1637,-5.1741,-5.1987,-5.2368,-5.2751,-5.2775,-5.3091,-5.342,-5.344,-5.3691,-5.3807,-5.3926,-5.4564,-5.5047,-5.5183,-5.5532,-5.5571,-5.5473,-5.5608,-5.5954,-5.6012,-5.6012,-5.6012,-5.6012,-5.6012,-5.6012,-5.6012,-5.6012,-5.6012,-5.6012,-5.6012,-5.6012,-5.6012,-5.6012,-5.6012,-5.6012,-5.6012,-5.6012,-5.6012,-5.607,-5.6244,-5.7114,-5.8043,-5.8894,-5.9783,-6.0441,-6.0983,-6.1099,-6.1099,-6.1099,-6.1118,-6.1137,-6.1192,-6.1192,-6.121,-6.121,-6.121,-6.1173,-6.1173,-6.1192,-6.1155,-6.1155,-6.1117,-6.1117,-6.1117,-6.1136,-6.1117,-6.1099,-6.1099,-6.1118,-6.1099,-6.1099,-6.1099,-6.1099,-4.9936,-5.0069,-5.0107,-5.0144,-5.0144,-5.0069,-5.0612,-5.1377,-5.1599,-5.259,-5.3983,-5.497,-5.5345,-5.5562,-5.5634,-5.5885,-5.6142,-5.6193,-5.633,-5.6437,-5.6497,-5.6528,-5.6558,-5.6582,-5.6582,-5.6602,-5.6606,-5.6606,-5.6586,-5.6469,-5.6333,-5.6391,-5.5981,-5.5728,-5.5201,-5.4342,-5.3201,-5.239,-5.1795,-5.2028,-5.2337,-5.2592,-5.285,-5.3377,-5.3654,-5.3766,-5.3677,-5.3832,-5.3933,-5.3972,-5.4404,-5.4677,-5.4813,-5.5301,-5.5668,-5.5785,-5.5844,-5.5864,-5.5825,-5.5842,-5.5956,-5.6012,-5.6012,-5.6012,-5.6012,-5.6012,-5.6012,-5.6012,-5.6012,-5.6012,-5.6012,-5.6012,-5.6012,-5.6012,-5.6051,-5.6186,-5.6147,-5.6031,-5.6031,-5.6012,-5.6186,-5.6476,-5.7076,-5.8159,-5.8662,-5.9493,-6.0518,-6.1099,-6.1099,-6.1099,-6.1099,-6.1099,-6.1099,-6.1099,-6.1099,-6.1117,-6.1155,-6.1155,-6.1137,-6.1137,-6.1117,-6.1099,-6.1099,-6.1099,-6.1099,-6.1099,-6.1099,-6.1099,-6.1099,-6.1099,-6.1099,-6.1099,-6.1099,-6.1099,-6.1099,-4.9879,-4.9879,-4.9879,-4.9879,-4.9879,-4.9879,-5.0157,-5.0609,-5.1171,-5.2073,-5.329,-5.3697,-5.3868,-5.4082,-5.472,-5.5036,-5.5255,-5.5968,-5.6133,-5.6375,-5.6459,-5.6533,-5.6582,-5.6582,-5.6606,-5.6606,-5.6606,-5.6606,-5.6606,-5.6606,-5.6606,-5.6606,-5.6567,-5.6458,-5.5876,-5.5072,-5.4027,-5.3301,-5.2891,-5.3144,-5.3263,-5.3429,-5.3571,-5.3824,-5.4545,-5.464,-5.4716,-5.5093,-5.5194,-5.5253,-5.5447,-5.5459,-5.5449,-5.5821,-5.5903,-5.5962,-5.5943,-5.5943,-5.5924,-5.5943,-5.5961,-5.5996,-5.6014,-5.6012,-5.6012,-5.6012,-5.6012,-5.6012,-5.6012,-5.6012,-5.6012,-5.6012,-5.6012,-5.6012,-5.6128,-5.6341,-5.6515,-5.6495,-5.6553,-5.6766,-5.6824,-5.696,-5.7656,-5.843,-5.8778,-5.9223,-6.0267,-6.1099,-6.1099,-6.1099,-6.1099,-6.1099,-6.1099,-6.1099,-6.1099,-6.1099,-6.1099,-6.1099,-6.1099,-6.1099,-6.1099,-6.1099,-6.1099,-6.1099,-6.1099,-6.1099,-6.1099,-6.1099,-6.1099,-6.1099,-6.1099,-6.1099,-6.1099,-6.1099,-6.1099,-4.9879,-4.9879,-4.9879,-4.9879,-4.9898,-4.9898,-4.9997,-5.0184,-5.0756,-5.1587,-5.2461,-5.2627,-5.2799,-5.3049,-5.3536,-5.4033,-5.4283,-5.4816,-5.5242,-5.5501,-5.574,-5.6062,-5.6235,-5.6421,-5.6606,-5.6606,-5.6606,-5.6606,-5.6606,-5.6606,-5.6614,-5.6543,-5.6341,-5.6146,-5.5938,-5.5377,-5.462,-5.416,-5.3965,-5.4141,-5.4219,-5.4332,-5.4618,-5.478,-5.54,-5.5581,-5.5664,-5.59,-5.6086,-5.6111,-5.6136,-5.6088,-5.6052,-5.5993,-5.5923,-5.5885,-5.5885,-5.5885,-5.5866,-5.5905,-5.5943,-5.598,-5.5998,-5.6014,-5.6012,-5.6012,-5.6012,-5.6012,-5.6012,-5.6012,-5.6012,-5.6012,-5.6302,-5.6418,-5.6573,-5.6786,-5.7288,-5.7462,-5.7521,-5.7617,-5.7656,-5.7714,-5.8159,-5.8894,-5.9513,-5.9822,-6.046,-6.1099,-6.1099,-6.1099,-6.1099,-6.1099,-6.1099,-6.1099,-6.1099,-6.1099,-6.1099,-6.1099,-6.1099,-6.1099,-6.1099,-6.1099,-6.1099,-6.1099,-6.1099,-6.1099,-6.1099,-6.1099,-6.1099,-6.1099,-6.1099,-6.1099,-6.1099,-6.1099,-6.1099,-4.9879,-4.9879,-4.9879,-4.9879,-4.9898,-4.9982,-5.0016,-5.0114,-5.0293,-5.0822,-5.1644,-5.2275,-5.2575,-5.2638,-5.2794,-5.3059,-5.3263,-5.349,-5.3774,-5.4168,-5.483,-5.5088,-5.5535,-5.597,-5.643,-5.6586,-5.6606,-5.6606,-5.6606,-5.6399,-5.6454,-5.6126,-5.5573,-5.5287,-5.5228,-5.4526,-5.4101,-5.4082,-5.418,-5.4668,-5.5098,-5.5274,-5.5619,-5.5996,-5.622,-5.63,-5.6328,-5.6313,-5.641,-5.6386,-5.631,-5.6212,-5.6093,-5.6052,-5.5973,-5.5827,-5.5807,-5.5787,-5.5807,-5.5846,-5.5905,-5.5981,-5.598,-5.6016,-5.5995,-5.6012,-5.6012,-5.6012,-5.6012,-5.6012,-5.6012,-5.6128,-5.6573,-5.6882,-5.7018,-5.754,-5.8062,-5.8139,-5.812,-5.843,-5.8546,-5.8642,-5.8932,-5.9397,-6.017,-6.0634,-6.0944,-6.1099,-6.1099,-6.1099,-6.1099,-6.1099,-6.1099,-6.1099,-6.1099,-6.1099,-6.1099,-6.1099,-6.1099,-6.1099,-6.1099,-6.1099,-6.1099,-6.1099,-6.1099,-6.1099,-6.1099,-6.1099,-6.1099,-6.1099,-6.1099,-6.1099,-6.1099,-6.1099,-6.1099,-4.9879,-4.9879,-4.9879,-4.9879,-4.9879,-4.9944,-5.0012,-5.0174,-5.024,-5.0455,-5.0703,-5.1066,-5.1142,-5.13,-5.1844,-5.2184,-5.2351,-5.3164,-5.3401,-5.3484,-5.4008,-5.4604,-5.5053,-5.5444,-5.6001,-5.6469,-5.6606,-5.6469,-5.6586,-5.6058,-5.5758,-5.5448,-5.4629,-5.4333,-5.5133,-5.5371,-5.5742,-5.5742,-5.5781,-5.5918,-5.6117,-5.6156,-5.6286,-5.6606,-5.6614,-5.6618,-5.6618,-5.6542,-5.6517,-5.6485,-5.641,-5.6281,-5.6154,-5.6123,-5.5968,-5.5845,-5.5789,-5.5745,-5.5745,-5.5806,-5.5846,-5.5924,-5.5981,-5.5998,-5.5995,-5.6012,-5.6012,-5.6012,-5.6012,-5.6012,-5.6012,-5.6611,-5.7076,-5.7308,-5.7656,-5.8507,-5.8971,-5.8662,-5.8584,-5.9165,-5.9474,-5.9783,-6.0074,-6.0016,-6.0596,-6.0847,-6.106,-6.1099,-6.1099,-6.1099,-6.1099,-6.1099,-6.1099,-6.1099,-6.1099,-6.1099,-6.1099,-6.1099,-6.1099,-6.1099,-6.1099,-6.1099,-6.1099,-6.1099,-6.1099,-6.1099,-6.1099,-6.1099,-6.1099,-6.1099,-6.1099,-6.1099,-6.1099,-6.1099,-6.1099,-4.9879,-4.9879,-4.9879,-4.9898,-4.9925,-4.9967,-5.0062,-5.0221,-5.0283,-5.0302,-5.0321,-5.0321,-5.034,-5.0554,-5.0929,-5.1319,-5.1439,-5.2011,-5.2395,-5.255,-5.3081,-5.3485,-5.3993,-5.4651,-5.506,-5.565,-5.5728,-5.5634,-5.5514,-5.5096,-5.4687,-5.418,-5.3594,-5.375,-5.4453,-5.4922,-5.584,-5.603,-5.6387,-5.6434,-5.6536,-5.6556,-5.6559,-5.661,-5.6606,-5.6606,-5.6606,-5.6606,-5.6606,-5.6558,-5.6478,-5.6359,-5.6281,-5.6158,-5.602,-5.5943,-5.5844,-5.5788,-5.5803,-5.5822,-5.5903,-5.5982,-5.6,-5.5998,-5.5995,-5.6012,-5.6012,-5.6012,-5.6012,-5.6012,-5.6128,-5.6844,-5.7462,-5.7675,-5.8526,-5.9358,-5.9841,-5.9571,-5.9532,-6.0093,-6.0286,-6.0692,-6.0925,-6.0944,-6.1002,-6.106,-6.1099,-6.1099,-6.1099,-6.1099,-6.1099,-6.1099,-6.1099,-6.1099,-6.1099,-6.1099,-6.1099,-6.1099,-6.1099,-6.1099,-6.1099,-6.1099,-6.1099,-6.1099,-6.1099,-6.1099,-6.1099,-6.1099,-6.1099,-6.1099,-6.1099,-6.1099,-6.1099,-6.1099,-6.1099,-4.9879,-4.9879,-4.9879,-4.9963,-4.999,-5.0043,-5.0164,-5.0302,-5.0302,-5.0302,-5.0302,-5.0302,-5.0302,-5.0325,-5.0473,-5.0596,-5.0675,-5.0875,-5.0971,-5.12,-5.1953,-5.2311,-5.2861,-5.3506,-5.4118,-5.4147,-5.4248,-5.4579,-5.4101,-5.4003,-5.3574,-5.3086,-5.3144,-5.3203,-5.3398,-5.3887,-5.4993,-5.5879,-5.6321,-5.6411,-5.6547,-5.6606,-5.661,-5.6606,-5.6606,-5.6606,-5.6606,-5.6606,-5.6606,-5.6602,-5.6602,-5.6472,-5.6379,-5.6316,-5.6202,-5.6097,-5.5978,-5.594,-5.5924,-5.5924,-5.6001,-5.6075,-5.6038,-5.6035,-5.6014,-5.6012,-5.6012,-5.6012,-5.6012,-5.6012,-5.6128,-5.6979,-5.7791,-5.8488,-5.9358,-6.0093,-6.0731,-6.0809,-6.0789,-6.0925,-6.0905,-6.106,-6.1041,-6.1099,-6.1099,-6.1099,-6.1099,-6.1099,-6.1099,-6.1099,-6.1099,-6.1099,-6.1099,-6.1099,-6.1099,-6.1099,-6.1099,-6.1099,-6.1099,-6.1099,-6.1099,-6.1099,-6.1099,-6.1099,-6.1099,-6.1099,-6.1099,-6.1099,-6.1099,-6.1099,-6.1099,-6.1099,-6.1099,-6.1099,-6.1099,-4.9879,-4.9879,-4.9879,-4.9963,-5.0009,-5.0106,-5.0206,-5.0245,-5.0283,-5.0302,-5.0302,-5.0302,-5.0302,-5.0302,-5.0457,-5.05,-5.0544,-5.0624,-5.0702,-5.0929,-5.1231,-5.1717,-5.2236,-5.2772,-5.3342,-5.3728,-5.3874,-5.375,-5.3769,-5.3452,-5.2632,-5.2012,-5.2264,-5.2357,-5.2668,-5.2962,-5.4203,-5.5248,-5.5708,-5.6138,-5.6469,-5.6606,-5.6606,-5.6606,-5.6606,-5.6606,-5.6606,-5.6606,-5.6606,-5.6606,-5.6606,-5.6553,-5.6528,-5.6386,-5.6222,-5.6122,-5.6063,-5.6054,-5.6067,-5.6098,-5.614,-5.6198,-5.6184,-5.6111,-5.607,-5.6029,-5.6029,-5.6031,-5.6031,-5.6051,-5.6418,-5.7192,-5.7927,-5.8662,-5.9629,-6.0576,-6.1099,-6.1099,-6.1099,-6.1099,-6.1099,-6.1099,-6.1099,-6.1099,-6.1099,-6.1099,-6.1099,-6.1099,-6.1099,-6.1099,-6.1099,-6.1099,-6.1099,-6.1099,-6.1099,-6.1099,-6.1099,-6.1099,-6.1099,-6.1099,-6.1099,-6.1099,-6.1099,-6.1099,-6.1099,-6.1099,-6.1099,-6.1099,-6.1099,-6.1099,-6.1099,-6.1099,-6.1099,-6.1099,-6.1099,-4.9879,-4.9879,-4.9879,-4.9959,-5.0063,-5.0106,-5.0178,-5.0245,-5.0302,-5.0302,-5.0302,-5.0302,-5.0302,-5.0325,-5.0435,-5.0521,-5.0523,-5.0624,-5.0683,-5.0721,-5.0839,-5.1231,-5.1683,-5.2012,-5.2326,-5.2812,-5.2969,-5.2754,-5.2891,-5.2568,-5.1821,-5.1515,-5.1396,-5.1684,-5.203,-5.2284,-5.3162,-5.4326,-5.5201,-5.5786,-5.6255,-5.6606,-5.6606,-5.6606,-5.6606,-5.6606,-5.6606,-5.6606,-5.6606,-5.6606,-5.6606,-5.6606,-5.6582,-5.6472,-5.6324,-5.6232,-5.6181,-5.6193,-5.622,-5.6271,-5.6296,-5.6325,-5.6343,-5.6261,-5.6188,-5.6126,-5.612,-5.6109,-5.6089,-5.6205,-5.6786,-5.7385,-5.7985,-5.8623,-5.9783,-6.0963,-6.1099,-6.1099,-6.1099,-6.1099,-6.1099,-6.1099,-6.1099,-6.1099,-6.1099,-6.1099,-6.1099,-6.1099,-6.1099,-6.1099,-6.1099,-6.1099,-6.1099,-6.1099,-6.1099,-6.1099,-6.1099,-6.1099,-6.1099,-6.1099,-6.1099,-6.1099,-6.1099,-6.1099,-6.1099,-6.1099,-6.1099,-6.1099,-6.1099,-6.1099,-6.1099,-6.1099,-6.1099,-6.1099,-6.1099,-4.9879,-4.9879,-4.9906,-4.9974,-5.0097,-5.013,-5.0193,-5.0302,-5.0302,-5.0302,-5.0302,-5.0302,-5.0302,-5.0325,-5.0438,-5.05,-5.0542,-5.0624,-5.0683,-5.0702,-5.0789,-5.1009,-5.1087,-5.1187,-5.162,-5.1465,-5.1504,-5.1933,-5.1601,-5.1535,-5.1584,-5.1398,-5.1391,-5.1528,-5.1574,-5.1613,-5.253,-5.401,-5.483,-5.5454,-5.6294,-5.6606,-5.6606,-5.6606,-5.6606,-5.6606,-5.6606,-5.6606,-5.6606,-5.6606,-5.6606,-5.6606,-5.6602,-5.6582,-5.6446,-5.6386,-5.6344,-5.6368,-5.6388,-5.6425,-5.645,-5.6466,-5.6519,-5.6421,-5.6341,-5.6233,-5.6204,-5.6184,-5.6184,-5.6162,-5.6592,-5.7654,-5.8467,-5.9068,-5.9996,-6.0847,-6.1176,-6.1157,-6.1137,-6.1137,-6.1099,-6.1099,-6.1099,-6.1099,-6.1137,-6.1118,-6.1137,-6.1137,-6.1156,-6.1156,-6.1117,-6.1117,-6.1099,-6.1099,-6.1099,-6.1099,-6.1099,-6.1099,-6.1099,-6.1099,-6.1099,-6.1099,-6.1099,-6.1099,-6.1099,-6.1099,-6.1099,-6.1099,-6.1099,-6.1099,-6.1099,-6.1099,-6.1099,-6.1099,-6.1099,-4.9879,-4.9925,-4.9997,-5.0062,-5.0133,-5.0207,-5.0259,-5.0302,-5.0302,-5.0302,-5.0302,-5.0302,-5.0302,-5.0325,-5.0457,-5.05,-5.0521,-5.0623,-5.0683,-5.0683,-5.0736,-5.0825,-5.0902,-5.1056,-5.1191,-5.1289,-5.1348,-5.1387,-5.1387,-5.1387,-5.1398,-5.1402,-5.1391,-5.1389,-5.1394,-5.1414,-5.2253,-5.3893,-5.4303,-5.5259,-5.643,-5.6606,-5.6606,-5.6606,-5.6606,-5.6606,-5.6606,-5.6606,-5.6606,-5.6606,-5.6606,-5.6606,-5.6606,-5.6606,-5.6582,-5.6533,-5.6503,-5.6524,-5.6537,-5.6542,-5.6554,-5.6569,-5.6582,-5.6549,-5.6488,-5.6369,-5.6297,-5.629,-5.6278,-5.6257,-5.6588,-5.7804,-5.8886,-5.9489,-6.0151,-6.0712,-6.1253,-6.1233,-6.1214,-6.1157,-6.1118,-6.1118,-6.1118,-6.1137,-6.1176,-6.1215,-6.1234,-6.1272,-6.1308,-6.1307,-6.1206,-6.1189,-6.1137,-6.1118,-6.1099,-6.1118,-6.1137,-6.1118,-6.1099,-6.1099,-6.1099,-6.1099,-6.1099,-6.1099,-6.1099,-6.1099,-6.1099,-6.1099,-6.1099,-6.1099,-6.1099,-6.1099,-6.1099,-6.1099,-6.1099,-4.9925,-4.9925,-4.9997,-5.0076,-5.0146,-5.0231,-5.0278,-5.0302,-5.0302,-5.0302,-5.0302,-5.0302,-5.0302,-5.0325,-5.0457,-5.05,-5.0521,-5.0643,-5.0683,-5.0683,-5.0702,-5.0757,-5.0885,-5.0971,-5.1097,-5.1211,-5.1308,-5.1348,-5.1387,-5.1387,-5.1384,-5.1396,-5.1396,-5.1391,-5.1398,-5.1511,-5.2253,-5.3912,-5.3971,-5.4966,-5.6411,-5.6606,-5.6606,-5.6606,-5.6606,-5.6606,-5.6606,-5.6606,-5.6606,-5.6606,-5.6606,-5.6606,-5.6606,-5.6606,-5.6606,-5.6602,-5.6602,-5.6606,-5.6606,-5.661,-5.6614,-5.661,-5.6601,-5.6582,-5.6582,-5.6484,-5.6445,-5.6425,-5.64,-5.6379,-5.6734,-5.7728,-5.8557,-5.9225,-6.0267,-6.1154,-6.1324,-6.13,-6.1268,-6.1234,-6.1215,-6.1215,-6.1215,-6.1273,-6.1291,-6.1307,-6.1328,-6.1337,-6.1376,-6.1446,-6.1345,-6.1275,-6.1247,-6.1156,-6.1099,-6.1137,-6.1176,-6.1137,-6.1118,-6.1099,-6.1099,-6.1099,-6.1099,-6.1099,-6.1099,-6.1099,-6.1099,-6.1099,-6.1099,-6.1099,-6.1099,-6.1099,-6.1099,-6.1099,-6.1099,-4.9959,-4.9952,-5.0005,-5.0095,-5.0178,-5.0217,-5.0255,-5.0302,-5.0302,-5.0302,-5.0302,-5.0302,-5.0302,-5.0348,-5.0416,-5.0478,-5.054,-5.0623,-5.0663,-5.0702,-5.0683,-5.0739,-5.0812,-5.0932,-5.1069,-5.1161,-5.1269,-5.1348,-5.1387,-5.1387,-5.1387,-5.1387,-5.1387,-5.1394,-5.1382,-5.159,-5.2253,-5.3541,-5.4225,-5.5025,-5.5903,-5.6606,-5.6606,-5.6606,-5.6606,-5.6606,-5.6606,-5.6606,-5.6606,-5.6606,-5.6606,-5.6606,-5.6606,-5.6606,-5.6606,-5.6606,-5.6606,-5.6606,-5.6606,-5.6618,-5.6612,-5.6621,-5.6621,-5.6621,-5.6621,-5.6582,-5.6543,-5.6523,-5.6504,-5.6621,-5.6992,-5.7715,-5.8496,-5.923,-6.0404,-6.1407,-6.1395,-6.1375,-6.1337,-6.132,-6.1311,-6.1311,-6.1326,-6.1384,-6.1402,-6.1414,-6.1415,-6.1417,-6.1451,-6.1495,-6.1479,-6.1439,-6.143,-6.1305,-6.1189,-6.1176,-6.1234,-6.1176,-6.1157,-6.1118,-6.1099,-6.1099,-6.1099,-6.1099,-6.1099,-6.1099,-6.1099,-6.1099,-6.1099,-6.1099,-6.1099,-6.1099,-6.1099,-6.1099,-6.1099,-5.0082,-5.0082,-5.0133,-5.0163,-5.0207,-5.0255,-5.0302,-5.0302,-5.0302,-5.0302,-5.0302,-5.0302,-5.0302,-5.0302,-5.0371,-5.0435,-5.0521,-5.0603,-5.0663,-5.0683,-5.0683,-5.0721,-5.0776,-5.0883,-5.1064,-5.1194,-5.1277,-5.1328,-5.1367,-5.1387,-5.1387,-5.1387,-5.1387,-5.1387,-5.1396,-5.1662,-5.2195,-5.3444,-5.4225,-5.4849,-5.6079,-5.6606,-5.6606,-5.6606,-5.6606,-5.6606,-5.6606,-5.6606,-5.6606,-5.6606,-5.6606,-5.6606,-5.6606,-5.6606,-5.6606,-5.6606,-5.6606,-5.661,-5.6618,-5.661,-5.6621,-5.6621,-5.6621,-5.6621,-5.6621,-5.6601,-5.6582,-5.6582,-5.6582,-5.6582,-5.7031,-5.8242,-5.914,-5.9687,-6.0594,-6.1167,-6.1448,-6.147,-6.149,-6.1428,-6.1386,-6.1391,-6.1389,-6.1428,-6.148,-6.1499,-6.155,-6.1546,-6.1583,-6.1589,-6.1601,-6.1582,-6.1582,-6.1499,-6.1369,-6.1307,-6.1311,-6.1253,-6.1176,-6.1157,-6.1118,-6.1099,-6.1099,-6.1099,-6.1099,-6.1099,-6.1099,-6.1099,-6.1099,-6.1099,-6.1099,-6.1099,-6.1099,-6.1099,-6.1099]}]]